<?xml version="1.0" encoding="UTF-8" standalone="no" ?>
<gpx xmlns="http://www.topografix.com/GPX/1/1" xmlns:xsi="http://www.w3.org/2001/XMLSchema-instance" xsi:schemaLocation="http://www.topografix.com/GPX/1/1 http://www.topografix.com/GPX/1/1/gpx.xsd" version="1.1" creator="VisuGPX - https://www.visugpx.com">
  <metadata>
    <name>Croce di Terra Nera (alta val susa)</name>
    <desc><![CDATA[Fenil,Grange Quagliet,Croce di Terra Nera]]></desc>
  </metadata>
  <trk>
    <name><![CDATA[Traccia corrente: 25 GIU 2015 08:07]]></name>
    <trkseg>
      <trkpt lat="44.98091" lon="6.80291">
        <ele>1244.53</ele>
        <time>2015-06-25T06:07:27Z</time>
      </trkpt>
      <trkpt lat="44.98091" lon="6.80284">
        <ele>1244.4</ele>
        <time>2015-06-25T06:07:29Z</time>
      </trkpt>
      <trkpt lat="44.98091" lon="6.80294">
        <ele>1244.31</ele>
        <time>2015-06-25T06:08:08Z</time>
      </trkpt>
      <trkpt lat="44.9809" lon="6.80288">
        <ele>1244.38</ele>
        <time>2015-06-25T06:08:49Z</time>
      </trkpt>
      <trkpt lat="44.98093" lon="6.80289">
        <ele>1243.89</ele>
        <time>2015-06-25T06:09:41Z</time>
      </trkpt>
      <trkpt lat="44.98093" lon="6.80288">
        <ele>1244.14</ele>
        <time>2015-06-25T06:10:28Z</time>
      </trkpt>
      <trkpt lat="44.98091" lon="6.80287">
        <ele>1244.09</ele>
        <time>2015-06-25T06:11:10Z</time>
      </trkpt>
      <trkpt lat="44.98093" lon="6.80286">
        <ele>1244.26</ele>
        <time>2015-06-25T06:12:03Z</time>
      </trkpt>
      <trkpt lat="44.98092" lon="6.80289">
        <ele>1244.15</ele>
        <time>2015-06-25T06:13:11Z</time>
      </trkpt>
      <trkpt lat="44.98091" lon="6.80293">
        <ele>1244.56</ele>
        <time>2015-06-25T06:14:13Z</time>
      </trkpt>
      <trkpt lat="44.98094" lon="6.80295">
        <ele>1243.98</ele>
        <time>2015-06-25T06:14:29Z</time>
      </trkpt>
      <trkpt lat="44.98092" lon="6.80292">
        <ele>1244.1</ele>
        <time>2015-06-25T06:14:33Z</time>
      </trkpt>
      <trkpt lat="44.98092" lon="6.80289">
        <ele>1244.15</ele>
        <time>2015-06-25T06:14:35Z</time>
      </trkpt>
      <trkpt lat="44.98094" lon="6.80277">
        <ele>1245.04</ele>
        <time>2015-06-25T06:14:44Z</time>
      </trkpt>
      <trkpt lat="44.9809" lon="6.80265">
        <ele>1245.64</ele>
        <time>2015-06-25T06:14:53Z</time>
      </trkpt>
      <trkpt lat="44.98091" lon="6.80257">
        <ele>1246.12</ele>
        <time>2015-06-25T06:14:59Z</time>
      </trkpt>
      <trkpt lat="44.98096" lon="6.80243">
        <ele>1247.24</ele>
        <time>2015-06-25T06:15:09Z</time>
      </trkpt>
      <trkpt lat="44.98096" lon="6.80226">
        <ele>1248.33</ele>
        <time>2015-06-25T06:15:17Z</time>
      </trkpt>
      <trkpt lat="44.98093" lon="6.80199">
        <ele>1250.53</ele>
        <time>2015-06-25T06:15:33Z</time>
      </trkpt>
      <trkpt lat="44.98094" lon="6.80174">
        <ele>1252.68</ele>
        <time>2015-06-25T06:15:47Z</time>
      </trkpt>
      <trkpt lat="44.98094" lon="6.80164">
        <ele>1253.58</ele>
        <time>2015-06-25T06:15:53Z</time>
      </trkpt>
      <trkpt lat="44.9809" lon="6.80153">
        <ele>1254.67</ele>
        <time>2015-06-25T06:16:06Z</time>
      </trkpt>
      <trkpt lat="44.98091" lon="6.80153">
        <ele>1255.19</ele>
        <time>2015-06-25T06:16:43Z</time>
      </trkpt>
      <trkpt lat="44.98095" lon="6.80153">
        <ele>1255.15</ele>
        <time>2015-06-25T06:17:06Z</time>
      </trkpt>
      <trkpt lat="44.98098" lon="6.80147">
        <ele>1255.24</ele>
        <time>2015-06-25T06:17:11Z</time>
      </trkpt>
      <trkpt lat="44.98098" lon="6.80119">
        <ele>1257.44</ele>
        <time>2015-06-25T06:17:28Z</time>
      </trkpt>
      <trkpt lat="44.98096" lon="6.80099">
        <ele>1259.13</ele>
        <time>2015-06-25T06:17:40Z</time>
      </trkpt>
      <trkpt lat="44.98097" lon="6.8006">
        <ele>1262.37</ele>
        <time>2015-06-25T06:17:59Z</time>
      </trkpt>
      <trkpt lat="44.98101" lon="6.8003">
        <ele>1264.28</ele>
        <time>2015-06-25T06:18:13Z</time>
      </trkpt>
      <trkpt lat="44.98112" lon="6.80002">
        <ele>1267.04</ele>
        <time>2015-06-25T06:18:26Z</time>
      </trkpt>
      <trkpt lat="44.98123" lon="6.79976">
        <ele>1269.26</ele>
        <time>2015-06-25T06:18:39Z</time>
      </trkpt>
      <trkpt lat="44.98135" lon="6.79945">
        <ele>1272.14</ele>
        <time>2015-06-25T06:18:56Z</time>
      </trkpt>
      <trkpt lat="44.98144" lon="6.79915">
        <ele>1274.59</ele>
        <time>2015-06-25T06:19:12Z</time>
      </trkpt>
      <trkpt lat="44.98145" lon="6.79888">
        <ele>1277.35</ele>
        <time>2015-06-25T06:19:26Z</time>
      </trkpt>
      <trkpt lat="44.98139" lon="6.79863">
        <ele>1280.16</ele>
        <time>2015-06-25T06:19:41Z</time>
      </trkpt>
      <trkpt lat="44.98126" lon="6.79833">
        <ele>1281.21</ele>
        <time>2015-06-25T06:19:56Z</time>
      </trkpt>
      <trkpt lat="44.98124" lon="6.79817">
        <ele>1281.99</ele>
        <time>2015-06-25T06:20:03Z</time>
      </trkpt>
      <trkpt lat="44.9812" lon="6.79818">
        <ele>1282.55</ele>
        <time>2015-06-25T06:20:07Z</time>
      </trkpt>
      <trkpt lat="44.98118" lon="6.79822">
        <ele>1282.66</ele>
        <time>2015-06-25T06:20:10Z</time>
      </trkpt>
      <trkpt lat="44.98115" lon="6.79825">
        <ele>1282.58</ele>
        <time>2015-06-25T06:20:13Z</time>
      </trkpt>
      <trkpt lat="44.98113" lon="6.79825">
        <ele>1282.55</ele>
        <time>2015-06-25T06:20:16Z</time>
      </trkpt>
      <trkpt lat="44.98111" lon="6.7982">
        <ele>1282.69</ele>
        <time>2015-06-25T06:20:31Z</time>
      </trkpt>
      <trkpt lat="44.98111" lon="6.79818">
        <ele>1282.94</ele>
        <time>2015-06-25T06:20:47Z</time>
      </trkpt>
      <trkpt lat="44.98119" lon="6.7981">
        <ele>1283.11</ele>
        <time>2015-06-25T06:20:55Z</time>
      </trkpt>
      <trkpt lat="44.98121" lon="6.79793">
        <ele>1283.8</ele>
        <time>2015-06-25T06:21:03Z</time>
      </trkpt>
      <trkpt lat="44.9812" lon="6.79767">
        <ele>1286.26</ele>
        <time>2015-06-25T06:21:15Z</time>
      </trkpt>
      <trkpt lat="44.98114" lon="6.79738">
        <ele>1288.91</ele>
        <time>2015-06-25T06:21:31Z</time>
      </trkpt>
      <trkpt lat="44.98113" lon="6.7972">
        <ele>1289.94</ele>
        <time>2015-06-25T06:21:40Z</time>
      </trkpt>
      <trkpt lat="44.98116" lon="6.79685">
        <ele>1292.34</ele>
        <time>2015-06-25T06:21:56Z</time>
      </trkpt>
      <trkpt lat="44.98123" lon="6.79644">
        <ele>1295.12</ele>
        <time>2015-06-25T06:22:15Z</time>
      </trkpt>
      <trkpt lat="44.98122" lon="6.79616">
        <ele>1297.25</ele>
        <time>2015-06-25T06:22:28Z</time>
      </trkpt>
      <trkpt lat="44.98127" lon="6.79586">
        <ele>1299.84</ele>
        <time>2015-06-25T06:22:44Z</time>
      </trkpt>
      <trkpt lat="44.98128" lon="6.79576">
        <ele>1300.73</ele>
        <time>2015-06-25T06:22:49Z</time>
      </trkpt>
      <trkpt lat="44.98131" lon="6.79567">
        <ele>1301.61</ele>
        <time>2015-06-25T06:22:54Z</time>
      </trkpt>
      <trkpt lat="44.98134" lon="6.79558">
        <ele>1302.47</ele>
        <time>2015-06-25T06:23:00Z</time>
      </trkpt>
      <trkpt lat="44.98141" lon="6.79548">
        <ele>1304.12</ele>
        <time>2015-06-25T06:23:08Z</time>
      </trkpt>
      <trkpt lat="44.98143" lon="6.79544">
        <ele>1304.68</ele>
        <time>2015-06-25T06:23:11Z</time>
      </trkpt>
      <trkpt lat="44.9815" lon="6.79532">
        <ele>1306.66</ele>
        <time>2015-06-25T06:23:20Z</time>
      </trkpt>
      <trkpt lat="44.98154" lon="6.79527">
        <ele>1307.58</ele>
        <time>2015-06-25T06:23:24Z</time>
      </trkpt>
      <trkpt lat="44.98163" lon="6.7951">
        <ele>1310.85</ele>
        <time>2015-06-25T06:23:37Z</time>
      </trkpt>
      <trkpt lat="44.98173" lon="6.79492">
        <ele>1314.04</ele>
        <time>2015-06-25T06:23:51Z</time>
      </trkpt>
      <trkpt lat="44.98183" lon="6.79472">
        <ele>1317.21</ele>
        <time>2015-06-25T06:24:05Z</time>
      </trkpt>
      <trkpt lat="44.9819" lon="6.79463">
        <ele>1319.08</ele>
        <time>2015-06-25T06:24:13Z</time>
      </trkpt>
      <trkpt lat="44.98199" lon="6.79442">
        <ele>1322.36</ele>
        <time>2015-06-25T06:24:29Z</time>
      </trkpt>
      <trkpt lat="44.98208" lon="6.79428">
        <ele>1325.03</ele>
        <time>2015-06-25T06:24:43Z</time>
      </trkpt>
      <trkpt lat="44.98219" lon="6.79411">
        <ele>1327.98</ele>
        <time>2015-06-25T06:25:00Z</time>
      </trkpt>
      <trkpt lat="44.98228" lon="6.79393">
        <ele>1330.6</ele>
        <time>2015-06-25T06:25:13Z</time>
      </trkpt>
      <trkpt lat="44.98238" lon="6.79372">
        <ele>1333.52</ele>
        <time>2015-06-25T06:25:28Z</time>
      </trkpt>
      <trkpt lat="44.98246" lon="6.7935">
        <ele>1335.63</ele>
        <time>2015-06-25T06:25:42Z</time>
      </trkpt>
      <trkpt lat="44.98258" lon="6.79317">
        <ele>1337.87</ele>
        <time>2015-06-25T06:26:00Z</time>
      </trkpt>
      <trkpt lat="44.9827" lon="6.79292">
        <ele>1340.03</ele>
        <time>2015-06-25T06:26:15Z</time>
      </trkpt>
      <trkpt lat="44.98287" lon="6.79265">
        <ele>1341.66</ele>
        <time>2015-06-25T06:26:32Z</time>
      </trkpt>
      <trkpt lat="44.98303" lon="6.79235">
        <ele>1343.8</ele>
        <time>2015-06-25T06:26:49Z</time>
      </trkpt>
      <trkpt lat="44.98306" lon="6.79197">
        <ele>1346.04</ele>
        <time>2015-06-25T06:27:05Z</time>
      </trkpt>
      <trkpt lat="44.98308" lon="6.79168">
        <ele>1348.61</ele>
        <time>2015-06-25T06:27:19Z</time>
      </trkpt>
      <trkpt lat="44.9831" lon="6.79138">
        <ele>1350.45</ele>
        <time>2015-06-25T06:27:32Z</time>
      </trkpt>
      <trkpt lat="44.98311" lon="6.79097">
        <ele>1353.32</ele>
        <time>2015-06-25T06:27:50Z</time>
      </trkpt>
      <trkpt lat="44.98305" lon="6.79069">
        <ele>1355.74</ele>
        <time>2015-06-25T06:28:04Z</time>
      </trkpt>
      <trkpt lat="44.983" lon="6.7905">
        <ele>1357.03</ele>
        <time>2015-06-25T06:28:14Z</time>
      </trkpt>
      <trkpt lat="44.98291" lon="6.79026">
        <ele>1358.94</ele>
        <time>2015-06-25T06:28:27Z</time>
      </trkpt>
      <trkpt lat="44.98295" lon="6.79027">
        <ele>1359.28</ele>
        <time>2015-06-25T06:28:31Z</time>
      </trkpt>
      <trkpt lat="44.98313" lon="6.79041">
        <ele>1359.02</ele>
        <time>2015-06-25T06:28:45Z</time>
      </trkpt>
      <trkpt lat="44.98322" lon="6.79053">
        <ele>1359.41</ele>
        <time>2015-06-25T06:28:54Z</time>
      </trkpt>
      <trkpt lat="44.98328" lon="6.79068">
        <ele>1360.26</ele>
        <time>2015-06-25T06:29:02Z</time>
      </trkpt>
      <trkpt lat="44.98339" lon="6.79098">
        <ele>1362.01</ele>
        <time>2015-06-25T06:29:17Z</time>
      </trkpt>
      <trkpt lat="44.98343" lon="6.79127">
        <ele>1363.68</ele>
        <time>2015-06-25T06:29:31Z</time>
      </trkpt>
      <trkpt lat="44.98348" lon="6.79163">
        <ele>1365.99</ele>
        <time>2015-06-25T06:29:47Z</time>
      </trkpt>
      <trkpt lat="44.98345" lon="6.79196">
        <ele>1368.45</ele>
        <time>2015-06-25T06:30:02Z</time>
      </trkpt>
      <trkpt lat="44.98345" lon="6.79224">
        <ele>1371.25</ele>
        <time>2015-06-25T06:30:16Z</time>
      </trkpt>
      <trkpt lat="44.98345" lon="6.79261">
        <ele>1373.62</ele>
        <time>2015-06-25T06:30:33Z</time>
      </trkpt>
      <trkpt lat="44.98346" lon="6.79293">
        <ele>1376.08</ele>
        <time>2015-06-25T06:30:48Z</time>
      </trkpt>
      <trkpt lat="44.98347" lon="6.7932">
        <ele>1378.16</ele>
        <time>2015-06-25T06:31:02Z</time>
      </trkpt>
      <trkpt lat="44.98343" lon="6.79356">
        <ele>1380.5</ele>
        <time>2015-06-25T06:31:20Z</time>
      </trkpt>
      <trkpt lat="44.9834" lon="6.79373">
        <ele>1381.94</ele>
        <time>2015-06-25T06:31:29Z</time>
      </trkpt>
      <trkpt lat="44.98342" lon="6.79408">
        <ele>1384.8</ele>
        <time>2015-06-25T06:31:47Z</time>
      </trkpt>
      <trkpt lat="44.98354" lon="6.79433">
        <ele>1387.75</ele>
        <time>2015-06-25T06:32:03Z</time>
      </trkpt>
      <trkpt lat="44.98368" lon="6.79451">
        <ele>1390.85</ele>
        <time>2015-06-25T06:32:18Z</time>
      </trkpt>
      <trkpt lat="44.9837" lon="6.79452">
        <ele>1391.2</ele>
        <time>2015-06-25T06:32:20Z</time>
      </trkpt>
      <trkpt lat="44.98377" lon="6.79446">
        <ele>1392.03</ele>
        <time>2015-06-25T06:32:26Z</time>
      </trkpt>
      <trkpt lat="44.98378" lon="6.79436">
        <ele>1392.89</ele>
        <time>2015-06-25T06:32:32Z</time>
      </trkpt>
      <trkpt lat="44.9838" lon="6.79403">
        <ele>1395.93</ele>
        <time>2015-06-25T06:32:50Z</time>
      </trkpt>
      <trkpt lat="44.98381" lon="6.79397">
        <ele>1396.59</ele>
        <time>2015-06-25T06:32:54Z</time>
      </trkpt>
      <trkpt lat="44.98392" lon="6.7937">
        <ele>1399.79</ele>
        <time>2015-06-25T06:33:12Z</time>
      </trkpt>
      <trkpt lat="44.98403" lon="6.79353">
        <ele>1401.81</ele>
        <time>2015-06-25T06:33:25Z</time>
      </trkpt>
      <trkpt lat="44.98416" lon="6.79337">
        <ele>1404.2</ele>
        <time>2015-06-25T06:33:39Z</time>
      </trkpt>
      <trkpt lat="44.98431" lon="6.79317">
        <ele>1407.2</ele>
        <time>2015-06-25T06:33:56Z</time>
      </trkpt>
      <trkpt lat="44.98444" lon="6.79296">
        <ele>1409.67</ele>
        <time>2015-06-25T06:34:12Z</time>
      </trkpt>
      <trkpt lat="44.98453" lon="6.7928">
        <ele>1412.21</ele>
        <time>2015-06-25T06:34:27Z</time>
      </trkpt>
      <trkpt lat="44.98464" lon="6.79266">
        <ele>1414.46</ele>
        <time>2015-06-25T06:34:41Z</time>
      </trkpt>
      <trkpt lat="44.98471" lon="6.79251">
        <ele>1416.87</ele>
        <time>2015-06-25T06:34:53Z</time>
      </trkpt>
      <trkpt lat="44.98482" lon="6.79231">
        <ele>1419.6</ele>
        <time>2015-06-25T06:35:08Z</time>
      </trkpt>
      <trkpt lat="44.98493" lon="6.79216">
        <ele>1422.34</ele>
        <time>2015-06-25T06:35:22Z</time>
      </trkpt>
      <trkpt lat="44.98503" lon="6.79202">
        <ele>1425.15</ele>
        <time>2015-06-25T06:35:36Z</time>
      </trkpt>
      <trkpt lat="44.98514" lon="6.79185">
        <ele>1428.3</ele>
        <time>2015-06-25T06:35:52Z</time>
      </trkpt>
      <trkpt lat="44.98522" lon="6.79168">
        <ele>1431.39</ele>
        <time>2015-06-25T06:36:06Z</time>
      </trkpt>
      <trkpt lat="44.98522" lon="6.79165">
        <ele>1432.1</ele>
        <time>2015-06-25T06:36:08Z</time>
      </trkpt>
      <trkpt lat="44.9852" lon="6.79155">
        <ele>1433.37</ele>
        <time>2015-06-25T06:36:15Z</time>
      </trkpt>
      <trkpt lat="44.98517" lon="6.79134">
        <ele>1436.07</ele>
        <time>2015-06-25T06:36:29Z</time>
      </trkpt>
      <trkpt lat="44.98513" lon="6.79116">
        <ele>1438.19</ele>
        <time>2015-06-25T06:36:42Z</time>
      </trkpt>
      <trkpt lat="44.98511" lon="6.79106">
        <ele>1439.2</ele>
        <time>2015-06-25T06:36:49Z</time>
      </trkpt>
      <trkpt lat="44.98506" lon="6.79083">
        <ele>1442.47</ele>
        <time>2015-06-25T06:37:05Z</time>
      </trkpt>
      <trkpt lat="44.985" lon="6.79059">
        <ele>1445.81</ele>
        <time>2015-06-25T06:37:21Z</time>
      </trkpt>
      <trkpt lat="44.98496" lon="6.79042">
        <ele>1448.61</ele>
        <time>2015-06-25T06:37:34Z</time>
      </trkpt>
      <trkpt lat="44.98491" lon="6.79022">
        <ele>1451.62</ele>
        <time>2015-06-25T06:37:49Z</time>
      </trkpt>
      <trkpt lat="44.98487" lon="6.79004">
        <ele>1454.63</ele>
        <time>2015-06-25T06:38:03Z</time>
      </trkpt>
      <trkpt lat="44.98486" lon="6.79001">
        <ele>1455</ele>
        <time>2015-06-25T06:38:05Z</time>
      </trkpt>
      <trkpt lat="44.98483" lon="6.78983">
        <ele>1457.43</ele>
        <time>2015-06-25T06:38:18Z</time>
      </trkpt>
      <trkpt lat="44.9848" lon="6.78972">
        <ele>1459.06</ele>
        <time>2015-06-25T06:38:26Z</time>
      </trkpt>
      <trkpt lat="44.9848" lon="6.78963">
        <ele>1459.83</ele>
        <time>2015-06-25T06:38:31Z</time>
      </trkpt>
      <trkpt lat="44.9848" lon="6.7896">
        <ele>1460.07</ele>
        <time>2015-06-25T06:38:33Z</time>
      </trkpt>
      <trkpt lat="44.98481" lon="6.78941">
        <ele>1461.64</ele>
        <time>2015-06-25T06:38:43Z</time>
      </trkpt>
      <trkpt lat="44.98486" lon="6.78917">
        <ele>1463.59</ele>
        <time>2015-06-25T06:38:57Z</time>
      </trkpt>
      <trkpt lat="44.98489" lon="6.78909">
        <ele>1464.35</ele>
        <time>2015-06-25T06:39:02Z</time>
      </trkpt>
      <trkpt lat="44.98502" lon="6.7889">
        <ele>1466.88</ele>
        <time>2015-06-25T06:39:18Z</time>
      </trkpt>
      <trkpt lat="44.98512" lon="6.78878">
        <ele>1468.53</ele>
        <time>2015-06-25T06:39:29Z</time>
      </trkpt>
      <trkpt lat="44.98525" lon="6.78863">
        <ele>1470.86</ele>
        <time>2015-06-25T06:39:44Z</time>
      </trkpt>
      <trkpt lat="44.9854" lon="6.78845">
        <ele>1473.49</ele>
        <time>2015-06-25T06:39:59Z</time>
      </trkpt>
      <trkpt lat="44.98558" lon="6.78825">
        <ele>1476.23</ele>
        <time>2015-06-25T06:40:17Z</time>
      </trkpt>
      <trkpt lat="44.98567" lon="6.78815">
        <ele>1478</ele>
        <time>2015-06-25T06:40:26Z</time>
      </trkpt>
      <trkpt lat="44.98582" lon="6.78796">
        <ele>1480.22</ele>
        <time>2015-06-25T06:40:42Z</time>
      </trkpt>
      <trkpt lat="44.98587" lon="6.78782">
        <ele>1481.4</ele>
        <time>2015-06-25T06:40:50Z</time>
      </trkpt>
      <trkpt lat="44.98587" lon="6.78773">
        <ele>1481.96</ele>
        <time>2015-06-25T06:40:55Z</time>
      </trkpt>
      <trkpt lat="44.98588" lon="6.78749">
        <ele>1484.71</ele>
        <time>2015-06-25T06:41:10Z</time>
      </trkpt>
      <trkpt lat="44.98593" lon="6.78731">
        <ele>1486.38</ele>
        <time>2015-06-25T06:41:22Z</time>
      </trkpt>
      <trkpt lat="44.98595" lon="6.78707">
        <ele>1488.82</ele>
        <time>2015-06-25T06:41:37Z</time>
      </trkpt>
      <trkpt lat="44.98594" lon="6.78698">
        <ele>1489.65</ele>
        <time>2015-06-25T06:41:43Z</time>
      </trkpt>
      <trkpt lat="44.98588" lon="6.78685">
        <ele>1490.85</ele>
        <time>2015-06-25T06:41:53Z</time>
      </trkpt>
      <trkpt lat="44.98582" lon="6.78675">
        <ele>1492.04</ele>
        <time>2015-06-25T06:42:01Z</time>
      </trkpt>
      <trkpt lat="44.98578" lon="6.78671">
        <ele>1492.83</ele>
        <time>2015-06-25T06:42:05Z</time>
      </trkpt>
      <trkpt lat="44.98572" lon="6.78664">
        <ele>1493.67</ele>
        <time>2015-06-25T06:42:11Z</time>
      </trkpt>
      <trkpt lat="44.98567" lon="6.78656">
        <ele>1494.51</ele>
        <time>2015-06-25T06:42:17Z</time>
      </trkpt>
      <trkpt lat="44.98563" lon="6.78653">
        <ele>1495.31</ele>
        <time>2015-06-25T06:42:21Z</time>
      </trkpt>
      <trkpt lat="44.98558" lon="6.7865">
        <ele>1496.31</ele>
        <time>2015-06-25T06:42:25Z</time>
      </trkpt>
      <trkpt lat="44.98551" lon="6.78623">
        <ele>1498.91</ele>
        <time>2015-06-25T06:42:43Z</time>
      </trkpt>
      <trkpt lat="44.98552" lon="6.78595">
        <ele>1501.52</ele>
        <time>2015-06-25T06:43:01Z</time>
      </trkpt>
      <trkpt lat="44.98557" lon="6.78574">
        <ele>1504.62</ele>
        <time>2015-06-25T06:43:17Z</time>
      </trkpt>
      <trkpt lat="44.98557" lon="6.78572">
        <ele>1504.79</ele>
        <time>2015-06-25T06:43:18Z</time>
      </trkpt>
      <trkpt lat="44.98563" lon="6.78544">
        <ele>1507.4</ele>
        <time>2015-06-25T06:43:35Z</time>
      </trkpt>
      <trkpt lat="44.98566" lon="6.78514">
        <ele>1508.9</ele>
        <time>2015-06-25T06:43:51Z</time>
      </trkpt>
      <trkpt lat="44.98563" lon="6.78484">
        <ele>1510.25</ele>
        <time>2015-06-25T06:44:07Z</time>
      </trkpt>
      <trkpt lat="44.98555" lon="6.78468">
        <ele>1510.87</ele>
        <time>2015-06-25T06:44:17Z</time>
      </trkpt>
      <trkpt lat="44.98546" lon="6.7845">
        <ele>1512.76</ele>
        <time>2015-06-25T06:44:29Z</time>
      </trkpt>
      <trkpt lat="44.9854" lon="6.78425">
        <ele>1514.23</ele>
        <time>2015-06-25T06:44:44Z</time>
      </trkpt>
      <trkpt lat="44.98528" lon="6.78395">
        <ele>1515.45</ele>
        <time>2015-06-25T06:45:00Z</time>
      </trkpt>
      <trkpt lat="44.98518" lon="6.78355">
        <ele>1516.42</ele>
        <time>2015-06-25T06:45:18Z</time>
      </trkpt>
      <trkpt lat="44.98507" lon="6.78337">
        <ele>1517.43</ele>
        <time>2015-06-25T06:45:31Z</time>
      </trkpt>
      <trkpt lat="44.98505" lon="6.78334">
        <ele>1517.58</ele>
        <time>2015-06-25T06:45:33Z</time>
      </trkpt>
      <trkpt lat="44.98495" lon="6.7831">
        <ele>1520.01</ele>
        <time>2015-06-25T06:45:49Z</time>
      </trkpt>
      <trkpt lat="44.98491" lon="6.78294">
        <ele>1521.23</ele>
        <time>2015-06-25T06:45:59Z</time>
      </trkpt>
      <trkpt lat="44.98488" lon="6.7829">
        <ele>1521.65</ele>
        <time>2015-06-25T06:46:02Z</time>
      </trkpt>
      <trkpt lat="44.98479" lon="6.78265">
        <ele>1523.65</ele>
        <time>2015-06-25T06:46:18Z</time>
      </trkpt>
      <trkpt lat="44.98479" lon="6.78235">
        <ele>1525.07</ele>
        <time>2015-06-25T06:46:34Z</time>
      </trkpt>
      <trkpt lat="44.98482" lon="6.78209">
        <ele>1527.07</ele>
        <time>2015-06-25T06:46:48Z</time>
      </trkpt>
      <trkpt lat="44.98494" lon="6.78207">
        <ele>1529.92</ele>
        <time>2015-06-25T06:47:03Z</time>
      </trkpt>
      <trkpt lat="44.98494" lon="6.78211">
        <ele>1530.19</ele>
        <time>2015-06-25T06:47:05Z</time>
      </trkpt>
      <trkpt lat="44.98495" lon="6.78235">
        <ele>1531.76</ele>
        <time>2015-06-25T06:47:18Z</time>
      </trkpt>
      <trkpt lat="44.98497" lon="6.78246">
        <ele>1532.45</ele>
        <time>2015-06-25T06:47:23Z</time>
      </trkpt>
      <trkpt lat="44.98508" lon="6.78268">
        <ele>1534.19</ele>
        <time>2015-06-25T06:47:38Z</time>
      </trkpt>
      <trkpt lat="44.98521" lon="6.7829">
        <ele>1535.95</ele>
        <time>2015-06-25T06:47:53Z</time>
      </trkpt>
      <trkpt lat="44.9854" lon="6.78309">
        <ele>1538.97</ele>
        <time>2015-06-25T06:48:10Z</time>
      </trkpt>
      <trkpt lat="44.98555" lon="6.78319">
        <ele>1541.29</ele>
        <time>2015-06-25T06:48:24Z</time>
      </trkpt>
      <trkpt lat="44.98575" lon="6.78326">
        <ele>1544.23</ele>
        <time>2015-06-25T06:48:42Z</time>
      </trkpt>
      <trkpt lat="44.98577" lon="6.78326">
        <ele>1544.57</ele>
        <time>2015-06-25T06:48:44Z</time>
      </trkpt>
      <trkpt lat="44.98583" lon="6.78327">
        <ele>1545.22</ele>
        <time>2015-06-25T06:48:48Z</time>
      </trkpt>
      <trkpt lat="44.98605" lon="6.78323">
        <ele>1548.34</ele>
        <time>2015-06-25T06:49:07Z</time>
      </trkpt>
      <trkpt lat="44.98617" lon="6.78315">
        <ele>1550.07</ele>
        <time>2015-06-25T06:49:18Z</time>
      </trkpt>
      <trkpt lat="44.9863" lon="6.78308">
        <ele>1552.21</ele>
        <time>2015-06-25T06:49:32Z</time>
      </trkpt>
      <trkpt lat="44.9865" lon="6.78308">
        <ele>1554.62</ele>
        <time>2015-06-25T06:49:48Z</time>
      </trkpt>
      <trkpt lat="44.98664" lon="6.7832">
        <ele>1556.36</ele>
        <time>2015-06-25T06:50:01Z</time>
      </trkpt>
      <trkpt lat="44.98668" lon="6.78318">
        <ele>1556.9</ele>
        <time>2015-06-25T06:50:05Z</time>
      </trkpt>
      <trkpt lat="44.9867" lon="6.7831">
        <ele>1557.87</ele>
        <time>2015-06-25T06:50:11Z</time>
      </trkpt>
      <trkpt lat="44.98667" lon="6.78302">
        <ele>1559.67</ele>
        <time>2015-06-25T06:50:27Z</time>
      </trkpt>
      <trkpt lat="44.98666" lon="6.78299">
        <ele>1559.62</ele>
        <time>2015-06-25T06:51:00Z</time>
      </trkpt>
      <trkpt lat="44.98664" lon="6.78301">
        <ele>1559.77</ele>
        <time>2015-06-25T06:51:52Z</time>
      </trkpt>
      <trkpt lat="44.98662" lon="6.78298">
        <ele>1559.97</ele>
        <time>2015-06-25T06:51:57Z</time>
      </trkpt>
      <trkpt lat="44.9866" lon="6.78294">
        <ele>1560.08</ele>
        <time>2015-06-25T06:52:00Z</time>
      </trkpt>
      <trkpt lat="44.98651" lon="6.78281">
        <ele>1561.27</ele>
        <time>2015-06-25T06:52:10Z</time>
      </trkpt>
      <trkpt lat="44.98643" lon="6.78272">
        <ele>1562.97</ele>
        <time>2015-06-25T06:52:19Z</time>
      </trkpt>
      <trkpt lat="44.98629" lon="6.7825">
        <ele>1565.37</ele>
        <time>2015-06-25T06:52:36Z</time>
      </trkpt>
      <trkpt lat="44.98624" lon="6.78232">
        <ele>1567.49</ele>
        <time>2015-06-25T06:52:47Z</time>
      </trkpt>
      <trkpt lat="44.98624" lon="6.78225">
        <ele>1567.93</ele>
        <time>2015-06-25T06:52:51Z</time>
      </trkpt>
      <trkpt lat="44.98623" lon="6.78191">
        <ele>1570.26</ele>
        <time>2015-06-25T06:53:10Z</time>
      </trkpt>
      <trkpt lat="44.98624" lon="6.78169">
        <ele>1572.7</ele>
        <time>2015-06-25T06:53:25Z</time>
      </trkpt>
      <trkpt lat="44.98624" lon="6.78167">
        <ele>1573.84</ele>
        <time>2015-06-25T06:53:46Z</time>
      </trkpt>
      <trkpt lat="44.98624" lon="6.78167">
        <ele>1573.98</ele>
        <time>2015-06-25T06:54:42Z</time>
      </trkpt>
      <trkpt lat="44.98626" lon="6.78168">
        <ele>1573.63</ele>
        <time>2015-06-25T06:55:37Z</time>
      </trkpt>
      <trkpt lat="44.98625" lon="6.78169">
        <ele>1574.06</ele>
        <time>2015-06-25T06:56:23Z</time>
      </trkpt>
      <trkpt lat="44.98624" lon="6.78167">
        <ele>1574.05</ele>
        <time>2015-06-25T06:56:55Z</time>
      </trkpt>
      <trkpt lat="44.98624" lon="6.78167">
        <ele>1574.31</ele>
        <time>2015-06-25T06:57:28Z</time>
      </trkpt>
      <trkpt lat="44.98625" lon="6.78165">
        <ele>1574.3</ele>
        <time>2015-06-25T06:57:56Z</time>
      </trkpt>
      <trkpt lat="44.98623" lon="6.78155">
        <ele>1574.66</ele>
        <time>2015-06-25T06:58:27Z</time>
      </trkpt>
      <trkpt lat="44.98625" lon="6.78153">
        <ele>1575.11</ele>
        <time>2015-06-25T06:58:31Z</time>
      </trkpt>
      <trkpt lat="44.98625" lon="6.78145">
        <ele>1575.66</ele>
        <time>2015-06-25T06:58:37Z</time>
      </trkpt>
      <trkpt lat="44.98622" lon="6.7814">
        <ele>1576</ele>
        <time>2015-06-25T06:58:41Z</time>
      </trkpt>
      <trkpt lat="44.98621" lon="6.78128">
        <ele>1576.49</ele>
        <time>2015-06-25T06:58:48Z</time>
      </trkpt>
      <trkpt lat="44.98616" lon="6.7811">
        <ele>1577.93</ele>
        <time>2015-06-25T06:59:00Z</time>
      </trkpt>
      <trkpt lat="44.9861" lon="6.78092">
        <ele>1579.63</ele>
        <time>2015-06-25T06:59:12Z</time>
      </trkpt>
      <trkpt lat="44.98605" lon="6.78071">
        <ele>1581.82</ele>
        <time>2015-06-25T06:59:26Z</time>
      </trkpt>
      <trkpt lat="44.98599" lon="6.78055">
        <ele>1584.85</ele>
        <time>2015-06-25T06:59:42Z</time>
      </trkpt>
      <trkpt lat="44.98594" lon="6.78032">
        <ele>1588</ele>
        <time>2015-06-25T07:00:00Z</time>
      </trkpt>
      <trkpt lat="44.98588" lon="6.78013">
        <ele>1590.77</ele>
        <time>2015-06-25T07:00:17Z</time>
      </trkpt>
      <trkpt lat="44.98583" lon="6.78001">
        <ele>1592.04</ele>
        <time>2015-06-25T07:00:25Z</time>
      </trkpt>
      <trkpt lat="44.98576" lon="6.77979">
        <ele>1594.66</ele>
        <time>2015-06-25T07:00:41Z</time>
      </trkpt>
      <trkpt lat="44.9857" lon="6.77958">
        <ele>1597.84</ele>
        <time>2015-06-25T07:00:56Z</time>
      </trkpt>
      <trkpt lat="44.98565" lon="6.77937">
        <ele>1599.94</ele>
        <time>2015-06-25T07:01:09Z</time>
      </trkpt>
      <trkpt lat="44.98559" lon="6.77911">
        <ele>1603.07</ele>
        <time>2015-06-25T07:01:25Z</time>
      </trkpt>
      <trkpt lat="44.98555" lon="6.77887">
        <ele>1605.28</ele>
        <time>2015-06-25T07:01:41Z</time>
      </trkpt>
      <trkpt lat="44.98566" lon="6.77871">
        <ele>1607.79</ele>
        <time>2015-06-25T07:01:57Z</time>
      </trkpt>
      <trkpt lat="44.98568" lon="6.77872">
        <ele>1608.05</ele>
        <time>2015-06-25T07:01:59Z</time>
      </trkpt>
      <trkpt lat="44.9858" lon="6.77881">
        <ele>1609.63</ele>
        <time>2015-06-25T07:02:12Z</time>
      </trkpt>
      <trkpt lat="44.98581" lon="6.77883">
        <ele>1610.88</ele>
        <time>2015-06-25T07:02:27Z</time>
      </trkpt>
      <trkpt lat="44.98584" lon="6.77882">
        <ele>1610.81</ele>
        <time>2015-06-25T07:02:43Z</time>
      </trkpt>
      <trkpt lat="44.98586" lon="6.77884">
        <ele>1610.93</ele>
        <time>2015-06-25T07:02:45Z</time>
      </trkpt>
      <trkpt lat="44.98593" lon="6.77887">
        <ele>1611.6</ele>
        <time>2015-06-25T07:02:51Z</time>
      </trkpt>
      <trkpt lat="44.98607" lon="6.77898">
        <ele>1613.55</ele>
        <time>2015-06-25T07:03:03Z</time>
      </trkpt>
      <trkpt lat="44.98623" lon="6.77905">
        <ele>1615.81</ele>
        <time>2015-06-25T07:03:17Z</time>
      </trkpt>
      <trkpt lat="44.98623" lon="6.77906">
        <ele>1615.92</ele>
        <time>2015-06-25T07:03:18Z</time>
      </trkpt>
      <trkpt lat="44.98636" lon="6.77924">
        <ele>1618.18</ele>
        <time>2015-06-25T07:03:34Z</time>
      </trkpt>
      <trkpt lat="44.98636" lon="6.77925">
        <ele>1618.31</ele>
        <time>2015-06-25T07:03:35Z</time>
      </trkpt>
      <trkpt lat="44.98653" lon="6.77952">
        <ele>1621.24</ele>
        <time>2015-06-25T07:03:54Z</time>
      </trkpt>
      <trkpt lat="44.98671" lon="6.77958">
        <ele>1623.75</ele>
        <time>2015-06-25T07:04:11Z</time>
      </trkpt>
      <trkpt lat="44.98685" lon="6.77959">
        <ele>1625.75</ele>
        <time>2015-06-25T07:04:24Z</time>
      </trkpt>
      <trkpt lat="44.98696" lon="6.77955">
        <ele>1627.7</ele>
        <time>2015-06-25T07:04:36Z</time>
      </trkpt>
      <trkpt lat="44.98696" lon="6.77948">
        <ele>1628.33</ele>
        <time>2015-06-25T07:04:41Z</time>
      </trkpt>
      <trkpt lat="44.98696" lon="6.77946">
        <ele>1628.64</ele>
        <time>2015-06-25T07:04:43Z</time>
      </trkpt>
      <trkpt lat="44.98684" lon="6.77929">
        <ele>1631.05</ele>
        <time>2015-06-25T07:05:00Z</time>
      </trkpt>
      <trkpt lat="44.98681" lon="6.77924">
        <ele>1631.57</ele>
        <time>2015-06-25T07:05:04Z</time>
      </trkpt>
      <trkpt lat="44.98676" lon="6.77907">
        <ele>1633.95</ele>
        <time>2015-06-25T07:05:19Z</time>
      </trkpt>
      <trkpt lat="44.98667" lon="6.77886">
        <ele>1636</ele>
        <time>2015-06-25T07:05:35Z</time>
      </trkpt>
      <trkpt lat="44.9866" lon="6.77858">
        <ele>1639.1</ele>
        <time>2015-06-25T07:05:53Z</time>
      </trkpt>
      <trkpt lat="44.98653" lon="6.77838">
        <ele>1641.57</ele>
        <time>2015-06-25T07:06:09Z</time>
      </trkpt>
      <trkpt lat="44.98647" lon="6.77812">
        <ele>1644.58</ele>
        <time>2015-06-25T07:06:29Z</time>
      </trkpt>
      <trkpt lat="44.98642" lon="6.77784">
        <ele>1647.65</ele>
        <time>2015-06-25T07:06:50Z</time>
      </trkpt>
      <trkpt lat="44.98641" lon="6.77773">
        <ele>1648.5</ele>
        <time>2015-06-25T07:06:57Z</time>
      </trkpt>
      <trkpt lat="44.98641" lon="6.77742">
        <ele>1651.39</ele>
        <time>2015-06-25T07:07:15Z</time>
      </trkpt>
      <trkpt lat="44.98638" lon="6.77736">
        <ele>1651.98</ele>
        <time>2015-06-25T07:07:19Z</time>
      </trkpt>
      <trkpt lat="44.98625" lon="6.77716">
        <ele>1653.56</ele>
        <time>2015-06-25T07:07:35Z</time>
      </trkpt>
      <trkpt lat="44.98615" lon="6.77704">
        <ele>1655.32</ele>
        <time>2015-06-25T07:07:47Z</time>
      </trkpt>
      <trkpt lat="44.98602" lon="6.77689">
        <ele>1657.33</ele>
        <time>2015-06-25T07:08:01Z</time>
      </trkpt>
      <trkpt lat="44.98587" lon="6.77671">
        <ele>1659.09</ele>
        <time>2015-06-25T07:08:17Z</time>
      </trkpt>
      <trkpt lat="44.98576" lon="6.77649">
        <ele>1661.44</ele>
        <time>2015-06-25T07:08:35Z</time>
      </trkpt>
      <trkpt lat="44.98566" lon="6.77634">
        <ele>1663.52</ele>
        <time>2015-06-25T07:08:49Z</time>
      </trkpt>
      <trkpt lat="44.98555" lon="6.77619">
        <ele>1665.49</ele>
        <time>2015-06-25T07:09:04Z</time>
      </trkpt>
      <trkpt lat="44.98548" lon="6.77604">
        <ele>1667.56</ele>
        <time>2015-06-25T07:09:16Z</time>
      </trkpt>
      <trkpt lat="44.98542" lon="6.77592">
        <ele>1668.81</ele>
        <time>2015-06-25T07:09:26Z</time>
      </trkpt>
      <trkpt lat="44.98539" lon="6.77561">
        <ele>1671.41</ele>
        <time>2015-06-25T07:09:46Z</time>
      </trkpt>
      <trkpt lat="44.98547" lon="6.77542">
        <ele>1673.31</ele>
        <time>2015-06-25T07:10:00Z</time>
      </trkpt>
      <trkpt lat="44.9855" lon="6.77543">
        <ele>1673.64</ele>
        <time>2015-06-25T07:10:02Z</time>
      </trkpt>
      <trkpt lat="44.98562" lon="6.77565">
        <ele>1676.21</ele>
        <time>2015-06-25T07:10:21Z</time>
      </trkpt>
      <trkpt lat="44.98569" lon="6.77571">
        <ele>1677.53</ele>
        <time>2015-06-25T07:10:29Z</time>
      </trkpt>
      <trkpt lat="44.98572" lon="6.77572">
        <ele>1677.91</ele>
        <time>2015-06-25T07:10:32Z</time>
      </trkpt>
      <trkpt lat="44.9859" lon="6.77581">
        <ele>1680.07</ele>
        <time>2015-06-25T07:10:48Z</time>
      </trkpt>
      <trkpt lat="44.98603" lon="6.77586">
        <ele>1681.67</ele>
        <time>2015-06-25T07:11:00Z</time>
      </trkpt>
      <trkpt lat="44.98606" lon="6.77571">
        <ele>1683.81</ele>
        <time>2015-06-25T07:11:13Z</time>
      </trkpt>
      <trkpt lat="44.98604" lon="6.77566">
        <ele>1684.79</ele>
        <time>2015-06-25T07:11:18Z</time>
      </trkpt>
      <trkpt lat="44.98594" lon="6.77544">
        <ele>1686.83</ele>
        <time>2015-06-25T07:11:35Z</time>
      </trkpt>
      <trkpt lat="44.98585" lon="6.77527">
        <ele>1688.61</ele>
        <time>2015-06-25T07:11:50Z</time>
      </trkpt>
      <trkpt lat="44.98571" lon="6.77506">
        <ele>1690.67</ele>
        <time>2015-06-25T07:12:05Z</time>
      </trkpt>
      <trkpt lat="44.98562" lon="6.77485">
        <ele>1692.67</ele>
        <time>2015-06-25T07:12:20Z</time>
      </trkpt>
      <trkpt lat="44.9856" lon="6.77466">
        <ele>1694.76</ele>
        <time>2015-06-25T07:12:33Z</time>
      </trkpt>
      <trkpt lat="44.98559" lon="6.77442">
        <ele>1697.15</ele>
        <time>2015-06-25T07:12:49Z</time>
      </trkpt>
      <trkpt lat="44.9855" lon="6.77432">
        <ele>1699.4</ele>
        <time>2015-06-25T07:13:01Z</time>
      </trkpt>
      <trkpt lat="44.98531" lon="6.77423">
        <ele>1702.01</ele>
        <time>2015-06-25T07:13:18Z</time>
      </trkpt>
      <trkpt lat="44.98514" lon="6.77411">
        <ele>1704.19</ele>
        <time>2015-06-25T07:13:34Z</time>
      </trkpt>
      <trkpt lat="44.98501" lon="6.774">
        <ele>1706.24</ele>
        <time>2015-06-25T07:13:48Z</time>
      </trkpt>
      <trkpt lat="44.98486" lon="6.77386">
        <ele>1708.71</ele>
        <time>2015-06-25T07:14:03Z</time>
      </trkpt>
      <trkpt lat="44.98476" lon="6.7737">
        <ele>1710.09</ele>
        <time>2015-06-25T07:14:17Z</time>
      </trkpt>
      <trkpt lat="44.98469" lon="6.77353">
        <ele>1711.55</ele>
        <time>2015-06-25T07:14:29Z</time>
      </trkpt>
      <trkpt lat="44.9847" lon="6.77346">
        <ele>1712.16</ele>
        <time>2015-06-25T07:14:33Z</time>
      </trkpt>
      <trkpt lat="44.98476" lon="6.77341">
        <ele>1713.38</ele>
        <time>2015-06-25T07:14:39Z</time>
      </trkpt>
      <trkpt lat="44.98483" lon="6.77346">
        <ele>1714.88</ele>
        <time>2015-06-25T07:14:47Z</time>
      </trkpt>
      <trkpt lat="44.985" lon="6.77367">
        <ele>1717.57</ele>
        <time>2015-06-25T07:15:07Z</time>
      </trkpt>
      <trkpt lat="44.98513" lon="6.77372">
        <ele>1719.73</ele>
        <time>2015-06-25T07:15:19Z</time>
      </trkpt>
      <trkpt lat="44.98523" lon="6.77372">
        <ele>1720.9</ele>
        <time>2015-06-25T07:15:27Z</time>
      </trkpt>
      <trkpt lat="44.98531" lon="6.77371">
        <ele>1722.22</ele>
        <time>2015-06-25T07:15:35Z</time>
      </trkpt>
      <trkpt lat="44.98546" lon="6.77367">
        <ele>1723.95</ele>
        <time>2015-06-25T07:15:49Z</time>
      </trkpt>
      <trkpt lat="44.98563" lon="6.77373">
        <ele>1726.7</ele>
        <time>2015-06-25T07:16:05Z</time>
      </trkpt>
      <trkpt lat="44.98572" lon="6.77377">
        <ele>1728.14</ele>
        <time>2015-06-25T07:16:14Z</time>
      </trkpt>
      <trkpt lat="44.98576" lon="6.77378">
        <ele>1728.54</ele>
        <time>2015-06-25T07:16:17Z</time>
      </trkpt>
      <trkpt lat="44.98591" lon="6.77391">
        <ele>1729.55</ele>
        <time>2015-06-25T07:16:30Z</time>
      </trkpt>
      <trkpt lat="44.98599" lon="6.77396">
        <ele>1730.35</ele>
        <time>2015-06-25T07:16:38Z</time>
      </trkpt>
      <trkpt lat="44.98611" lon="6.77403">
        <ele>1731.58</ele>
        <time>2015-06-25T07:16:48Z</time>
      </trkpt>
      <trkpt lat="44.98626" lon="6.77416">
        <ele>1733.79</ele>
        <time>2015-06-25T07:17:04Z</time>
      </trkpt>
      <trkpt lat="44.98635" lon="6.77417">
        <ele>1734.98</ele>
        <time>2015-06-25T07:17:12Z</time>
      </trkpt>
      <trkpt lat="44.9864" lon="6.77403">
        <ele>1736.52</ele>
        <time>2015-06-25T07:17:23Z</time>
      </trkpt>
      <trkpt lat="44.98629" lon="6.77392">
        <ele>1738.35</ele>
        <time>2015-06-25T07:17:39Z</time>
      </trkpt>
      <trkpt lat="44.98619" lon="6.7738">
        <ele>1740.29</ele>
        <time>2015-06-25T07:17:53Z</time>
      </trkpt>
      <trkpt lat="44.98616" lon="6.77371">
        <ele>1741.49</ele>
        <time>2015-06-25T07:18:01Z</time>
      </trkpt>
      <trkpt lat="44.98615" lon="6.77365">
        <ele>1742.26</ele>
        <time>2015-06-25T07:18:05Z</time>
      </trkpt>
      <trkpt lat="44.98616" lon="6.77349">
        <ele>1743.52</ele>
        <time>2015-06-25T07:18:15Z</time>
      </trkpt>
      <trkpt lat="44.98615" lon="6.77346">
        <ele>1744.09</ele>
        <time>2015-06-25T07:18:18Z</time>
      </trkpt>
      <trkpt lat="44.9861" lon="6.77343">
        <ele>1745.16</ele>
        <time>2015-06-25T07:18:23Z</time>
      </trkpt>
      <trkpt lat="44.98601" lon="6.77339">
        <ele>1747.04</ele>
        <time>2015-06-25T07:18:32Z</time>
      </trkpt>
      <trkpt lat="44.98586" lon="6.77324">
        <ele>1748.73</ele>
        <time>2015-06-25T07:18:47Z</time>
      </trkpt>
      <trkpt lat="44.98579" lon="6.77307">
        <ele>1750.55</ele>
        <time>2015-06-25T07:18:59Z</time>
      </trkpt>
      <trkpt lat="44.98576" lon="6.77301">
        <ele>1751.42</ele>
        <time>2015-06-25T07:19:04Z</time>
      </trkpt>
      <trkpt lat="44.98566" lon="6.77295">
        <ele>1752.83</ele>
        <time>2015-06-25T07:19:15Z</time>
      </trkpt>
      <trkpt lat="44.98556" lon="6.77289">
        <ele>1754.08</ele>
        <time>2015-06-25T07:19:24Z</time>
      </trkpt>
      <trkpt lat="44.98543" lon="6.77273">
        <ele>1756.04</ele>
        <time>2015-06-25T07:19:38Z</time>
      </trkpt>
      <trkpt lat="44.98539" lon="6.77264">
        <ele>1757.16</ele>
        <time>2015-06-25T07:19:44Z</time>
      </trkpt>
      <trkpt lat="44.98545" lon="6.77245">
        <ele>1758.98</ele>
        <time>2015-06-25T07:20:00Z</time>
      </trkpt>
      <trkpt lat="44.98558" lon="6.77255">
        <ele>1761.27</ele>
        <time>2015-06-25T07:20:16Z</time>
      </trkpt>
      <trkpt lat="44.98566" lon="6.77256">
        <ele>1762</ele>
        <time>2015-06-25T07:20:22Z</time>
      </trkpt>
      <trkpt lat="44.98583" lon="6.77258">
        <ele>1764.1</ele>
        <time>2015-06-25T07:20:37Z</time>
      </trkpt>
      <trkpt lat="44.98588" lon="6.77257">
        <ele>1765.69</ele>
        <time>2015-06-25T07:20:53Z</time>
      </trkpt>
      <trkpt lat="44.98588" lon="6.77257">
        <ele>1765.56</ele>
        <time>2015-06-25T07:21:33Z</time>
      </trkpt>
      <trkpt lat="44.98588" lon="6.77259">
        <ele>1765.83</ele>
        <time>2015-06-25T07:22:26Z</time>
      </trkpt>
      <trkpt lat="44.9859" lon="6.77257">
        <ele>1765.6</ele>
        <time>2015-06-25T07:23:13Z</time>
      </trkpt>
      <trkpt lat="44.9859" lon="6.77257">
        <ele>1765.41</ele>
        <time>2015-06-25T07:23:52Z</time>
      </trkpt>
      <trkpt lat="44.98589" lon="6.77257">
        <ele>1765.24</ele>
        <time>2015-06-25T07:24:32Z</time>
      </trkpt>
      <trkpt lat="44.98595" lon="6.77258">
        <ele>1765.48</ele>
        <time>2015-06-25T07:24:43Z</time>
      </trkpt>
      <trkpt lat="44.98609" lon="6.77262">
        <ele>1767.06</ele>
        <time>2015-06-25T07:24:57Z</time>
      </trkpt>
      <trkpt lat="44.98626" lon="6.77269">
        <ele>1769.11</ele>
        <time>2015-06-25T07:25:14Z</time>
      </trkpt>
      <trkpt lat="44.98643" lon="6.77274">
        <ele>1770.93</ele>
        <time>2015-06-25T07:25:30Z</time>
      </trkpt>
      <trkpt lat="44.98656" lon="6.77275">
        <ele>1772.8</ele>
        <time>2015-06-25T07:25:44Z</time>
      </trkpt>
      <trkpt lat="44.98664" lon="6.77277">
        <ele>1774.26</ele>
        <time>2015-06-25T07:25:54Z</time>
      </trkpt>
      <trkpt lat="44.98681" lon="6.77288">
        <ele>1774.88</ele>
        <time>2015-06-25T07:26:07Z</time>
      </trkpt>
      <trkpt lat="44.98684" lon="6.77288">
        <ele>1774.99</ele>
        <time>2015-06-25T07:26:09Z</time>
      </trkpt>
      <trkpt lat="44.98686" lon="6.77278">
        <ele>1777.05</ele>
        <time>2015-06-25T07:26:23Z</time>
      </trkpt>
      <trkpt lat="44.98678" lon="6.77267">
        <ele>1779.7</ele>
        <time>2015-06-25T07:26:35Z</time>
      </trkpt>
      <trkpt lat="44.98665" lon="6.77249">
        <ele>1782.47</ele>
        <time>2015-06-25T07:26:51Z</time>
      </trkpt>
      <trkpt lat="44.98656" lon="6.77237">
        <ele>1784.53</ele>
        <time>2015-06-25T07:27:04Z</time>
      </trkpt>
      <trkpt lat="44.98642" lon="6.7722">
        <ele>1786.93</ele>
        <time>2015-06-25T07:27:20Z</time>
      </trkpt>
      <trkpt lat="44.98632" lon="6.77203">
        <ele>1788.53</ele>
        <time>2015-06-25T07:27:35Z</time>
      </trkpt>
      <trkpt lat="44.98627" lon="6.77189">
        <ele>1789.86</ele>
        <time>2015-06-25T07:27:45Z</time>
      </trkpt>
      <trkpt lat="44.98625" lon="6.77186">
        <ele>1790.37</ele>
        <time>2015-06-25T07:27:48Z</time>
      </trkpt>
      <trkpt lat="44.98613" lon="6.77174">
        <ele>1792.44</ele>
        <time>2015-06-25T07:28:02Z</time>
      </trkpt>
      <trkpt lat="44.98606" lon="6.77167">
        <ele>1793.3</ele>
        <time>2015-06-25T07:28:10Z</time>
      </trkpt>
      <trkpt lat="44.98601" lon="6.77155">
        <ele>1794.39</ele>
        <time>2015-06-25T07:28:19Z</time>
      </trkpt>
      <trkpt lat="44.98598" lon="6.77144">
        <ele>1795.68</ele>
        <time>2015-06-25T07:28:26Z</time>
      </trkpt>
      <trkpt lat="44.98597" lon="6.77134">
        <ele>1796.54</ele>
        <time>2015-06-25T07:28:32Z</time>
      </trkpt>
      <trkpt lat="44.98599" lon="6.7711">
        <ele>1798.66</ele>
        <time>2015-06-25T07:28:46Z</time>
      </trkpt>
      <trkpt lat="44.98602" lon="6.77096">
        <ele>1799.68</ele>
        <time>2015-06-25T07:28:54Z</time>
      </trkpt>
      <trkpt lat="44.9861" lon="6.77093">
        <ele>1800.49</ele>
        <time>2015-06-25T07:29:02Z</time>
      </trkpt>
      <trkpt lat="44.98612" lon="6.77095">
        <ele>1801.01</ele>
        <time>2015-06-25T07:29:05Z</time>
      </trkpt>
      <trkpt lat="44.98615" lon="6.77106">
        <ele>1802.6</ele>
        <time>2015-06-25T07:29:13Z</time>
      </trkpt>
      <trkpt lat="44.98615" lon="6.77112">
        <ele>1803.18</ele>
        <time>2015-06-25T07:29:17Z</time>
      </trkpt>
      <trkpt lat="44.98625" lon="6.77125">
        <ele>1805.55</ele>
        <time>2015-06-25T07:29:32Z</time>
      </trkpt>
      <trkpt lat="44.98628" lon="6.77123">
        <ele>1806.27</ele>
        <time>2015-06-25T07:29:35Z</time>
      </trkpt>
      <trkpt lat="44.9863" lon="6.77104">
        <ele>1809.15</ele>
        <time>2015-06-25T07:29:49Z</time>
      </trkpt>
      <trkpt lat="44.98632" lon="6.77088">
        <ele>1811.66</ele>
        <time>2015-06-25T07:30:02Z</time>
      </trkpt>
      <trkpt lat="44.98631" lon="6.77067">
        <ele>1814.78</ele>
        <time>2015-06-25T07:30:17Z</time>
      </trkpt>
      <trkpt lat="44.98631" lon="6.77062">
        <ele>1815.45</ele>
        <time>2015-06-25T07:30:20Z</time>
      </trkpt>
      <trkpt lat="44.98633" lon="6.77045">
        <ele>1818.88</ele>
        <time>2015-06-25T07:30:34Z</time>
      </trkpt>
      <trkpt lat="44.98637" lon="6.77044">
        <ele>1819.52</ele>
        <time>2015-06-25T07:30:38Z</time>
      </trkpt>
      <trkpt lat="44.98639" lon="6.7705">
        <ele>1820.67</ele>
        <time>2015-06-25T07:30:45Z</time>
      </trkpt>
      <trkpt lat="44.9864" lon="6.77056">
        <ele>1821.58</ele>
        <time>2015-06-25T07:30:50Z</time>
      </trkpt>
      <trkpt lat="44.98644" lon="6.77062">
        <ele>1822.62</ele>
        <time>2015-06-25T07:30:56Z</time>
      </trkpt>
      <trkpt lat="44.98655" lon="6.77076">
        <ele>1824.86</ele>
        <time>2015-06-25T07:31:11Z</time>
      </trkpt>
      <trkpt lat="44.98659" lon="6.77082">
        <ele>1825.98</ele>
        <time>2015-06-25T07:31:17Z</time>
      </trkpt>
      <trkpt lat="44.98667" lon="6.77091">
        <ele>1827.35</ele>
        <time>2015-06-25T07:31:26Z</time>
      </trkpt>
      <trkpt lat="44.9868" lon="6.771">
        <ele>1829.91</ele>
        <time>2015-06-25T07:31:40Z</time>
      </trkpt>
      <trkpt lat="44.98694" lon="6.77112">
        <ele>1832.89</ele>
        <time>2015-06-25T07:31:57Z</time>
      </trkpt>
      <trkpt lat="44.987" lon="6.77116">
        <ele>1834.26</ele>
        <time>2015-06-25T07:32:05Z</time>
      </trkpt>
      <trkpt lat="44.9871" lon="6.7712">
        <ele>1836.17</ele>
        <time>2015-06-25T07:32:15Z</time>
      </trkpt>
      <trkpt lat="44.98726" lon="6.77132">
        <ele>1839.48</ele>
        <time>2015-06-25T07:32:34Z</time>
      </trkpt>
      <trkpt lat="44.98733" lon="6.77126">
        <ele>1842.47</ele>
        <time>2015-06-25T07:32:50Z</time>
      </trkpt>
      <trkpt lat="44.98726" lon="6.77118">
        <ele>1843.81</ele>
        <time>2015-06-25T07:33:00Z</time>
      </trkpt>
      <trkpt lat="44.98718" lon="6.77096">
        <ele>1846.75</ele>
        <time>2015-06-25T07:33:18Z</time>
      </trkpt>
      <trkpt lat="44.98714" lon="6.77076">
        <ele>1848.69</ele>
        <time>2015-06-25T07:33:31Z</time>
      </trkpt>
      <trkpt lat="44.98716" lon="6.77052">
        <ele>1850.68</ele>
        <time>2015-06-25T07:33:45Z</time>
      </trkpt>
      <trkpt lat="44.98716" lon="6.77051">
        <ele>1850.82</ele>
        <time>2015-06-25T07:33:46Z</time>
      </trkpt>
      <trkpt lat="44.98716" lon="6.77027">
        <ele>1853.29</ele>
        <time>2015-06-25T07:34:02Z</time>
      </trkpt>
      <trkpt lat="44.98716" lon="6.77024">
        <ele>1853.52</ele>
        <time>2015-06-25T07:34:04Z</time>
      </trkpt>
      <trkpt lat="44.98713" lon="6.77019">
        <ele>1854.3</ele>
        <time>2015-06-25T07:34:08Z</time>
      </trkpt>
      <trkpt lat="44.98711" lon="6.77018">
        <ele>1854.69</ele>
        <time>2015-06-25T07:34:10Z</time>
      </trkpt>
      <trkpt lat="44.98704" lon="6.77009">
        <ele>1855.78</ele>
        <time>2015-06-25T07:34:19Z</time>
      </trkpt>
      <trkpt lat="44.98692" lon="6.76993">
        <ele>1857.94</ele>
        <time>2015-06-25T07:34:35Z</time>
      </trkpt>
      <trkpt lat="44.98688" lon="6.76969">
        <ele>1860.22</ele>
        <time>2015-06-25T07:34:51Z</time>
      </trkpt>
      <trkpt lat="44.98688" lon="6.76948">
        <ele>1863.05</ele>
        <time>2015-06-25T07:35:07Z</time>
      </trkpt>
      <trkpt lat="44.98692" lon="6.76941">
        <ele>1863.82</ele>
        <time>2015-06-25T07:35:13Z</time>
      </trkpt>
      <trkpt lat="44.98699" lon="6.76923">
        <ele>1866.2</ele>
        <time>2015-06-25T07:35:28Z</time>
      </trkpt>
      <trkpt lat="44.98699" lon="6.76917">
        <ele>1867.11</ele>
        <time>2015-06-25T07:35:33Z</time>
      </trkpt>
      <trkpt lat="44.98696" lon="6.76912">
        <ele>1867.66</ele>
        <time>2015-06-25T07:35:37Z</time>
      </trkpt>
      <trkpt lat="44.98681" lon="6.76909">
        <ele>1869.04</ele>
        <time>2015-06-25T07:35:51Z</time>
      </trkpt>
      <trkpt lat="44.9867" lon="6.76909">
        <ele>1870.04</ele>
        <time>2015-06-25T07:36:01Z</time>
      </trkpt>
      <trkpt lat="44.98653" lon="6.7691">
        <ele>1872.69</ele>
        <time>2015-06-25T07:36:16Z</time>
      </trkpt>
      <trkpt lat="44.98648" lon="6.76906">
        <ele>1873.64</ele>
        <time>2015-06-25T07:36:22Z</time>
      </trkpt>
      <trkpt lat="44.98647" lon="6.76904">
        <ele>1873.9</ele>
        <time>2015-06-25T07:36:24Z</time>
      </trkpt>
      <trkpt lat="44.98642" lon="6.76897">
        <ele>1874.53</ele>
        <time>2015-06-25T07:36:30Z</time>
      </trkpt>
      <trkpt lat="44.98629" lon="6.76884">
        <ele>1876.23</ele>
        <time>2015-06-25T07:36:45Z</time>
      </trkpt>
      <trkpt lat="44.98625" lon="6.76877">
        <ele>1877.06</ele>
        <time>2015-06-25T07:36:51Z</time>
      </trkpt>
      <trkpt lat="44.98614" lon="6.76863">
        <ele>1879.08</ele>
        <time>2015-06-25T07:37:07Z</time>
      </trkpt>
      <trkpt lat="44.98613" lon="6.76862">
        <ele>1879.18</ele>
        <time>2015-06-25T07:37:08Z</time>
      </trkpt>
      <trkpt lat="44.98599" lon="6.76848">
        <ele>1881.61</ele>
        <time>2015-06-25T07:37:25Z</time>
      </trkpt>
      <trkpt lat="44.98582" lon="6.76832">
        <ele>1884.24</ele>
        <time>2015-06-25T07:37:42Z</time>
      </trkpt>
      <trkpt lat="44.9858" lon="6.7683">
        <ele>1884.47</ele>
        <time>2015-06-25T07:37:44Z</time>
      </trkpt>
      <trkpt lat="44.98576" lon="6.76823">
        <ele>1885.14</ele>
        <time>2015-06-25T07:37:50Z</time>
      </trkpt>
      <trkpt lat="44.98571" lon="6.76815">
        <ele>1885.82</ele>
        <time>2015-06-25T07:37:56Z</time>
      </trkpt>
      <trkpt lat="44.98563" lon="6.76805">
        <ele>1886.89</ele>
        <time>2015-06-25T07:38:04Z</time>
      </trkpt>
      <trkpt lat="44.98562" lon="6.76802">
        <ele>1887.17</ele>
        <time>2015-06-25T07:38:06Z</time>
      </trkpt>
      <trkpt lat="44.98546" lon="6.76784">
        <ele>1889.04</ele>
        <time>2015-06-25T07:38:22Z</time>
      </trkpt>
      <trkpt lat="44.98543" lon="6.76775">
        <ele>1890.6</ele>
        <time>2015-06-25T07:38:37Z</time>
      </trkpt>
      <trkpt lat="44.98541" lon="6.76773">
        <ele>1890.94</ele>
        <time>2015-06-25T07:39:36Z</time>
      </trkpt>
      <trkpt lat="44.98542" lon="6.76769">
        <ele>1891.07</ele>
        <time>2015-06-25T07:40:35Z</time>
      </trkpt>
      <trkpt lat="44.9854" lon="6.76771">
        <ele>1890.8</ele>
        <time>2015-06-25T07:41:52Z</time>
      </trkpt>
      <trkpt lat="44.98541" lon="6.76769">
        <ele>1891.17</ele>
        <time>2015-06-25T07:43:05Z</time>
      </trkpt>
      <trkpt lat="44.9854" lon="6.76771">
        <ele>1891.07</ele>
        <time>2015-06-25T07:44:04Z</time>
      </trkpt>
      <trkpt lat="44.98541" lon="6.76777">
        <ele>1890.93</ele>
        <time>2015-06-25T07:44:37Z</time>
      </trkpt>
      <trkpt lat="44.98539" lon="6.76781">
        <ele>1890.98</ele>
        <time>2015-06-25T07:45:07Z</time>
      </trkpt>
      <trkpt lat="44.98526" lon="6.76768">
        <ele>1892.12</ele>
        <time>2015-06-25T07:45:24Z</time>
      </trkpt>
      <trkpt lat="44.98522" lon="6.76766">
        <ele>1892.56</ele>
        <time>2015-06-25T07:45:28Z</time>
      </trkpt>
      <trkpt lat="44.98505" lon="6.76755">
        <ele>1894.09</ele>
        <time>2015-06-25T07:45:44Z</time>
      </trkpt>
      <trkpt lat="44.9849" lon="6.76746">
        <ele>1895.75</ele>
        <time>2015-06-25T07:45:58Z</time>
      </trkpt>
      <trkpt lat="44.98483" lon="6.76741">
        <ele>1896.77</ele>
        <time>2015-06-25T07:46:06Z</time>
      </trkpt>
      <trkpt lat="44.98479" lon="6.76716">
        <ele>1898.09</ele>
        <time>2015-06-25T07:46:21Z</time>
      </trkpt>
      <trkpt lat="44.9848" lon="6.76691">
        <ele>1898.79</ele>
        <time>2015-06-25T07:46:33Z</time>
      </trkpt>
      <trkpt lat="44.9848" lon="6.76683">
        <ele>1898.84</ele>
        <time>2015-06-25T07:46:36Z</time>
      </trkpt>
      <trkpt lat="44.98483" lon="6.76663">
        <ele>1898.8</ele>
        <time>2015-06-25T07:46:43Z</time>
      </trkpt>
      <trkpt lat="44.98485" lon="6.76653">
        <ele>1898.94</ele>
        <time>2015-06-25T07:46:47Z</time>
      </trkpt>
      <trkpt lat="44.98488" lon="6.76638">
        <ele>1899.59</ele>
        <time>2015-06-25T07:46:54Z</time>
      </trkpt>
      <trkpt lat="44.98489" lon="6.7661">
        <ele>1901.17</ele>
        <time>2015-06-25T07:47:07Z</time>
      </trkpt>
      <trkpt lat="44.98488" lon="6.76599">
        <ele>1902.11</ele>
        <time>2015-06-25T07:47:13Z</time>
      </trkpt>
      <trkpt lat="44.98487" lon="6.76595">
        <ele>1902.41</ele>
        <time>2015-06-25T07:47:15Z</time>
      </trkpt>
      <trkpt lat="44.98484" lon="6.76572">
        <ele>1904.48</ele>
        <time>2015-06-25T07:47:29Z</time>
      </trkpt>
      <trkpt lat="44.98482" lon="6.76566">
        <ele>1904.87</ele>
        <time>2015-06-25T07:47:32Z</time>
      </trkpt>
      <trkpt lat="44.98478" lon="6.76557">
        <ele>1906.08</ele>
        <time>2015-06-25T07:47:39Z</time>
      </trkpt>
      <trkpt lat="44.98472" lon="6.76545">
        <ele>1907.27</ele>
        <time>2015-06-25T07:47:47Z</time>
      </trkpt>
      <trkpt lat="44.98469" lon="6.76534">
        <ele>1908.69</ele>
        <time>2015-06-25T07:47:54Z</time>
      </trkpt>
      <trkpt lat="44.98462" lon="6.7652">
        <ele>1911.26</ele>
        <time>2015-06-25T07:48:05Z</time>
      </trkpt>
      <trkpt lat="44.98452" lon="6.76507">
        <ele>1914.48</ele>
        <time>2015-06-25T07:48:19Z</time>
      </trkpt>
      <trkpt lat="44.98441" lon="6.76487">
        <ele>1917.56</ele>
        <time>2015-06-25T07:48:37Z</time>
      </trkpt>
      <trkpt lat="44.98429" lon="6.76478">
        <ele>1919.25</ele>
        <time>2015-06-25T07:48:50Z</time>
      </trkpt>
      <trkpt lat="44.98416" lon="6.76468">
        <ele>1922.43</ele>
        <time>2015-06-25T07:49:04Z</time>
      </trkpt>
      <trkpt lat="44.98415" lon="6.76466">
        <ele>1922.65</ele>
        <time>2015-06-25T07:49:05Z</time>
      </trkpt>
      <trkpt lat="44.98411" lon="6.76443">
        <ele>1925.92</ele>
        <time>2015-06-25T07:49:23Z</time>
      </trkpt>
      <trkpt lat="44.98414" lon="6.76423">
        <ele>1928.41</ele>
        <time>2015-06-25T07:49:39Z</time>
      </trkpt>
      <trkpt lat="44.98414" lon="6.7642">
        <ele>1928.96</ele>
        <time>2015-06-25T07:49:41Z</time>
      </trkpt>
      <trkpt lat="44.98409" lon="6.76398">
        <ele>1931.68</ele>
        <time>2015-06-25T07:49:59Z</time>
      </trkpt>
      <trkpt lat="44.98406" lon="6.76387">
        <ele>1933.16</ele>
        <time>2015-06-25T07:50:07Z</time>
      </trkpt>
      <trkpt lat="44.984" lon="6.76363">
        <ele>1935.8</ele>
        <time>2015-06-25T07:50:24Z</time>
      </trkpt>
      <trkpt lat="44.98392" lon="6.76345">
        <ele>1938.16</ele>
        <time>2015-06-25T07:50:37Z</time>
      </trkpt>
      <trkpt lat="44.98389" lon="6.76342">
        <ele>1938.31</ele>
        <time>2015-06-25T07:50:39Z</time>
      </trkpt>
      <trkpt lat="44.98362" lon="6.76319">
        <ele>1939.52</ele>
        <time>2015-06-25T07:50:57Z</time>
      </trkpt>
      <trkpt lat="44.98369" lon="6.76282">
        <ele>1939.32</ele>
        <time>2015-06-25T07:51:09Z</time>
      </trkpt>
      <trkpt lat="44.98381" lon="6.7624">
        <ele>1938.75</ele>
        <time>2015-06-25T07:51:20Z</time>
      </trkpt>
      <trkpt lat="44.98392" lon="6.76212">
        <ele>1939.15</ele>
        <time>2015-06-25T07:51:32Z</time>
      </trkpt>
      <trkpt lat="44.98396" lon="6.76201">
        <ele>1939.63</ele>
        <time>2015-06-25T07:51:39Z</time>
      </trkpt>
      <trkpt lat="44.9839" lon="6.76191">
        <ele>1939.74</ele>
        <time>2015-06-25T07:51:44Z</time>
      </trkpt>
      <trkpt lat="44.98369" lon="6.76181">
        <ele>1938.98</ele>
        <time>2015-06-25T07:51:56Z</time>
      </trkpt>
      <trkpt lat="44.98344" lon="6.76181">
        <ele>1938.61</ele>
        <time>2015-06-25T07:52:10Z</time>
      </trkpt>
      <trkpt lat="44.98323" lon="6.76187">
        <ele>1939.02</ele>
        <time>2015-06-25T07:52:23Z</time>
      </trkpt>
      <trkpt lat="44.98302" lon="6.76199">
        <ele>1939.95</ele>
        <time>2015-06-25T07:52:38Z</time>
      </trkpt>
      <trkpt lat="44.98285" lon="6.76207">
        <ele>1941.96</ele>
        <time>2015-06-25T07:52:51Z</time>
      </trkpt>
      <trkpt lat="44.98267" lon="6.76214">
        <ele>1944.28</ele>
        <time>2015-06-25T07:53:05Z</time>
      </trkpt>
      <trkpt lat="44.98254" lon="6.7623">
        <ele>1945.93</ele>
        <time>2015-06-25T07:53:17Z</time>
      </trkpt>
      <trkpt lat="44.98248" lon="6.76239">
        <ele>1946.41</ele>
        <time>2015-06-25T07:53:23Z</time>
      </trkpt>
      <trkpt lat="44.98244" lon="6.76247">
        <ele>1947.45</ele>
        <time>2015-06-25T07:53:29Z</time>
      </trkpt>
      <trkpt lat="44.98238" lon="6.76259">
        <ele>1948.91</ele>
        <time>2015-06-25T07:53:39Z</time>
      </trkpt>
      <trkpt lat="44.98227" lon="6.76275">
        <ele>1951.02</ele>
        <time>2015-06-25T07:53:53Z</time>
      </trkpt>
      <trkpt lat="44.98221" lon="6.76295">
        <ele>1953.1</ele>
        <time>2015-06-25T07:54:06Z</time>
      </trkpt>
      <trkpt lat="44.98219" lon="6.76308">
        <ele>1954.44</ele>
        <time>2015-06-25T07:54:14Z</time>
      </trkpt>
      <trkpt lat="44.98202" lon="6.76316">
        <ele>1957.24</ele>
        <time>2015-06-25T07:54:30Z</time>
      </trkpt>
      <trkpt lat="44.98187" lon="6.76318">
        <ele>1960.03</ele>
        <time>2015-06-25T07:54:45Z</time>
      </trkpt>
      <trkpt lat="44.98177" lon="6.76322">
        <ele>1961.51</ele>
        <time>2015-06-25T07:54:55Z</time>
      </trkpt>
      <trkpt lat="44.98171" lon="6.7632">
        <ele>1962.68</ele>
        <time>2015-06-25T07:55:00Z</time>
      </trkpt>
      <trkpt lat="44.98156" lon="6.76308">
        <ele>1964.71</ele>
        <time>2015-06-25T07:55:15Z</time>
      </trkpt>
      <trkpt lat="44.98147" lon="6.763">
        <ele>1965.68</ele>
        <time>2015-06-25T07:55:24Z</time>
      </trkpt>
      <trkpt lat="44.98142" lon="6.76299">
        <ele>1966.14</ele>
        <time>2015-06-25T07:55:28Z</time>
      </trkpt>
      <trkpt lat="44.98139" lon="6.76294">
        <ele>1966.66</ele>
        <time>2015-06-25T07:55:32Z</time>
      </trkpt>
      <trkpt lat="44.98136" lon="6.76281">
        <ele>1968.02</ele>
        <time>2015-06-25T07:55:41Z</time>
      </trkpt>
      <trkpt lat="44.98131" lon="6.7627">
        <ele>1969.5</ele>
        <time>2015-06-25T07:55:49Z</time>
      </trkpt>
      <trkpt lat="44.98127" lon="6.76263">
        <ele>1970.39</ele>
        <time>2015-06-25T07:55:55Z</time>
      </trkpt>
      <trkpt lat="44.98117" lon="6.76261">
        <ele>1971.7</ele>
        <time>2015-06-25T07:56:02Z</time>
      </trkpt>
      <trkpt lat="44.98111" lon="6.76264">
        <ele>1972.79</ele>
        <time>2015-06-25T07:56:08Z</time>
      </trkpt>
      <trkpt lat="44.98109" lon="6.76264">
        <ele>1973.4</ele>
        <time>2015-06-25T07:56:11Z</time>
      </trkpt>
      <trkpt lat="44.98092" lon="6.76267">
        <ele>1975.46</ele>
        <time>2015-06-25T07:56:27Z</time>
      </trkpt>
      <trkpt lat="44.98085" lon="6.76268">
        <ele>1977.09</ele>
        <time>2015-06-25T07:56:42Z</time>
      </trkpt>
      <trkpt lat="44.98081" lon="6.76268">
        <ele>1977.34</ele>
        <time>2015-06-25T07:56:46Z</time>
      </trkpt>
      <trkpt lat="44.98065" lon="6.76267">
        <ele>1979.86</ele>
        <time>2015-06-25T07:57:03Z</time>
      </trkpt>
      <trkpt lat="44.98059" lon="6.76267">
        <ele>1980.69</ele>
        <time>2015-06-25T07:57:09Z</time>
      </trkpt>
      <trkpt lat="44.98045" lon="6.7627">
        <ele>1983.56</ele>
        <time>2015-06-25T07:57:24Z</time>
      </trkpt>
      <trkpt lat="44.98031" lon="6.76262">
        <ele>1985.04</ele>
        <time>2015-06-25T07:57:39Z</time>
      </trkpt>
      <trkpt lat="44.98016" lon="6.76255">
        <ele>1987.19</ele>
        <time>2015-06-25T07:57:55Z</time>
      </trkpt>
      <trkpt lat="44.98003" lon="6.76251">
        <ele>1988.78</ele>
        <time>2015-06-25T07:58:08Z</time>
      </trkpt>
      <trkpt lat="44.97983" lon="6.76248">
        <ele>1990.75</ele>
        <time>2015-06-25T07:58:25Z</time>
      </trkpt>
      <trkpt lat="44.97966" lon="6.76246">
        <ele>1993.09</ele>
        <time>2015-06-25T07:58:39Z</time>
      </trkpt>
      <trkpt lat="44.97951" lon="6.76237">
        <ele>1995.27</ele>
        <time>2015-06-25T07:58:54Z</time>
      </trkpt>
      <trkpt lat="44.97938" lon="6.76227">
        <ele>1997.76</ele>
        <time>2015-06-25T07:59:10Z</time>
      </trkpt>
      <trkpt lat="44.97935" lon="6.76225">
        <ele>1998.34</ele>
        <time>2015-06-25T07:59:13Z</time>
      </trkpt>
      <trkpt lat="44.97933" lon="6.76222">
        <ele>1998.69</ele>
        <time>2015-06-25T07:59:15Z</time>
      </trkpt>
      <trkpt lat="44.97919" lon="6.76215">
        <ele>2001.1</ele>
        <time>2015-06-25T07:59:29Z</time>
      </trkpt>
      <trkpt lat="44.97915" lon="6.76213">
        <ele>2001.66</ele>
        <time>2015-06-25T07:59:33Z</time>
      </trkpt>
      <trkpt lat="44.97903" lon="6.76201">
        <ele>2004.13</ele>
        <time>2015-06-25T07:59:48Z</time>
      </trkpt>
      <trkpt lat="44.97892" lon="6.76191">
        <ele>2006.59</ele>
        <time>2015-06-25T08:00:02Z</time>
      </trkpt>
      <trkpt lat="44.97884" lon="6.76187">
        <ele>2008.26</ele>
        <time>2015-06-25T08:00:12Z</time>
      </trkpt>
      <trkpt lat="44.97873" lon="6.76179">
        <ele>2010.68</ele>
        <time>2015-06-25T08:00:26Z</time>
      </trkpt>
      <trkpt lat="44.97859" lon="6.7617">
        <ele>2013.5</ele>
        <time>2015-06-25T08:00:44Z</time>
      </trkpt>
      <trkpt lat="44.97848" lon="6.7616">
        <ele>2015.14</ele>
        <time>2015-06-25T08:00:57Z</time>
      </trkpt>
      <trkpt lat="44.97834" lon="6.76152">
        <ele>2017.5</ele>
        <time>2015-06-25T08:01:11Z</time>
      </trkpt>
      <trkpt lat="44.97831" lon="6.76147">
        <ele>2018.93</ele>
        <time>2015-06-25T08:01:25Z</time>
      </trkpt>
      <trkpt lat="44.97816" lon="6.76132">
        <ele>2020.62</ele>
        <time>2015-06-25T08:01:41Z</time>
      </trkpt>
      <trkpt lat="44.9781" lon="6.76128">
        <ele>2021.74</ele>
        <time>2015-06-25T08:01:47Z</time>
      </trkpt>
      <trkpt lat="44.97807" lon="6.76124">
        <ele>2022.44</ele>
        <time>2015-06-25T08:01:52Z</time>
      </trkpt>
      <trkpt lat="44.97803" lon="6.76114">
        <ele>2023.92</ele>
        <time>2015-06-25T08:02:08Z</time>
      </trkpt>
      <trkpt lat="44.97803" lon="6.7611">
        <ele>2023.82</ele>
        <time>2015-06-25T08:02:43Z</time>
      </trkpt>
      <trkpt lat="44.97803" lon="6.76108">
        <ele>2024.04</ele>
        <time>2015-06-25T08:02:47Z</time>
      </trkpt>
      <trkpt lat="44.97816" lon="6.76091">
        <ele>2025.37</ele>
        <time>2015-06-25T08:03:02Z</time>
      </trkpt>
      <trkpt lat="44.97823" lon="6.76093">
        <ele>2025.87</ele>
        <time>2015-06-25T08:03:07Z</time>
      </trkpt>
      <trkpt lat="44.97839" lon="6.76112">
        <ele>2027.82</ele>
        <time>2015-06-25T08:03:24Z</time>
      </trkpt>
      <trkpt lat="44.97856" lon="6.76123">
        <ele>2030.03</ele>
        <time>2015-06-25T08:03:41Z</time>
      </trkpt>
      <trkpt lat="44.9786" lon="6.76114">
        <ele>2031.18</ele>
        <time>2015-06-25T08:03:49Z</time>
      </trkpt>
      <trkpt lat="44.97858" lon="6.76108">
        <ele>2031.75</ele>
        <time>2015-06-25T08:03:54Z</time>
      </trkpt>
      <trkpt lat="44.97848" lon="6.7609">
        <ele>2034.67</ele>
        <time>2015-06-25T08:04:09Z</time>
      </trkpt>
      <trkpt lat="44.97843" lon="6.7608">
        <ele>2036.33</ele>
        <time>2015-06-25T08:04:23Z</time>
      </trkpt>
      <trkpt lat="44.97834" lon="6.76068">
        <ele>2038.86</ele>
        <time>2015-06-25T08:04:41Z</time>
      </trkpt>
      <trkpt lat="44.97824" lon="6.76053">
        <ele>2041.26</ele>
        <time>2015-06-25T08:04:59Z</time>
      </trkpt>
      <trkpt lat="44.97813" lon="6.76046">
        <ele>2043.03</ele>
        <time>2015-06-25T08:05:16Z</time>
      </trkpt>
      <trkpt lat="44.97802" lon="6.76031">
        <ele>2045.92</ele>
        <time>2015-06-25T08:05:37Z</time>
      </trkpt>
      <trkpt lat="44.97804" lon="6.76011">
        <ele>2048.32</ele>
        <time>2015-06-25T08:05:56Z</time>
      </trkpt>
      <trkpt lat="44.9781" lon="6.75994">
        <ele>2050.55</ele>
        <time>2015-06-25T08:06:14Z</time>
      </trkpt>
      <trkpt lat="44.97813" lon="6.75977">
        <ele>2053.27</ele>
        <time>2015-06-25T08:06:33Z</time>
      </trkpt>
      <trkpt lat="44.97811" lon="6.75972">
        <ele>2054.59</ele>
        <time>2015-06-25T08:06:56Z</time>
      </trkpt>
      <trkpt lat="44.97804" lon="6.75955">
        <ele>2055.81</ele>
        <time>2015-06-25T08:07:15Z</time>
      </trkpt>
      <trkpt lat="44.97795" lon="6.75935">
        <ele>2059</ele>
        <time>2015-06-25T08:07:35Z</time>
      </trkpt>
      <trkpt lat="44.97787" lon="6.75907">
        <ele>2061.35</ele>
        <time>2015-06-25T08:07:58Z</time>
      </trkpt>
      <trkpt lat="44.97777" lon="6.75886">
        <ele>2064.08</ele>
        <time>2015-06-25T08:08:18Z</time>
      </trkpt>
      <trkpt lat="44.9777" lon="6.75872">
        <ele>2065.87</ele>
        <time>2015-06-25T08:08:34Z</time>
      </trkpt>
      <trkpt lat="44.97762" lon="6.75854">
        <ele>2067.83</ele>
        <time>2015-06-25T08:08:54Z</time>
      </trkpt>
      <trkpt lat="44.97762" lon="6.75848">
        <ele>2068.03</ele>
        <time>2015-06-25T08:09:06Z</time>
      </trkpt>
      <trkpt lat="44.97762" lon="6.75846">
        <ele>2067.69</ele>
        <time>2015-06-25T08:10:03Z</time>
      </trkpt>
      <trkpt lat="44.97762" lon="6.75846">
        <ele>2067.79</ele>
        <time>2015-06-25T08:10:40Z</time>
      </trkpt>
      <trkpt lat="44.97762" lon="6.75844">
        <ele>2067.69</ele>
        <time>2015-06-25T08:11:36Z</time>
      </trkpt>
      <trkpt lat="44.9776" lon="6.75846">
        <ele>2067.98</ele>
        <time>2015-06-25T08:11:59Z</time>
      </trkpt>
      <trkpt lat="44.97759" lon="6.75846">
        <ele>2068.23</ele>
        <time>2015-06-25T08:12:36Z</time>
      </trkpt>
      <trkpt lat="44.97762" lon="6.75849">
        <ele>2068.14</ele>
        <time>2015-06-25T08:13:12Z</time>
      </trkpt>
      <trkpt lat="44.97762" lon="6.75851">
        <ele>2067.89</ele>
        <time>2015-06-25T08:13:43Z</time>
      </trkpt>
      <trkpt lat="44.97756" lon="6.75843">
        <ele>2067.97</ele>
        <time>2015-06-25T08:14:15Z</time>
      </trkpt>
      <trkpt lat="44.97748" lon="6.75833">
        <ele>2068.89</ele>
        <time>2015-06-25T08:14:29Z</time>
      </trkpt>
      <trkpt lat="44.97743" lon="6.75836">
        <ele>2069.09</ele>
        <time>2015-06-25T08:14:36Z</time>
      </trkpt>
      <trkpt lat="44.97734" lon="6.75845">
        <ele>2070.25</ele>
        <time>2015-06-25T08:14:51Z</time>
      </trkpt>
      <trkpt lat="44.97726" lon="6.75854">
        <ele>2071.74</ele>
        <time>2015-06-25T08:15:05Z</time>
      </trkpt>
      <trkpt lat="44.9772" lon="6.75864">
        <ele>2073.17</ele>
        <time>2015-06-25T08:15:19Z</time>
      </trkpt>
      <trkpt lat="44.97712" lon="6.75882">
        <ele>2074.4</ele>
        <time>2015-06-25T08:15:36Z</time>
      </trkpt>
      <trkpt lat="44.97707" lon="6.75893">
        <ele>2075.33</ele>
        <time>2015-06-25T08:15:50Z</time>
      </trkpt>
      <trkpt lat="44.97694" lon="6.75904">
        <ele>2076.62</ele>
        <time>2015-06-25T08:16:05Z</time>
      </trkpt>
      <trkpt lat="44.9769" lon="6.75906">
        <ele>2077.14</ele>
        <time>2015-06-25T08:16:10Z</time>
      </trkpt>
      <trkpt lat="44.97672" lon="6.75915">
        <ele>2079.02</ele>
        <time>2015-06-25T08:16:28Z</time>
      </trkpt>
      <trkpt lat="44.97655" lon="6.75917">
        <ele>2081.11</ele>
        <time>2015-06-25T08:16:44Z</time>
      </trkpt>
      <trkpt lat="44.97642" lon="6.75917">
        <ele>2081.97</ele>
        <time>2015-06-25T08:16:56Z</time>
      </trkpt>
      <trkpt lat="44.9764" lon="6.75917">
        <ele>2082.14</ele>
        <time>2015-06-25T08:16:58Z</time>
      </trkpt>
      <trkpt lat="44.97635" lon="6.75916">
        <ele>2082.59</ele>
        <time>2015-06-25T08:17:02Z</time>
      </trkpt>
      <trkpt lat="44.97628" lon="6.75914">
        <ele>2083.44</ele>
        <time>2015-06-25T08:17:09Z</time>
      </trkpt>
      <trkpt lat="44.9762" lon="6.75912">
        <ele>2083.91</ele>
        <time>2015-06-25T08:17:16Z</time>
      </trkpt>
      <trkpt lat="44.97602" lon="6.7591">
        <ele>2085.87</ele>
        <time>2015-06-25T08:17:32Z</time>
      </trkpt>
      <trkpt lat="44.9759" lon="6.75914">
        <ele>2087.23</ele>
        <time>2015-06-25T08:17:44Z</time>
      </trkpt>
      <trkpt lat="44.97577" lon="6.75903">
        <ele>2089.36</ele>
        <time>2015-06-25T08:17:59Z</time>
      </trkpt>
      <trkpt lat="44.97568" lon="6.759">
        <ele>2091.22</ele>
        <time>2015-06-25T08:18:16Z</time>
      </trkpt>
      <trkpt lat="44.97567" lon="6.759">
        <ele>2091.26</ele>
        <time>2015-06-25T08:18:17Z</time>
      </trkpt>
      <trkpt lat="44.97561" lon="6.7591">
        <ele>2091.92</ele>
        <time>2015-06-25T08:18:30Z</time>
      </trkpt>
      <trkpt lat="44.97559" lon="6.75916">
        <ele>2091.75</ele>
        <time>2015-06-25T08:18:35Z</time>
      </trkpt>
      <trkpt lat="44.97553" lon="6.75925">
        <ele>2092.45</ele>
        <time>2015-06-25T08:18:53Z</time>
      </trkpt>
      <trkpt lat="44.97553" lon="6.75925">
        <ele>2092.16</ele>
        <time>2015-06-25T08:19:21Z</time>
      </trkpt>
      <trkpt lat="44.97552" lon="6.75921">
        <ele>2092.24</ele>
        <time>2015-06-25T08:19:49Z</time>
      </trkpt>
      <trkpt lat="44.97554" lon="6.75922">
        <ele>2092.15</ele>
        <time>2015-06-25T08:20:27Z</time>
      </trkpt>
      <trkpt lat="44.97555" lon="6.75924">
        <ele>2092.05</ele>
        <time>2015-06-25T08:20:57Z</time>
      </trkpt>
      <trkpt lat="44.97553" lon="6.75922">
        <ele>2092.43</ele>
        <time>2015-06-25T08:21:29Z</time>
      </trkpt>
      <trkpt lat="44.97553" lon="6.75933">
        <ele>2092.56</ele>
        <time>2015-06-25T08:21:47Z</time>
      </trkpt>
      <trkpt lat="44.97549" lon="6.75948">
        <ele>2093.86</ele>
        <time>2015-06-25T08:22:03Z</time>
      </trkpt>
      <trkpt lat="44.9754" lon="6.75944">
        <ele>2095.37</ele>
        <time>2015-06-25T08:22:19Z</time>
      </trkpt>
      <trkpt lat="44.9753" lon="6.75942">
        <ele>2095.98</ele>
        <time>2015-06-25T08:22:37Z</time>
      </trkpt>
      <trkpt lat="44.97527" lon="6.75941">
        <ele>2095.87</ele>
        <time>2015-06-25T08:22:53Z</time>
      </trkpt>
      <trkpt lat="44.97523" lon="6.75946">
        <ele>2096.12</ele>
        <time>2015-06-25T08:23:06Z</time>
      </trkpt>
      <trkpt lat="44.97518" lon="6.75956">
        <ele>2098.01</ele>
        <time>2015-06-25T08:23:24Z</time>
      </trkpt>
      <trkpt lat="44.97519" lon="6.75957">
        <ele>2098.23</ele>
        <time>2015-06-25T08:23:51Z</time>
      </trkpt>
      <trkpt lat="44.97519" lon="6.75961">
        <ele>2098.32</ele>
        <time>2015-06-25T08:24:00Z</time>
      </trkpt>
      <trkpt lat="44.97516" lon="6.75988">
        <ele>2099.15</ele>
        <time>2015-06-25T08:24:18Z</time>
      </trkpt>
      <trkpt lat="44.97517" lon="6.76002">
        <ele>2100.37</ele>
        <time>2015-06-25T08:24:30Z</time>
      </trkpt>
      <trkpt lat="44.97519" lon="6.76023">
        <ele>2102.13</ele>
        <time>2015-06-25T08:24:47Z</time>
      </trkpt>
      <trkpt lat="44.97519" lon="6.76038">
        <ele>2103.06</ele>
        <time>2015-06-25T08:25:02Z</time>
      </trkpt>
      <trkpt lat="44.97521" lon="6.76049">
        <ele>2103.78</ele>
        <time>2015-06-25T08:25:16Z</time>
      </trkpt>
      <trkpt lat="44.97519" lon="6.76054">
        <ele>2104.02</ele>
        <time>2015-06-25T08:25:20Z</time>
      </trkpt>
      <trkpt lat="44.97512" lon="6.76079">
        <ele>2105.34</ele>
        <time>2015-06-25T08:25:35Z</time>
      </trkpt>
      <trkpt lat="44.97507" lon="6.76096">
        <ele>2107.16</ele>
        <time>2015-06-25T08:25:47Z</time>
      </trkpt>
      <trkpt lat="44.97502" lon="6.76103">
        <ele>2107.84</ele>
        <time>2015-06-25T08:25:53Z</time>
      </trkpt>
      <trkpt lat="44.97491" lon="6.76116">
        <ele>2108.85</ele>
        <time>2015-06-25T08:26:05Z</time>
      </trkpt>
      <trkpt lat="44.97474" lon="6.76125">
        <ele>2110.56</ele>
        <time>2015-06-25T08:26:20Z</time>
      </trkpt>
      <trkpt lat="44.9747" lon="6.76129">
        <ele>2111.05</ele>
        <time>2015-06-25T08:26:24Z</time>
      </trkpt>
      <trkpt lat="44.97469" lon="6.76132">
        <ele>2111.27</ele>
        <time>2015-06-25T08:26:26Z</time>
      </trkpt>
      <trkpt lat="44.97466" lon="6.76138">
        <ele>2111.63</ele>
        <time>2015-06-25T08:26:30Z</time>
      </trkpt>
      <trkpt lat="44.97462" lon="6.76145">
        <ele>2112.17</ele>
        <time>2015-06-25T08:26:35Z</time>
      </trkpt>
      <trkpt lat="44.97458" lon="6.76154">
        <ele>2113.63</ele>
        <time>2015-06-25T08:26:48Z</time>
      </trkpt>
      <trkpt lat="44.97458" lon="6.76158">
        <ele>2113.84</ele>
        <time>2015-06-25T08:27:25Z</time>
      </trkpt>
      <trkpt lat="44.97456" lon="6.7616">
        <ele>2113.84</ele>
        <time>2015-06-25T08:27:58Z</time>
      </trkpt>
      <trkpt lat="44.97454" lon="6.76161">
        <ele>2113.93</ele>
        <time>2015-06-25T08:28:00Z</time>
      </trkpt>
      <trkpt lat="44.97444" lon="6.76169">
        <ele>2114.78</ele>
        <time>2015-06-25T08:28:15Z</time>
      </trkpt>
      <trkpt lat="44.97442" lon="6.76172">
        <ele>2114.96</ele>
        <time>2015-06-25T08:28:18Z</time>
      </trkpt>
      <trkpt lat="44.97441" lon="6.76191">
        <ele>2115.39</ele>
        <time>2015-06-25T08:28:33Z</time>
      </trkpt>
      <trkpt lat="44.97433" lon="6.76208">
        <ele>2116.67</ele>
        <time>2015-06-25T08:28:50Z</time>
      </trkpt>
      <trkpt lat="44.97431" lon="6.76213">
        <ele>2117.8</ele>
        <time>2015-06-25T08:29:10Z</time>
      </trkpt>
      <trkpt lat="44.9743" lon="6.76214">
        <ele>2117.55</ele>
        <time>2015-06-25T08:29:22Z</time>
      </trkpt>
      <trkpt lat="44.97428" lon="6.76215">
        <ele>2117.59</ele>
        <time>2015-06-25T08:29:24Z</time>
      </trkpt>
      <trkpt lat="44.97413" lon="6.76229">
        <ele>2118.84</ele>
        <time>2015-06-25T08:29:40Z</time>
      </trkpt>
      <trkpt lat="44.97407" lon="6.76242">
        <ele>2119.92</ele>
        <time>2015-06-25T08:29:54Z</time>
      </trkpt>
      <trkpt lat="44.97405" lon="6.76248">
        <ele>2120.21</ele>
        <time>2015-06-25T08:29:58Z</time>
      </trkpt>
      <trkpt lat="44.97403" lon="6.76255">
        <ele>2120.39</ele>
        <time>2015-06-25T08:30:02Z</time>
      </trkpt>
      <trkpt lat="44.97401" lon="6.76279">
        <ele>2121.86</ele>
        <time>2015-06-25T08:30:18Z</time>
      </trkpt>
      <trkpt lat="44.97399" lon="6.76289">
        <ele>2122.89</ele>
        <time>2015-06-25T08:30:25Z</time>
      </trkpt>
      <trkpt lat="44.9739" lon="6.76307">
        <ele>2124.61</ele>
        <time>2015-06-25T08:30:40Z</time>
      </trkpt>
      <trkpt lat="44.97387" lon="6.76312">
        <ele>2125.05</ele>
        <time>2015-06-25T08:30:45Z</time>
      </trkpt>
      <trkpt lat="44.97383" lon="6.76316">
        <ele>2125.55</ele>
        <time>2015-06-25T08:30:50Z</time>
      </trkpt>
      <trkpt lat="44.97378" lon="6.76323">
        <ele>2126.13</ele>
        <time>2015-06-25T08:30:56Z</time>
      </trkpt>
      <trkpt lat="44.97372" lon="6.76337">
        <ele>2126.74</ele>
        <time>2015-06-25T08:31:09Z</time>
      </trkpt>
      <trkpt lat="44.97367" lon="6.76349">
        <ele>2127.56</ele>
        <time>2015-06-25T08:31:24Z</time>
      </trkpt>
      <trkpt lat="44.97358" lon="6.76372">
        <ele>2128.75</ele>
        <time>2015-06-25T08:31:41Z</time>
      </trkpt>
      <trkpt lat="44.97349" lon="6.76389">
        <ele>2130.43</ele>
        <time>2015-06-25T08:31:57Z</time>
      </trkpt>
      <trkpt lat="44.97346" lon="6.76391">
        <ele>2131.37</ele>
        <time>2015-06-25T08:32:18Z</time>
      </trkpt>
      <trkpt lat="44.97342" lon="6.76396">
        <ele>2131.49</ele>
        <time>2015-06-25T08:32:23Z</time>
      </trkpt>
      <trkpt lat="44.97326" lon="6.76409">
        <ele>2132.9</ele>
        <time>2015-06-25T08:32:39Z</time>
      </trkpt>
      <trkpt lat="44.97311" lon="6.76428">
        <ele>2133.75</ele>
        <time>2015-06-25T08:32:53Z</time>
      </trkpt>
      <trkpt lat="44.97297" lon="6.76442">
        <ele>2135.38</ele>
        <time>2015-06-25T08:33:06Z</time>
      </trkpt>
      <trkpt lat="44.97277" lon="6.76457">
        <ele>2136.97</ele>
        <time>2015-06-25T08:33:23Z</time>
      </trkpt>
      <trkpt lat="44.97276" lon="6.76458">
        <ele>2137.06</ele>
        <time>2015-06-25T08:33:24Z</time>
      </trkpt>
      <trkpt lat="44.97264" lon="6.76471">
        <ele>2138.1</ele>
        <time>2015-06-25T08:33:36Z</time>
      </trkpt>
      <trkpt lat="44.97262" lon="6.76474">
        <ele>2138.28</ele>
        <time>2015-06-25T08:33:38Z</time>
      </trkpt>
      <trkpt lat="44.97251" lon="6.76485">
        <ele>2139.47</ele>
        <time>2015-06-25T08:33:50Z</time>
      </trkpt>
      <trkpt lat="44.97242" lon="6.76496">
        <ele>2140.75</ele>
        <time>2015-06-25T08:34:04Z</time>
      </trkpt>
      <trkpt lat="44.9724" lon="6.76499">
        <ele>2140.88</ele>
        <time>2015-06-25T08:34:21Z</time>
      </trkpt>
      <trkpt lat="44.97225" lon="6.76516">
        <ele>2142.04</ele>
        <time>2015-06-25T08:34:39Z</time>
      </trkpt>
      <trkpt lat="44.97212" lon="6.76527">
        <ele>2143.88</ele>
        <time>2015-06-25T08:34:53Z</time>
      </trkpt>
      <trkpt lat="44.97199" lon="6.76542">
        <ele>2144.9</ele>
        <time>2015-06-25T08:35:08Z</time>
      </trkpt>
      <trkpt lat="44.97197" lon="6.76544">
        <ele>2145.15</ele>
        <time>2015-06-25T08:35:10Z</time>
      </trkpt>
      <trkpt lat="44.97194" lon="6.76552">
        <ele>2145.64</ele>
        <time>2015-06-25T08:35:15Z</time>
      </trkpt>
      <trkpt lat="44.97189" lon="6.76562">
        <ele>2146.04</ele>
        <time>2015-06-25T08:35:22Z</time>
      </trkpt>
      <trkpt lat="44.97183" lon="6.76565">
        <ele>2147.22</ele>
        <time>2015-06-25T08:35:38Z</time>
      </trkpt>
      <trkpt lat="44.97183" lon="6.76567">
        <ele>2147.29</ele>
        <time>2015-06-25T08:35:46Z</time>
      </trkpt>
      <trkpt lat="44.97178" lon="6.76572">
        <ele>2147.44</ele>
        <time>2015-06-25T08:35:51Z</time>
      </trkpt>
      <trkpt lat="44.97172" lon="6.76573">
        <ele>2147.81</ele>
        <time>2015-06-25T08:35:56Z</time>
      </trkpt>
      <trkpt lat="44.97164" lon="6.76574">
        <ele>2148.55</ele>
        <time>2015-06-25T08:36:05Z</time>
      </trkpt>
      <trkpt lat="44.97156" lon="6.76572">
        <ele>2148.97</ele>
        <time>2015-06-25T08:36:13Z</time>
      </trkpt>
      <trkpt lat="44.97155" lon="6.76566">
        <ele>2149.12</ele>
        <time>2015-06-25T08:36:17Z</time>
      </trkpt>
      <trkpt lat="44.97138" lon="6.76556">
        <ele>2150.44</ele>
        <time>2015-06-25T08:36:33Z</time>
      </trkpt>
      <trkpt lat="44.97123" lon="6.76557">
        <ele>2151.92</ele>
        <time>2015-06-25T08:36:47Z</time>
      </trkpt>
      <trkpt lat="44.97121" lon="6.76558">
        <ele>2152.04</ele>
        <time>2015-06-25T08:36:49Z</time>
      </trkpt>
      <trkpt lat="44.97106" lon="6.76564">
        <ele>2153.26</ele>
        <time>2015-06-25T08:37:04Z</time>
      </trkpt>
      <trkpt lat="44.97097" lon="6.76583">
        <ele>2154.87</ele>
        <time>2015-06-25T08:37:18Z</time>
      </trkpt>
      <trkpt lat="44.97101" lon="6.76604">
        <ele>2156.28</ele>
        <time>2015-06-25T08:37:32Z</time>
      </trkpt>
      <trkpt lat="44.97102" lon="6.76606">
        <ele>2156.4</ele>
        <time>2015-06-25T08:37:34Z</time>
      </trkpt>
      <trkpt lat="44.97103" lon="6.76609">
        <ele>2156.5</ele>
        <time>2015-06-25T08:37:36Z</time>
      </trkpt>
      <trkpt lat="44.97108" lon="6.76622">
        <ele>2157.56</ele>
        <time>2015-06-25T08:37:46Z</time>
      </trkpt>
      <trkpt lat="44.97108" lon="6.76624">
        <ele>2157.71</ele>
        <time>2015-06-25T08:37:48Z</time>
      </trkpt>
      <trkpt lat="44.97108" lon="6.76649">
        <ele>2159.15</ele>
        <time>2015-06-25T08:38:05Z</time>
      </trkpt>
      <trkpt lat="44.97101" lon="6.76665">
        <ele>2160.56</ele>
        <time>2015-06-25T08:38:18Z</time>
      </trkpt>
      <trkpt lat="44.9709" lon="6.76687">
        <ele>2162.33</ele>
        <time>2015-06-25T08:38:35Z</time>
      </trkpt>
      <trkpt lat="44.97086" lon="6.76701">
        <ele>2163.16</ele>
        <time>2015-06-25T08:38:46Z</time>
      </trkpt>
      <trkpt lat="44.97086" lon="6.76705">
        <ele>2163.6</ele>
        <time>2015-06-25T08:38:49Z</time>
      </trkpt>
      <trkpt lat="44.97088" lon="6.76731">
        <ele>2165.15</ele>
        <time>2015-06-25T08:39:07Z</time>
      </trkpt>
      <trkpt lat="44.97088" lon="6.76742">
        <ele>2165.79</ele>
        <time>2015-06-25T08:39:15Z</time>
      </trkpt>
      <trkpt lat="44.97086" lon="6.76755">
        <ele>2166.6</ele>
        <time>2015-06-25T08:39:24Z</time>
      </trkpt>
      <trkpt lat="44.97082" lon="6.76776">
        <ele>2167.69</ele>
        <time>2015-06-25T08:39:38Z</time>
      </trkpt>
      <trkpt lat="44.97082" lon="6.76804">
        <ele>2169.67</ele>
        <time>2015-06-25T08:39:57Z</time>
      </trkpt>
      <trkpt lat="44.97083" lon="6.76814">
        <ele>2170.04</ele>
        <time>2015-06-25T08:40:02Z</time>
      </trkpt>
      <trkpt lat="44.97084" lon="6.76842">
        <ele>2171.7</ele>
        <time>2015-06-25T08:40:17Z</time>
      </trkpt>
      <trkpt lat="44.97088" lon="6.7687">
        <ele>2172.96</ele>
        <time>2015-06-25T08:40:33Z</time>
      </trkpt>
      <trkpt lat="44.97088" lon="6.76871">
        <ele>2173.05</ele>
        <time>2015-06-25T08:40:34Z</time>
      </trkpt>
      <trkpt lat="44.97095" lon="6.76896">
        <ele>2175.01</ele>
        <time>2015-06-25T08:40:51Z</time>
      </trkpt>
      <trkpt lat="44.97106" lon="6.76922">
        <ele>2177.21</ele>
        <time>2015-06-25T08:41:08Z</time>
      </trkpt>
      <trkpt lat="44.97109" lon="6.76938">
        <ele>2178.61</ele>
        <time>2015-06-25T08:41:24Z</time>
      </trkpt>
      <trkpt lat="44.97111" lon="6.76945">
        <ele>2178.67</ele>
        <time>2015-06-25T08:41:44Z</time>
      </trkpt>
      <trkpt lat="44.97124" lon="6.76965">
        <ele>2180.06</ele>
        <time>2015-06-25T08:42:00Z</time>
      </trkpt>
      <trkpt lat="44.97135" lon="6.76981">
        <ele>2181.73</ele>
        <time>2015-06-25T08:42:16Z</time>
      </trkpt>
      <trkpt lat="44.97137" lon="6.76982">
        <ele>2181.82</ele>
        <time>2015-06-25T08:42:53Z</time>
      </trkpt>
      <trkpt lat="44.97137" lon="6.7698">
        <ele>2181.53</ele>
        <time>2015-06-25T08:43:36Z</time>
      </trkpt>
      <trkpt lat="44.97139" lon="6.76978">
        <ele>2181.53</ele>
        <time>2015-06-25T08:44:31Z</time>
      </trkpt>
      <trkpt lat="44.97138" lon="6.7698">
        <ele>2181.56</ele>
        <time>2015-06-25T08:44:53Z</time>
      </trkpt>
      <trkpt lat="44.97138" lon="6.76982">
        <ele>2181.97</ele>
        <time>2015-06-25T08:45:34Z</time>
      </trkpt>
      <trkpt lat="44.97143" lon="6.76987">
        <ele>2182.24</ele>
        <time>2015-06-25T08:46:16Z</time>
      </trkpt>
      <trkpt lat="44.97149" lon="6.76994">
        <ele>2183.09</ele>
        <time>2015-06-25T08:46:29Z</time>
      </trkpt>
      <trkpt lat="44.97156" lon="6.77006">
        <ele>2183.77</ele>
        <time>2015-06-25T08:46:38Z</time>
      </trkpt>
      <trkpt lat="44.97169" lon="6.77027">
        <ele>2184.83</ele>
        <time>2015-06-25T08:46:53Z</time>
      </trkpt>
      <trkpt lat="44.97174" lon="6.77037">
        <ele>2185.17</ele>
        <time>2015-06-25T08:47:00Z</time>
      </trkpt>
      <trkpt lat="44.97183" lon="6.77062">
        <ele>2186.02</ele>
        <time>2015-06-25T08:47:15Z</time>
      </trkpt>
      <trkpt lat="44.97184" lon="6.77087">
        <ele>2186.2</ele>
        <time>2015-06-25T08:47:27Z</time>
      </trkpt>
      <trkpt lat="44.97183" lon="6.77092">
        <ele>2186.08</ele>
        <time>2015-06-25T08:47:31Z</time>
      </trkpt>
      <trkpt lat="44.97183" lon="6.77103">
        <ele>2185.86</ele>
        <time>2015-06-25T08:47:37Z</time>
      </trkpt>
      <trkpt lat="44.97178" lon="6.77129">
        <ele>2184.63</ele>
        <time>2015-06-25T08:47:46Z</time>
      </trkpt>
      <trkpt lat="44.97168" lon="6.77142">
        <ele>2184.73</ele>
        <time>2015-06-25T08:47:59Z</time>
      </trkpt>
      <trkpt lat="44.97166" lon="6.77142">
        <ele>2185.07</ele>
        <time>2015-06-25T08:48:14Z</time>
      </trkpt>
      <trkpt lat="44.97166" lon="6.77142">
        <ele>2184.4</ele>
        <time>2015-06-25T08:48:47Z</time>
      </trkpt>
      <trkpt lat="44.97167" lon="6.77139">
        <ele>2184.39</ele>
        <time>2015-06-25T08:49:18Z</time>
      </trkpt>
      <trkpt lat="44.97166" lon="6.77133">
        <ele>2185.62</ele>
        <time>2015-06-25T08:49:34Z</time>
      </trkpt>
      <trkpt lat="44.97157" lon="6.77126">
        <ele>2187.18</ele>
        <time>2015-06-25T08:49:48Z</time>
      </trkpt>
      <trkpt lat="44.9715" lon="6.77116">
        <ele>2189.83</ele>
        <time>2015-06-25T08:50:02Z</time>
      </trkpt>
      <trkpt lat="44.97139" lon="6.77109">
        <ele>2192.91</ele>
        <time>2015-06-25T08:50:19Z</time>
      </trkpt>
      <trkpt lat="44.97136" lon="6.77105">
        <ele>2194.62</ele>
        <time>2015-06-25T08:50:36Z</time>
      </trkpt>
      <trkpt lat="44.97131" lon="6.77094">
        <ele>2195.97</ele>
        <time>2015-06-25T08:51:02Z</time>
      </trkpt>
      <trkpt lat="44.97121" lon="6.77085">
        <ele>2198.88</ele>
        <time>2015-06-25T08:51:20Z</time>
      </trkpt>
      <trkpt lat="44.97112" lon="6.77078">
        <ele>2201.38</ele>
        <time>2015-06-25T08:51:36Z</time>
      </trkpt>
      <trkpt lat="44.97105" lon="6.77062">
        <ele>2203.89</ele>
        <time>2015-06-25T08:51:55Z</time>
      </trkpt>
      <trkpt lat="44.97097" lon="6.77049">
        <ele>2206.17</ele>
        <time>2015-06-25T08:52:13Z</time>
      </trkpt>
      <trkpt lat="44.97089" lon="6.77041">
        <ele>2209.22</ele>
        <time>2015-06-25T08:52:30Z</time>
      </trkpt>
      <trkpt lat="44.97082" lon="6.77031">
        <ele>2212.4</ele>
        <time>2015-06-25T08:52:47Z</time>
      </trkpt>
      <trkpt lat="44.97076" lon="6.77024">
        <ele>2214.34</ele>
        <time>2015-06-25T08:53:11Z</time>
      </trkpt>
      <trkpt lat="44.9707" lon="6.77016">
        <ele>2216.12</ele>
        <time>2015-06-25T08:53:23Z</time>
      </trkpt>
      <trkpt lat="44.97056" lon="6.77009">
        <ele>2218.11</ele>
        <time>2015-06-25T08:53:39Z</time>
      </trkpt>
      <trkpt lat="44.97044" lon="6.77002">
        <ele>2220.81</ele>
        <time>2015-06-25T08:53:56Z</time>
      </trkpt>
      <trkpt lat="44.97034" lon="6.76994">
        <ele>2223.62</ele>
        <time>2015-06-25T08:54:14Z</time>
      </trkpt>
      <trkpt lat="44.97026" lon="6.76986">
        <ele>2226.64</ele>
        <time>2015-06-25T08:54:32Z</time>
      </trkpt>
      <trkpt lat="44.97016" lon="6.76974">
        <ele>2228.05</ele>
        <time>2015-06-25T08:54:48Z</time>
      </trkpt>
      <trkpt lat="44.97006" lon="6.7696">
        <ele>2229.22</ele>
        <time>2015-06-25T08:55:05Z</time>
      </trkpt>
      <trkpt lat="44.97001" lon="6.76952">
        <ele>2230.81</ele>
        <time>2015-06-25T08:55:21Z</time>
      </trkpt>
      <trkpt lat="44.97002" lon="6.76952">
        <ele>2231.09</ele>
        <time>2015-06-25T08:56:15Z</time>
      </trkpt>
      <trkpt lat="44.97002" lon="6.76952">
        <ele>2231.04</ele>
        <time>2015-06-25T08:57:32Z</time>
      </trkpt>
      <trkpt lat="44.97001" lon="6.76952">
        <ele>2230.57</ele>
        <time>2015-06-25T08:58:41Z</time>
      </trkpt>
      <trkpt lat="44.97001" lon="6.76951">
        <ele>2230.86</ele>
        <time>2015-06-25T09:00:12Z</time>
      </trkpt>
      <trkpt lat="44.97" lon="6.76953">
        <ele>2230.58</ele>
        <time>2015-06-25T09:01:47Z</time>
      </trkpt>
      <trkpt lat="44.97001" lon="6.76952">
        <ele>2231.24</ele>
        <time>2015-06-25T09:02:52Z</time>
      </trkpt>
      <trkpt lat="44.97002" lon="6.76952">
        <ele>2230.79</ele>
        <time>2015-06-25T09:03:52Z</time>
      </trkpt>
      <trkpt lat="44.97002" lon="6.76952">
        <ele>2230.8</ele>
        <time>2015-06-25T09:04:55Z</time>
      </trkpt>
      <trkpt lat="44.97002" lon="6.76953">
        <ele>2230.69</ele>
        <time>2015-06-25T09:05:49Z</time>
      </trkpt>
      <trkpt lat="44.97002" lon="6.76953">
        <ele>2230.49</ele>
        <time>2015-06-25T09:06:46Z</time>
      </trkpt>
      <trkpt lat="44.97002" lon="6.76953">
        <ele>2230.8</ele>
        <time>2015-06-25T09:07:39Z</time>
      </trkpt>
      <trkpt lat="44.97001" lon="6.76954">
        <ele>2230.67</ele>
        <time>2015-06-25T09:08:41Z</time>
      </trkpt>
      <trkpt lat="44.97001" lon="6.76953">
        <ele>2230.8</ele>
        <time>2015-06-25T09:09:44Z</time>
      </trkpt>
      <trkpt lat="44.97002" lon="6.76954">
        <ele>2230.72</ele>
        <time>2015-06-25T09:10:43Z</time>
      </trkpt>
      <trkpt lat="44.97004" lon="6.76955">
        <ele>2230.31</ele>
        <time>2015-06-25T09:10:57Z</time>
      </trkpt>
      <trkpt lat="44.97017" lon="6.76977">
        <ele>2229.32</ele>
        <time>2015-06-25T09:11:10Z</time>
      </trkpt>
      <trkpt lat="44.97025" lon="6.76986">
        <ele>2227.58</ele>
        <time>2015-06-25T09:11:22Z</time>
      </trkpt>
      <trkpt lat="44.97025" lon="6.76987">
        <ele>2227.18</ele>
        <time>2015-06-25T09:12:01Z</time>
      </trkpt>
      <trkpt lat="44.97028" lon="6.76994">
        <ele>2227.19</ele>
        <time>2015-06-25T09:12:05Z</time>
      </trkpt>
      <trkpt lat="44.9705" lon="6.77008">
        <ele>2224.08</ele>
        <time>2015-06-25T09:12:17Z</time>
      </trkpt>
      <trkpt lat="44.97064" lon="6.77016">
        <ele>2220.86</ele>
        <time>2015-06-25T09:12:23Z</time>
      </trkpt>
      <trkpt lat="44.97081" lon="6.77031">
        <ele>2217.62</ele>
        <time>2015-06-25T09:12:31Z</time>
      </trkpt>
      <trkpt lat="44.97097" lon="6.77055">
        <ele>2213.97</ele>
        <time>2015-06-25T09:12:37Z</time>
      </trkpt>
      <trkpt lat="44.97102" lon="6.77073">
        <ele>2210.95</ele>
        <time>2015-06-25T09:12:41Z</time>
      </trkpt>
      <trkpt lat="44.97104" lon="6.77076">
        <ele>2210.22</ele>
        <time>2015-06-25T09:12:42Z</time>
      </trkpt>
      <trkpt lat="44.97105" lon="6.77079">
        <ele>2206.27</ele>
        <time>2015-06-25T09:12:48Z</time>
      </trkpt>
      <trkpt lat="44.97103" lon="6.77079">
        <ele>2204.06</ele>
        <time>2015-06-25T09:13:54Z</time>
      </trkpt>
      <trkpt lat="44.97104" lon="6.7708">
        <ele>2203.98</ele>
        <time>2015-06-25T09:13:57Z</time>
      </trkpt>
      <trkpt lat="44.97122" lon="6.77088">
        <ele>2203.52</ele>
        <time>2015-06-25T09:14:04Z</time>
      </trkpt>
      <trkpt lat="44.97134" lon="6.77098">
        <ele>2200.11</ele>
        <time>2015-06-25T09:14:11Z</time>
      </trkpt>
      <trkpt lat="44.97144" lon="6.77112">
        <ele>2196.75</ele>
        <time>2015-06-25T09:14:19Z</time>
      </trkpt>
      <trkpt lat="44.9715" lon="6.77118">
        <ele>2195.39</ele>
        <time>2015-06-25T09:14:22Z</time>
      </trkpt>
      <trkpt lat="44.97163" lon="6.77133">
        <ele>2191.07</ele>
        <time>2015-06-25T09:14:29Z</time>
      </trkpt>
      <trkpt lat="44.97172" lon="6.77134">
        <ele>2188.92</ele>
        <time>2015-06-25T09:14:33Z</time>
      </trkpt>
      <trkpt lat="44.97176" lon="6.77132">
        <ele>2187.8</ele>
        <time>2015-06-25T09:14:35Z</time>
      </trkpt>
      <trkpt lat="44.97178" lon="6.77138">
        <ele>2184.27</ele>
        <time>2015-06-25T09:14:46Z</time>
      </trkpt>
      <trkpt lat="44.97179" lon="6.77139">
        <ele>2183.7</ele>
        <time>2015-06-25T09:14:54Z</time>
      </trkpt>
      <trkpt lat="44.9719" lon="6.77136">
        <ele>2183.4</ele>
        <time>2015-06-25T09:15:02Z</time>
      </trkpt>
      <trkpt lat="44.97218" lon="6.77165">
        <ele>2181.67</ele>
        <time>2015-06-25T09:15:12Z</time>
      </trkpt>
      <trkpt lat="44.97233" lon="6.77173">
        <ele>2180.38</ele>
        <time>2015-06-25T09:15:22Z</time>
      </trkpt>
      <trkpt lat="44.97235" lon="6.7717">
        <ele>2180.07</ele>
        <time>2015-06-25T09:15:35Z</time>
      </trkpt>
      <trkpt lat="44.97234" lon="6.77172">
        <ele>2180.5</ele>
        <time>2015-06-25T09:16:39Z</time>
      </trkpt>
      <trkpt lat="44.97228" lon="6.77178">
        <ele>2181.24</ele>
        <time>2015-06-25T09:16:46Z</time>
      </trkpt>
      <trkpt lat="44.97232" lon="6.77183">
        <ele>2181.11</ele>
        <time>2015-06-25T09:17:00Z</time>
      </trkpt>
      <trkpt lat="44.9723" lon="6.77183">
        <ele>2180.82</ele>
        <time>2015-06-25T09:17:19Z</time>
      </trkpt>
      <trkpt lat="44.97226" lon="6.77181">
        <ele>2180.88</ele>
        <time>2015-06-25T09:17:24Z</time>
      </trkpt>
      <trkpt lat="44.97221" lon="6.77175">
        <ele>2180.98</ele>
        <time>2015-06-25T09:17:30Z</time>
      </trkpt>
      <trkpt lat="44.97218" lon="6.77173">
        <ele>2180.79</ele>
        <time>2015-06-25T09:17:32Z</time>
      </trkpt>
      <trkpt lat="44.97207" lon="6.77184">
        <ele>2179.22</ele>
        <time>2015-06-25T09:17:40Z</time>
      </trkpt>
      <trkpt lat="44.97217" lon="6.77194">
        <ele>2176.54</ele>
        <time>2015-06-25T09:17:53Z</time>
      </trkpt>
      <trkpt lat="44.97216" lon="6.7719">
        <ele>2176.11</ele>
        <time>2015-06-25T09:17:57Z</time>
      </trkpt>
      <trkpt lat="44.97214" lon="6.77169">
        <ele>2177.92</ele>
        <time>2015-06-25T09:18:12Z</time>
      </trkpt>
      <trkpt lat="44.97215" lon="6.77162">
        <ele>2179.41</ele>
        <time>2015-06-25T09:18:20Z</time>
      </trkpt>
      <trkpt lat="44.97212" lon="6.77158">
        <ele>2180.11</ele>
        <time>2015-06-25T09:18:24Z</time>
      </trkpt>
      <trkpt lat="44.97201" lon="6.77145">
        <ele>2181.39</ele>
        <time>2015-06-25T09:18:40Z</time>
      </trkpt>
      <trkpt lat="44.97196" lon="6.77138">
        <ele>2181.96</ele>
        <time>2015-06-25T09:18:47Z</time>
      </trkpt>
      <trkpt lat="44.97188" lon="6.7712">
        <ele>2183.38</ele>
        <time>2015-06-25T09:19:03Z</time>
      </trkpt>
      <trkpt lat="44.97185" lon="6.77114">
        <ele>2184.73</ele>
        <time>2015-06-25T09:19:18Z</time>
      </trkpt>
      <trkpt lat="44.97184" lon="6.77111">
        <ele>2185.03</ele>
        <time>2015-06-25T09:19:36Z</time>
      </trkpt>
      <trkpt lat="44.97184" lon="6.77106">
        <ele>2185.06</ele>
        <time>2015-06-25T09:19:39Z</time>
      </trkpt>
      <trkpt lat="44.97185" lon="6.77095">
        <ele>2185.29</ele>
        <time>2015-06-25T09:19:45Z</time>
      </trkpt>
      <trkpt lat="44.97187" lon="6.7708">
        <ele>2186.6</ele>
        <time>2015-06-25T09:20:00Z</time>
      </trkpt>
      <trkpt lat="44.97188" lon="6.77074">
        <ele>2186.75</ele>
        <time>2015-06-25T09:20:08Z</time>
      </trkpt>
      <trkpt lat="44.97176" lon="6.77034">
        <ele>2186.67</ele>
        <time>2015-06-25T09:20:22Z</time>
      </trkpt>
      <trkpt lat="44.97154" lon="6.76996">
        <ele>2185.04</ele>
        <time>2015-06-25T09:20:35Z</time>
      </trkpt>
      <trkpt lat="44.97122" lon="6.76957">
        <ele>2182.46</ele>
        <time>2015-06-25T09:20:48Z</time>
      </trkpt>
      <trkpt lat="44.97105" lon="6.76917">
        <ele>2179.97</ele>
        <time>2015-06-25T09:20:59Z</time>
      </trkpt>
      <trkpt lat="44.97092" lon="6.76884">
        <ele>2177.63</ele>
        <time>2015-06-25T09:21:09Z</time>
      </trkpt>
      <trkpt lat="44.97084" lon="6.7685">
        <ele>2174.83</ele>
        <time>2015-06-25T09:21:18Z</time>
      </trkpt>
      <trkpt lat="44.97079" lon="6.76799">
        <ele>2171.76</ele>
        <time>2015-06-25T09:21:33Z</time>
      </trkpt>
      <trkpt lat="44.97083" lon="6.76757">
        <ele>2169.26</ele>
        <time>2015-06-25T09:21:44Z</time>
      </trkpt>
      <trkpt lat="44.97085" lon="6.7671">
        <ele>2166.35</ele>
        <time>2015-06-25T09:21:57Z</time>
      </trkpt>
      <trkpt lat="44.97097" lon="6.76667">
        <ele>2163.58</ele>
        <time>2015-06-25T09:22:10Z</time>
      </trkpt>
      <trkpt lat="44.97107" lon="6.76638">
        <ele>2161.19</ele>
        <time>2015-06-25T09:22:21Z</time>
      </trkpt>
      <trkpt lat="44.97103" lon="6.766">
        <ele>2158.34</ele>
        <time>2015-06-25T09:22:35Z</time>
      </trkpt>
      <trkpt lat="44.97102" lon="6.76565">
        <ele>2155.68</ele>
        <time>2015-06-25T09:22:49Z</time>
      </trkpt>
      <trkpt lat="44.97122" lon="6.76556">
        <ele>2153.8</ele>
        <time>2015-06-25T09:22:59Z</time>
      </trkpt>
      <trkpt lat="44.97145" lon="6.76555">
        <ele>2152.36</ele>
        <time>2015-06-25T09:23:11Z</time>
      </trkpt>
      <trkpt lat="44.97169" lon="6.76568">
        <ele>2150.07</ele>
        <time>2015-06-25T09:23:24Z</time>
      </trkpt>
      <trkpt lat="44.97179" lon="6.76565">
        <ele>2148.47</ele>
        <time>2015-06-25T09:23:35Z</time>
      </trkpt>
      <trkpt lat="44.97179" lon="6.76565">
        <ele>2148.17</ele>
        <time>2015-06-25T09:24:03Z</time>
      </trkpt>
      <trkpt lat="44.97179" lon="6.76565">
        <ele>2148.02</ele>
        <time>2015-06-25T09:24:41Z</time>
      </trkpt>
      <trkpt lat="44.97177" lon="6.76564">
        <ele>2148.11</ele>
        <time>2015-06-25T09:25:05Z</time>
      </trkpt>
      <trkpt lat="44.97178" lon="6.76564">
        <ele>2148.35</ele>
        <time>2015-06-25T09:25:37Z</time>
      </trkpt>
      <trkpt lat="44.97179" lon="6.76564">
        <ele>2148.28</ele>
        <time>2015-06-25T09:26:28Z</time>
      </trkpt>
      <trkpt lat="44.97178" lon="6.76563">
        <ele>2148.03</ele>
        <time>2015-06-25T09:27:03Z</time>
      </trkpt>
      <trkpt lat="44.97179" lon="6.76561">
        <ele>2147.99</ele>
        <time>2015-06-25T09:27:24Z</time>
      </trkpt>
      <trkpt lat="44.97187" lon="6.76556">
        <ele>2147.9</ele>
        <time>2015-06-25T09:27:43Z</time>
      </trkpt>
      <trkpt lat="44.97202" lon="6.76532">
        <ele>2146.92</ele>
        <time>2015-06-25T09:27:54Z</time>
      </trkpt>
      <trkpt lat="44.97222" lon="6.7651">
        <ele>2145.01</ele>
        <time>2015-06-25T09:28:07Z</time>
      </trkpt>
      <trkpt lat="44.9724" lon="6.76493">
        <ele>2142.86</ele>
        <time>2015-06-25T09:28:19Z</time>
      </trkpt>
      <trkpt lat="44.97245" lon="6.76486">
        <ele>2141.92</ele>
        <time>2015-06-25T09:28:30Z</time>
      </trkpt>
      <trkpt lat="44.97252" lon="6.76477">
        <ele>2141.72</ele>
        <time>2015-06-25T09:28:36Z</time>
      </trkpt>
      <trkpt lat="44.97275" lon="6.76452">
        <ele>2139.83</ele>
        <time>2015-06-25T09:28:49Z</time>
      </trkpt>
      <trkpt lat="44.97306" lon="6.76428">
        <ele>2137.34</ele>
        <time>2015-06-25T09:29:03Z</time>
      </trkpt>
      <trkpt lat="44.97333" lon="6.76399">
        <ele>2134.96</ele>
        <time>2015-06-25T09:29:17Z</time>
      </trkpt>
      <trkpt lat="44.97351" lon="6.76382">
        <ele>2132.52</ele>
        <time>2015-06-25T09:29:30Z</time>
      </trkpt>
      <trkpt lat="44.97358" lon="6.76379">
        <ele>2131.68</ele>
        <time>2015-06-25T09:29:54Z</time>
      </trkpt>
      <trkpt lat="44.97359" lon="6.76382">
        <ele>2131.69</ele>
        <time>2015-06-25T09:30:20Z</time>
      </trkpt>
      <trkpt lat="44.97359" lon="6.76385">
        <ele>2131.48</ele>
        <time>2015-06-25T09:30:33Z</time>
      </trkpt>
      <trkpt lat="44.97354" lon="6.76393">
        <ele>2131.43</ele>
        <time>2015-06-25T09:30:38Z</time>
      </trkpt>
      <trkpt lat="44.97332" lon="6.76427">
        <ele>2129.3</ele>
        <time>2015-06-25T09:30:50Z</time>
      </trkpt>
      <trkpt lat="44.97318" lon="6.76458">
        <ele>2126.11</ele>
        <time>2015-06-25T09:30:59Z</time>
      </trkpt>
      <trkpt lat="44.97299" lon="6.76485">
        <ele>2122.95</ele>
        <time>2015-06-25T09:31:09Z</time>
      </trkpt>
      <trkpt lat="44.97284" lon="6.76504">
        <ele>2119.99</ele>
        <time>2015-06-25T09:31:20Z</time>
      </trkpt>
      <trkpt lat="44.97283" lon="6.76506">
        <ele>2119.64</ele>
        <time>2015-06-25T09:31:22Z</time>
      </trkpt>
      <trkpt lat="44.97276" lon="6.76538">
        <ele>2117.57</ele>
        <time>2015-06-25T09:31:34Z</time>
      </trkpt>
      <trkpt lat="44.97273" lon="6.76576">
        <ele>2115.08</ele>
        <time>2015-06-25T09:31:45Z</time>
      </trkpt>
      <trkpt lat="44.97272" lon="6.76585">
        <ele>2114.42</ele>
        <time>2015-06-25T09:31:48Z</time>
      </trkpt>
      <trkpt lat="44.97271" lon="6.766">
        <ele>2113.01</ele>
        <time>2015-06-25T09:31:53Z</time>
      </trkpt>
      <trkpt lat="44.97271" lon="6.76615">
        <ele>2111.62</ele>
        <time>2015-06-25T09:31:58Z</time>
      </trkpt>
      <trkpt lat="44.97269" lon="6.76637">
        <ele>2109.94</ele>
        <time>2015-06-25T09:32:06Z</time>
      </trkpt>
      <trkpt lat="44.97268" lon="6.76657">
        <ele>2108.43</ele>
        <time>2015-06-25T09:32:13Z</time>
      </trkpt>
      <trkpt lat="44.97264" lon="6.76672">
        <ele>2107.42</ele>
        <time>2015-06-25T09:32:18Z</time>
      </trkpt>
      <trkpt lat="44.97247" lon="6.76698">
        <ele>2104.63</ele>
        <time>2015-06-25T09:32:29Z</time>
      </trkpt>
      <trkpt lat="44.97233" lon="6.76706">
        <ele>2102.88</ele>
        <time>2015-06-25T09:32:41Z</time>
      </trkpt>
      <trkpt lat="44.97212" lon="6.76726">
        <ele>2101.55</ele>
        <time>2015-06-25T09:32:54Z</time>
      </trkpt>
      <trkpt lat="44.97201" lon="6.76751">
        <ele>2101.38</ele>
        <time>2015-06-25T09:33:04Z</time>
      </trkpt>
      <trkpt lat="44.97202" lon="6.76787">
        <ele>2101.54</ele>
        <time>2015-06-25T09:33:16Z</time>
      </trkpt>
      <trkpt lat="44.97208" lon="6.76825">
        <ele>2100.99</ele>
        <time>2015-06-25T09:33:31Z</time>
      </trkpt>
      <trkpt lat="44.97219" lon="6.76854">
        <ele>2100.87</ele>
        <time>2015-06-25T09:33:42Z</time>
      </trkpt>
      <trkpt lat="44.97242" lon="6.76882">
        <ele>2100.8</ele>
        <time>2015-06-25T09:33:54Z</time>
      </trkpt>
      <trkpt lat="44.97261" lon="6.76896">
        <ele>2100.62</ele>
        <time>2015-06-25T09:34:06Z</time>
      </trkpt>
      <trkpt lat="44.97265" lon="6.76898">
        <ele>2100.53</ele>
        <time>2015-06-25T09:34:08Z</time>
      </trkpt>
      <trkpt lat="44.9727" lon="6.76901">
        <ele>2100.38</ele>
        <time>2015-06-25T09:34:12Z</time>
      </trkpt>
      <trkpt lat="44.97272" lon="6.76903">
        <ele>2100.34</ele>
        <time>2015-06-25T09:34:33Z</time>
      </trkpt>
      <trkpt lat="44.97273" lon="6.76903">
        <ele>2100.44</ele>
        <time>2015-06-25T09:34:42Z</time>
      </trkpt>
      <trkpt lat="44.97294" lon="6.76918">
        <ele>2100.35</ele>
        <time>2015-06-25T09:34:54Z</time>
      </trkpt>
      <trkpt lat="44.97328" lon="6.76941">
        <ele>2099.9</ele>
        <time>2015-06-25T09:35:10Z</time>
      </trkpt>
      <trkpt lat="44.97342" lon="6.76952">
        <ele>2099.54</ele>
        <time>2015-06-25T09:35:21Z</time>
      </trkpt>
      <trkpt lat="44.97362" lon="6.76968">
        <ele>2099.72</ele>
        <time>2015-06-25T09:35:35Z</time>
      </trkpt>
      <trkpt lat="44.97369" lon="6.76976">
        <ele>2099.66</ele>
        <time>2015-06-25T09:35:47Z</time>
      </trkpt>
      <trkpt lat="44.97375" lon="6.76983">
        <ele>2099.64</ele>
        <time>2015-06-25T09:35:59Z</time>
      </trkpt>
      <trkpt lat="44.97379" lon="6.76987">
        <ele>2099.42</ele>
        <time>2015-06-25T09:36:08Z</time>
      </trkpt>
      <trkpt lat="44.97386" lon="6.77001">
        <ele>2099.29</ele>
        <time>2015-06-25T09:36:16Z</time>
      </trkpt>
      <trkpt lat="44.974" lon="6.77028">
        <ele>2099.78</ele>
        <time>2015-06-25T09:36:33Z</time>
      </trkpt>
      <trkpt lat="44.97404" lon="6.77052">
        <ele>2099.99</ele>
        <time>2015-06-25T09:36:47Z</time>
      </trkpt>
      <trkpt lat="44.97406" lon="6.77062">
        <ele>2100.03</ele>
        <time>2015-06-25T09:36:52Z</time>
      </trkpt>
      <trkpt lat="44.97406" lon="6.77079">
        <ele>2099.75</ele>
        <time>2015-06-25T09:37:02Z</time>
      </trkpt>
      <trkpt lat="44.97408" lon="6.77083">
        <ele>2099.79</ele>
        <time>2015-06-25T09:37:04Z</time>
      </trkpt>
      <trkpt lat="44.97408" lon="6.77103">
        <ele>2099.77</ele>
        <time>2015-06-25T09:37:17Z</time>
      </trkpt>
      <trkpt lat="44.974" lon="6.77122">
        <ele>2100.33</ele>
        <time>2015-06-25T09:37:31Z</time>
      </trkpt>
      <trkpt lat="44.97391" lon="6.77129">
        <ele>2101.03</ele>
        <time>2015-06-25T09:37:45Z</time>
      </trkpt>
      <trkpt lat="44.9738" lon="6.77139">
        <ele>2100.06</ele>
        <time>2015-06-25T09:38:00Z</time>
      </trkpt>
      <trkpt lat="44.97372" lon="6.77152">
        <ele>2099.5</ele>
        <time>2015-06-25T09:38:14Z</time>
      </trkpt>
      <trkpt lat="44.97367" lon="6.77162">
        <ele>2098.4</ele>
        <time>2015-06-25T09:38:28Z</time>
      </trkpt>
      <trkpt lat="44.97347" lon="6.77203">
        <ele>2095.72</ele>
        <time>2015-06-25T09:38:43Z</time>
      </trkpt>
      <trkpt lat="44.97337" lon="6.7724">
        <ele>2093.45</ele>
        <time>2015-06-25T09:38:56Z</time>
      </trkpt>
      <trkpt lat="44.97334" lon="6.77245">
        <ele>2092.22</ele>
        <time>2015-06-25T09:39:18Z</time>
      </trkpt>
      <trkpt lat="44.97332" lon="6.7725">
        <ele>2092.13</ele>
        <time>2015-06-25T09:39:23Z</time>
      </trkpt>
      <trkpt lat="44.97331" lon="6.77257">
        <ele>2091.89</ele>
        <time>2015-06-25T09:39:27Z</time>
      </trkpt>
      <trkpt lat="44.97324" lon="6.77276">
        <ele>2090.18</ele>
        <time>2015-06-25T09:39:42Z</time>
      </trkpt>
      <trkpt lat="44.97313" lon="6.77289">
        <ele>2089.7</ele>
        <time>2015-06-25T09:39:59Z</time>
      </trkpt>
      <trkpt lat="44.9731" lon="6.77296">
        <ele>2089.32</ele>
        <time>2015-06-25T09:40:13Z</time>
      </trkpt>
      <trkpt lat="44.97302" lon="6.77314">
        <ele>2087.77</ele>
        <time>2015-06-25T09:40:26Z</time>
      </trkpt>
      <trkpt lat="44.97295" lon="6.7733">
        <ele>2086.51</ele>
        <time>2015-06-25T09:40:38Z</time>
      </trkpt>
      <trkpt lat="44.9729" lon="6.7734">
        <ele>2086.13</ele>
        <time>2015-06-25T09:40:55Z</time>
      </trkpt>
      <trkpt lat="44.97287" lon="6.7735">
        <ele>2086.04</ele>
        <time>2015-06-25T09:41:01Z</time>
      </trkpt>
      <trkpt lat="44.97285" lon="6.77365">
        <ele>2085.8</ele>
        <time>2015-06-25T09:41:13Z</time>
      </trkpt>
      <trkpt lat="44.97284" lon="6.77367">
        <ele>2085.8</ele>
        <time>2015-06-25T09:41:15Z</time>
      </trkpt>
      <trkpt lat="44.97281" lon="6.77373">
        <ele>2086.07</ele>
        <time>2015-06-25T09:41:32Z</time>
      </trkpt>
      <trkpt lat="44.97271" lon="6.77385">
        <ele>2084.58</ele>
        <time>2015-06-25T09:41:53Z</time>
      </trkpt>
      <trkpt lat="44.97266" lon="6.77399">
        <ele>2083.45</ele>
        <time>2015-06-25T09:42:11Z</time>
      </trkpt>
      <trkpt lat="44.97266" lon="6.77404">
        <ele>2083.21</ele>
        <time>2015-06-25T09:42:20Z</time>
      </trkpt>
      <trkpt lat="44.97258" lon="6.77418">
        <ele>2082.76</ele>
        <time>2015-06-25T09:42:35Z</time>
      </trkpt>
      <trkpt lat="44.97254" lon="6.7743">
        <ele>2084.78</ele>
        <time>2015-06-25T09:42:54Z</time>
      </trkpt>
      <trkpt lat="44.97253" lon="6.77439">
        <ele>2085.12</ele>
        <time>2015-06-25T09:43:16Z</time>
      </trkpt>
      <trkpt lat="44.97252" lon="6.7744">
        <ele>2085.25</ele>
        <time>2015-06-25T09:43:44Z</time>
      </trkpt>
      <trkpt lat="44.97254" lon="6.77448">
        <ele>2086.08</ele>
        <time>2015-06-25T09:44:03Z</time>
      </trkpt>
      <trkpt lat="44.97255" lon="6.77451">
        <ele>2086.93</ele>
        <time>2015-06-25T09:44:23Z</time>
      </trkpt>
      <trkpt lat="44.97255" lon="6.77452">
        <ele>2086.95</ele>
        <time>2015-06-25T09:44:24Z</time>
      </trkpt>
      <trkpt lat="44.97255" lon="6.77464">
        <ele>2089.01</ele>
        <time>2015-06-25T09:44:43Z</time>
      </trkpt>
      <trkpt lat="44.97255" lon="6.77474">
        <ele>2090.07</ele>
        <time>2015-06-25T09:45:12Z</time>
      </trkpt>
      <trkpt lat="44.97259" lon="6.77481">
        <ele>2093.09</ele>
        <time>2015-06-25T09:45:28Z</time>
      </trkpt>
      <trkpt lat="44.97263" lon="6.7749">
        <ele>2095.02</ele>
        <time>2015-06-25T09:45:46Z</time>
      </trkpt>
      <trkpt lat="44.97268" lon="6.77503">
        <ele>2093.78</ele>
        <time>2015-06-25T09:45:59Z</time>
      </trkpt>
      <trkpt lat="44.97272" lon="6.77516">
        <ele>2094.33</ele>
        <time>2015-06-25T09:46:13Z</time>
      </trkpt>
      <trkpt lat="44.97271" lon="6.77525">
        <ele>2097.36</ele>
        <time>2015-06-25T09:46:30Z</time>
      </trkpt>
      <trkpt lat="44.97274" lon="6.77528">
        <ele>2097.25</ele>
        <time>2015-06-25T09:47:09Z</time>
      </trkpt>
      <trkpt lat="44.97273" lon="6.77535">
        <ele>2097.34</ele>
        <time>2015-06-25T09:47:54Z</time>
      </trkpt>
      <trkpt lat="44.97274" lon="6.77533">
        <ele>2097.28</ele>
        <time>2015-06-25T09:48:41Z</time>
      </trkpt>
      <trkpt lat="44.97275" lon="6.77537">
        <ele>2097.41</ele>
        <time>2015-06-25T09:49:29Z</time>
      </trkpt>
      <trkpt lat="44.97274" lon="6.77527">
        <ele>2096.34</ele>
        <time>2015-06-25T09:49:46Z</time>
      </trkpt>
      <trkpt lat="44.97266" lon="6.77515">
        <ele>2093.9</ele>
        <time>2015-06-25T09:50:02Z</time>
      </trkpt>
      <trkpt lat="44.97266" lon="6.77504">
        <ele>2094.31</ele>
        <time>2015-06-25T09:50:20Z</time>
      </trkpt>
      <trkpt lat="44.97259" lon="6.77494">
        <ele>2094.02</ele>
        <time>2015-06-25T09:50:41Z</time>
      </trkpt>
      <trkpt lat="44.97254" lon="6.77488">
        <ele>2091.25</ele>
        <time>2015-06-25T09:51:01Z</time>
      </trkpt>
      <trkpt lat="44.9725" lon="6.77452">
        <ele>2088.47</ele>
        <time>2015-06-25T09:51:14Z</time>
      </trkpt>
      <trkpt lat="44.9725" lon="6.77441">
        <ele>2087.14</ele>
        <time>2015-06-25T09:51:18Z</time>
      </trkpt>
      <trkpt lat="44.97249" lon="6.77435">
        <ele>2085.09</ele>
        <time>2015-06-25T09:51:35Z</time>
      </trkpt>
      <trkpt lat="44.97249" lon="6.77433">
        <ele>2085.11</ele>
        <time>2015-06-25T09:52:22Z</time>
      </trkpt>
      <trkpt lat="44.9725" lon="6.77432">
        <ele>2084.81</ele>
        <time>2015-06-25T09:52:49Z</time>
      </trkpt>
      <trkpt lat="44.97251" lon="6.77431">
        <ele>2085.1</ele>
        <time>2015-06-25T09:53:20Z</time>
      </trkpt>
      <trkpt lat="44.97249" lon="6.77432">
        <ele>2084.93</ele>
        <time>2015-06-25T09:54:00Z</time>
      </trkpt>
      <trkpt lat="44.97248" lon="6.77431">
        <ele>2084.89</ele>
        <time>2015-06-25T09:54:27Z</time>
      </trkpt>
      <trkpt lat="44.97248" lon="6.77432">
        <ele>2084.79</ele>
        <time>2015-06-25T09:54:53Z</time>
      </trkpt>
      <trkpt lat="44.97246" lon="6.77429">
        <ele>2084.56</ele>
        <time>2015-06-25T09:55:22Z</time>
      </trkpt>
      <trkpt lat="44.97247" lon="6.77431">
        <ele>2083.73</ele>
        <time>2015-06-25T09:55:34Z</time>
      </trkpt>
      <trkpt lat="44.97247" lon="6.7743">
        <ele>2083.54</ele>
        <time>2015-06-25T09:56:17Z</time>
      </trkpt>
      <trkpt lat="44.97244" lon="6.77426">
        <ele>2083.52</ele>
        <time>2015-06-25T09:56:23Z</time>
      </trkpt>
      <trkpt lat="44.97231" lon="6.77414">
        <ele>2082.14</ele>
        <time>2015-06-25T09:56:32Z</time>
      </trkpt>
      <trkpt lat="44.97221" lon="6.77406">
        <ele>2079.71</ele>
        <time>2015-06-25T09:56:44Z</time>
      </trkpt>
      <trkpt lat="44.97207" lon="6.77396">
        <ele>2078.61</ele>
        <time>2015-06-25T09:56:59Z</time>
      </trkpt>
      <trkpt lat="44.97194" lon="6.77388">
        <ele>2077.03</ele>
        <time>2015-06-25T09:57:14Z</time>
      </trkpt>
      <trkpt lat="44.9719" lon="6.77387">
        <ele>2076.53</ele>
        <time>2015-06-25T09:57:18Z</time>
      </trkpt>
      <trkpt lat="44.97171" lon="6.77391">
        <ele>2074.25</ele>
        <time>2015-06-25T09:57:36Z</time>
      </trkpt>
      <trkpt lat="44.97167" lon="6.77392">
        <ele>2073.59</ele>
        <time>2015-06-25T09:57:40Z</time>
      </trkpt>
      <trkpt lat="44.9716" lon="6.77391">
        <ele>2073.09</ele>
        <time>2015-06-25T09:57:44Z</time>
      </trkpt>
      <trkpt lat="44.97135" lon="6.77383">
        <ele>2070.79</ele>
        <time>2015-06-25T09:57:58Z</time>
      </trkpt>
      <trkpt lat="44.97115" lon="6.77373">
        <ele>2067.6</ele>
        <time>2015-06-25T09:58:09Z</time>
      </trkpt>
      <trkpt lat="44.97114" lon="6.77372">
        <ele>2067.26</ele>
        <time>2015-06-25T09:58:10Z</time>
      </trkpt>
      <trkpt lat="44.97107" lon="6.77368">
        <ele>2064.62</ele>
        <time>2015-06-25T09:58:22Z</time>
      </trkpt>
      <trkpt lat="44.971" lon="6.7736">
        <ele>2063.01</ele>
        <time>2015-06-25T09:58:41Z</time>
      </trkpt>
      <trkpt lat="44.97095" lon="6.77354">
        <ele>2062.2</ele>
        <time>2015-06-25T09:58:55Z</time>
      </trkpt>
      <trkpt lat="44.97083" lon="6.77344">
        <ele>2061.24</ele>
        <time>2015-06-25T09:59:09Z</time>
      </trkpt>
      <trkpt lat="44.97076" lon="6.77336">
        <ele>2058.45</ele>
        <time>2015-06-25T09:59:22Z</time>
      </trkpt>
      <trkpt lat="44.97074" lon="6.77328">
        <ele>2057.1</ele>
        <time>2015-06-25T09:59:38Z</time>
      </trkpt>
      <trkpt lat="44.97061" lon="6.77318">
        <ele>2058.09</ele>
        <time>2015-06-25T09:59:55Z</time>
      </trkpt>
      <trkpt lat="44.97054" lon="6.77313">
        <ele>2057.94</ele>
        <time>2015-06-25T10:00:12Z</time>
      </trkpt>
      <trkpt lat="44.97051" lon="6.7731">
        <ele>2057.82</ele>
        <time>2015-06-25T10:00:33Z</time>
      </trkpt>
      <trkpt lat="44.97051" lon="6.77312">
        <ele>2057.56</ele>
        <time>2015-06-25T10:01:11Z</time>
      </trkpt>
      <trkpt lat="44.9705" lon="6.77314">
        <ele>2057.63</ele>
        <time>2015-06-25T10:01:57Z</time>
      </trkpt>
      <trkpt lat="44.97051" lon="6.77313">
        <ele>2057.44</ele>
        <time>2015-06-25T10:02:45Z</time>
      </trkpt>
      <trkpt lat="44.97053" lon="6.77317">
        <ele>2057.5</ele>
        <time>2015-06-25T10:03:10Z</time>
      </trkpt>
      <trkpt lat="44.97065" lon="6.77322">
        <ele>2057.71</ele>
        <time>2015-06-25T10:03:30Z</time>
      </trkpt>
      <trkpt lat="44.97073" lon="6.77326">
        <ele>2057.44</ele>
        <time>2015-06-25T10:03:47Z</time>
      </trkpt>
      <trkpt lat="44.97078" lon="6.7733">
        <ele>2057.07</ele>
        <time>2015-06-25T10:04:00Z</time>
      </trkpt>
      <trkpt lat="44.9708" lon="6.77337">
        <ele>2057.8</ele>
        <time>2015-06-25T10:04:15Z</time>
      </trkpt>
      <trkpt lat="44.97087" lon="6.77346">
        <ele>2059.1</ele>
        <time>2015-06-25T10:04:30Z</time>
      </trkpt>
      <trkpt lat="44.97094" lon="6.77354">
        <ele>2061.33</ele>
        <time>2015-06-25T10:04:46Z</time>
      </trkpt>
      <trkpt lat="44.97104" lon="6.77364">
        <ele>2063.02</ele>
        <time>2015-06-25T10:05:04Z</time>
      </trkpt>
      <trkpt lat="44.97109" lon="6.77369">
        <ele>2063.71</ele>
        <time>2015-06-25T10:05:20Z</time>
      </trkpt>
      <trkpt lat="44.97117" lon="6.77378">
        <ele>2065.77</ele>
        <time>2015-06-25T10:05:38Z</time>
      </trkpt>
      <trkpt lat="44.97125" lon="6.77382">
        <ele>2067.08</ele>
        <time>2015-06-25T10:05:52Z</time>
      </trkpt>
      <trkpt lat="44.97136" lon="6.77387">
        <ele>2068.58</ele>
        <time>2015-06-25T10:06:10Z</time>
      </trkpt>
      <trkpt lat="44.97147" lon="6.7739">
        <ele>2070.54</ele>
        <time>2015-06-25T10:06:29Z</time>
      </trkpt>
      <trkpt lat="44.97159" lon="6.77394">
        <ele>2071.47</ele>
        <time>2015-06-25T10:06:45Z</time>
      </trkpt>
      <trkpt lat="44.97171" lon="6.77398">
        <ele>2073.65</ele>
        <time>2015-06-25T10:07:02Z</time>
      </trkpt>
      <trkpt lat="44.97182" lon="6.77401">
        <ele>2074.59</ele>
        <time>2015-06-25T10:07:19Z</time>
      </trkpt>
      <trkpt lat="44.97191" lon="6.77401">
        <ele>2075.75</ele>
        <time>2015-06-25T10:07:34Z</time>
      </trkpt>
      <trkpt lat="44.972" lon="6.77404">
        <ele>2077.45</ele>
        <time>2015-06-25T10:07:50Z</time>
      </trkpt>
      <trkpt lat="44.9721" lon="6.77409">
        <ele>2078.8</ele>
        <time>2015-06-25T10:08:05Z</time>
      </trkpt>
      <trkpt lat="44.97221" lon="6.77412">
        <ele>2078.99</ele>
        <time>2015-06-25T10:08:21Z</time>
      </trkpt>
      <trkpt lat="44.97232" lon="6.77417">
        <ele>2080.22</ele>
        <time>2015-06-25T10:08:36Z</time>
      </trkpt>
      <trkpt lat="44.97242" lon="6.77426">
        <ele>2082.07</ele>
        <time>2015-06-25T10:08:53Z</time>
      </trkpt>
      <trkpt lat="44.97249" lon="6.77436">
        <ele>2083.78</ele>
        <time>2015-06-25T10:09:09Z</time>
      </trkpt>
      <trkpt lat="44.9725" lon="6.77434">
        <ele>2084.11</ele>
        <time>2015-06-25T10:09:28Z</time>
      </trkpt>
      <trkpt lat="44.97255" lon="6.77426">
        <ele>2084.4</ele>
        <time>2015-06-25T10:09:50Z</time>
      </trkpt>
      <trkpt lat="44.97256" lon="6.77424">
        <ele>2084.34</ele>
        <time>2015-06-25T10:09:51Z</time>
      </trkpt>
      <trkpt lat="44.97261" lon="6.77409">
        <ele>2082.15</ele>
        <time>2015-06-25T10:10:07Z</time>
      </trkpt>
      <trkpt lat="44.97264" lon="6.77394">
        <ele>2082.6</ele>
        <time>2015-06-25T10:10:25Z</time>
      </trkpt>
      <trkpt lat="44.97275" lon="6.77379">
        <ele>2083.64</ele>
        <time>2015-06-25T10:10:46Z</time>
      </trkpt>
      <trkpt lat="44.97284" lon="6.77368">
        <ele>2085.24</ele>
        <time>2015-06-25T10:11:04Z</time>
      </trkpt>
      <trkpt lat="44.97288" lon="6.77354">
        <ele>2084.86</ele>
        <time>2015-06-25T10:11:17Z</time>
      </trkpt>
      <trkpt lat="44.9729" lon="6.77332">
        <ele>2085.44</ele>
        <time>2015-06-25T10:11:38Z</time>
      </trkpt>
      <trkpt lat="44.97297" lon="6.77315">
        <ele>2086.54</ele>
        <time>2015-06-25T10:11:53Z</time>
      </trkpt>
      <trkpt lat="44.97305" lon="6.77301">
        <ele>2087.64</ele>
        <time>2015-06-25T10:12:10Z</time>
      </trkpt>
      <trkpt lat="44.97312" lon="6.77291">
        <ele>2089.6</ele>
        <time>2015-06-25T10:12:31Z</time>
      </trkpt>
      <trkpt lat="44.97323" lon="6.77284">
        <ele>2088.82</ele>
        <time>2015-06-25T10:12:47Z</time>
      </trkpt>
      <trkpt lat="44.97331" lon="6.77264">
        <ele>2089.88</ele>
        <time>2015-06-25T10:13:08Z</time>
      </trkpt>
      <trkpt lat="44.97335" lon="6.77248">
        <ele>2091.5</ele>
        <time>2015-06-25T10:13:27Z</time>
      </trkpt>
      <trkpt lat="44.9734" lon="6.77231">
        <ele>2092.25</ele>
        <time>2015-06-25T10:13:42Z</time>
      </trkpt>
      <trkpt lat="44.97347" lon="6.77211">
        <ele>2093.49</ele>
        <time>2015-06-25T10:13:59Z</time>
      </trkpt>
      <trkpt lat="44.97348" lon="6.77205">
        <ele>2093.96</ele>
        <time>2015-06-25T10:14:05Z</time>
      </trkpt>
      <trkpt lat="44.97351" lon="6.77195">
        <ele>2094.84</ele>
        <time>2015-06-25T10:14:12Z</time>
      </trkpt>
      <trkpt lat="44.97359" lon="6.77178">
        <ele>2095.37</ele>
        <time>2015-06-25T10:14:27Z</time>
      </trkpt>
      <trkpt lat="44.97364" lon="6.77159">
        <ele>2096.63</ele>
        <time>2015-06-25T10:14:45Z</time>
      </trkpt>
      <trkpt lat="44.97374" lon="6.77151">
        <ele>2098.8</ele>
        <time>2015-06-25T10:15:04Z</time>
      </trkpt>
      <trkpt lat="44.97381" lon="6.77137">
        <ele>2099.42</ele>
        <time>2015-06-25T10:15:19Z</time>
      </trkpt>
      <trkpt lat="44.97396" lon="6.77129">
        <ele>2100.44</ele>
        <time>2015-06-25T10:15:41Z</time>
      </trkpt>
      <trkpt lat="44.974" lon="6.77126">
        <ele>2100.49</ele>
        <time>2015-06-25T10:15:45Z</time>
      </trkpt>
      <trkpt lat="44.97408" lon="6.77101">
        <ele>2099.76</ele>
        <time>2015-06-25T10:15:58Z</time>
      </trkpt>
      <trkpt lat="44.97407" lon="6.77069">
        <ele>2100.02</ele>
        <time>2015-06-25T10:16:10Z</time>
      </trkpt>
      <trkpt lat="44.97405" lon="6.7705">
        <ele>2100.12</ele>
        <time>2015-06-25T10:16:19Z</time>
      </trkpt>
      <trkpt lat="44.97405" lon="6.77045">
        <ele>2100.22</ele>
        <time>2015-06-25T10:16:22Z</time>
      </trkpt>
      <trkpt lat="44.97401" lon="6.77034">
        <ele>2100.36</ele>
        <time>2015-06-25T10:16:31Z</time>
      </trkpt>
      <trkpt lat="44.97392" lon="6.77018">
        <ele>2100.17</ele>
        <time>2015-06-25T10:16:45Z</time>
      </trkpt>
      <trkpt lat="44.97383" lon="6.76995">
        <ele>2099.65</ele>
        <time>2015-06-25T10:16:56Z</time>
      </trkpt>
      <trkpt lat="44.97375" lon="6.76981">
        <ele>2099.35</ele>
        <time>2015-06-25T10:17:10Z</time>
      </trkpt>
      <trkpt lat="44.97369" lon="6.76975">
        <ele>2099.81</ele>
        <time>2015-06-25T10:17:20Z</time>
      </trkpt>
      <trkpt lat="44.97354" lon="6.76961">
        <ele>2099.89</ele>
        <time>2015-06-25T10:17:37Z</time>
      </trkpt>
      <trkpt lat="44.97344" lon="6.76954">
        <ele>2099.44</ele>
        <time>2015-06-25T10:17:51Z</time>
      </trkpt>
      <trkpt lat="44.97339" lon="6.76949">
        <ele>2099.66</ele>
        <time>2015-06-25T10:17:58Z</time>
      </trkpt>
      <trkpt lat="44.97334" lon="6.76946">
        <ele>2099.27</ele>
        <time>2015-06-25T10:18:02Z</time>
      </trkpt>
      <trkpt lat="44.9732" lon="6.76936">
        <ele>2099.23</ele>
        <time>2015-06-25T10:18:16Z</time>
      </trkpt>
      <trkpt lat="44.97319" lon="6.76935">
        <ele>2099.29</ele>
        <time>2015-06-25T10:18:17Z</time>
      </trkpt>
      <trkpt lat="44.97316" lon="6.76932">
        <ele>2099.48</ele>
        <time>2015-06-25T10:18:20Z</time>
      </trkpt>
      <trkpt lat="44.97303" lon="6.76923">
        <ele>2100.05</ele>
        <time>2015-06-25T10:18:27Z</time>
      </trkpt>
      <trkpt lat="44.97285" lon="6.76912">
        <ele>2100</ele>
        <time>2015-06-25T10:18:38Z</time>
      </trkpt>
      <trkpt lat="44.97262" lon="6.76897">
        <ele>2099.99</ele>
        <time>2015-06-25T10:18:53Z</time>
      </trkpt>
      <trkpt lat="44.97242" lon="6.7688">
        <ele>2099.99</ele>
        <time>2015-06-25T10:19:05Z</time>
      </trkpt>
      <trkpt lat="44.97227" lon="6.76856">
        <ele>2100.35</ele>
        <time>2015-06-25T10:19:18Z</time>
      </trkpt>
      <trkpt lat="44.97219" lon="6.76834">
        <ele>2101.06</ele>
        <time>2015-06-25T10:19:26Z</time>
      </trkpt>
      <trkpt lat="44.9721" lon="6.76792">
        <ele>2101.03</ele>
        <time>2015-06-25T10:19:41Z</time>
      </trkpt>
      <trkpt lat="44.97206" lon="6.76784">
        <ele>2101.08</ele>
        <time>2015-06-25T10:19:54Z</time>
      </trkpt>
      <trkpt lat="44.97202" lon="6.76769">
        <ele>2101.27</ele>
        <time>2015-06-25T10:20:13Z</time>
      </trkpt>
      <trkpt lat="44.97203" lon="6.76762">
        <ele>2101.18</ele>
        <time>2015-06-25T10:20:22Z</time>
      </trkpt>
      <trkpt lat="44.97215" lon="6.76735">
        <ele>2101.25</ele>
        <time>2015-06-25T10:20:35Z</time>
      </trkpt>
      <trkpt lat="44.97222" lon="6.76723">
        <ele>2101.37</ele>
        <time>2015-06-25T10:20:42Z</time>
      </trkpt>
      <trkpt lat="44.97226" lon="6.76718">
        <ele>2101.44</ele>
        <time>2015-06-25T10:20:46Z</time>
      </trkpt>
      <trkpt lat="44.97239" lon="6.7671">
        <ele>2101.93</ele>
        <time>2015-06-25T10:21:00Z</time>
      </trkpt>
      <trkpt lat="44.97242" lon="6.76706">
        <ele>2101.99</ele>
        <time>2015-06-25T10:21:04Z</time>
      </trkpt>
      <trkpt lat="44.97259" lon="6.7669">
        <ele>2103.55</ele>
        <time>2015-06-25T10:21:20Z</time>
      </trkpt>
      <trkpt lat="44.97264" lon="6.76682">
        <ele>2104.42</ele>
        <time>2015-06-25T10:21:28Z</time>
      </trkpt>
      <trkpt lat="44.97265" lon="6.76679">
        <ele>2104.67</ele>
        <time>2015-06-25T10:21:30Z</time>
      </trkpt>
      <trkpt lat="44.9727" lon="6.76665">
        <ele>2106.08</ele>
        <time>2015-06-25T10:21:42Z</time>
      </trkpt>
      <trkpt lat="44.97271" lon="6.76656">
        <ele>2106.89</ele>
        <time>2015-06-25T10:21:48Z</time>
      </trkpt>
      <trkpt lat="44.97274" lon="6.76647">
        <ele>2107.59</ele>
        <time>2015-06-25T10:21:54Z</time>
      </trkpt>
      <trkpt lat="44.97275" lon="6.76632">
        <ele>2108.88</ele>
        <time>2015-06-25T10:22:04Z</time>
      </trkpt>
      <trkpt lat="44.97275" lon="6.76611">
        <ele>2110.43</ele>
        <time>2015-06-25T10:22:17Z</time>
      </trkpt>
      <trkpt lat="44.97276" lon="6.76592">
        <ele>2112.17</ele>
        <time>2015-06-25T10:22:33Z</time>
      </trkpt>
      <trkpt lat="44.97277" lon="6.76578">
        <ele>2113.05</ele>
        <time>2015-06-25T10:22:42Z</time>
      </trkpt>
      <trkpt lat="44.97278" lon="6.7657">
        <ele>2113.65</ele>
        <time>2015-06-25T10:22:47Z</time>
      </trkpt>
      <trkpt lat="44.97278" lon="6.76558">
        <ele>2114.28</ele>
        <time>2015-06-25T10:22:54Z</time>
      </trkpt>
      <trkpt lat="44.97277" lon="6.76545">
        <ele>2115.13</ele>
        <time>2015-06-25T10:23:02Z</time>
      </trkpt>
      <trkpt lat="44.97278" lon="6.7654">
        <ele>2115.53</ele>
        <time>2015-06-25T10:23:05Z</time>
      </trkpt>
      <trkpt lat="44.97281" lon="6.7652">
        <ele>2117.16</ele>
        <time>2015-06-25T10:23:19Z</time>
      </trkpt>
      <trkpt lat="44.97285" lon="6.76509">
        <ele>2118.65</ele>
        <time>2015-06-25T10:23:30Z</time>
      </trkpt>
      <trkpt lat="44.97286" lon="6.76508">
        <ele>2118.69</ele>
        <time>2015-06-25T10:23:31Z</time>
      </trkpt>
      <trkpt lat="44.9729" lon="6.76504">
        <ele>2118.94</ele>
        <time>2015-06-25T10:23:37Z</time>
      </trkpt>
      <trkpt lat="44.97299" lon="6.76488">
        <ele>2120.64</ele>
        <time>2015-06-25T10:23:53Z</time>
      </trkpt>
      <trkpt lat="44.97307" lon="6.76474">
        <ele>2122.26</ele>
        <time>2015-06-25T10:24:07Z</time>
      </trkpt>
      <trkpt lat="44.97312" lon="6.76462">
        <ele>2123.48</ele>
        <time>2015-06-25T10:24:18Z</time>
      </trkpt>
      <trkpt lat="44.9732" lon="6.76448">
        <ele>2124.97</ele>
        <time>2015-06-25T10:24:31Z</time>
      </trkpt>
      <trkpt lat="44.97329" lon="6.76428">
        <ele>2126.45</ele>
        <time>2015-06-25T10:24:49Z</time>
      </trkpt>
      <trkpt lat="44.97337" lon="6.76408">
        <ele>2128.46</ele>
        <time>2015-06-25T10:25:06Z</time>
      </trkpt>
      <trkpt lat="44.9734" lon="6.76404">
        <ele>2129.08</ele>
        <time>2015-06-25T10:25:11Z</time>
      </trkpt>
      <trkpt lat="44.97352" lon="6.76392">
        <ele>2130.65</ele>
        <time>2015-06-25T10:25:27Z</time>
      </trkpt>
      <trkpt lat="44.97353" lon="6.76383">
        <ele>2131.66</ele>
        <time>2015-06-25T10:25:43Z</time>
      </trkpt>
      <trkpt lat="44.97355" lon="6.76384">
        <ele>2131.33</ele>
        <time>2015-06-25T10:26:09Z</time>
      </trkpt>
      <trkpt lat="44.97356" lon="6.76379">
        <ele>2131.35</ele>
        <time>2015-06-25T10:26:24Z</time>
      </trkpt>
      <trkpt lat="44.97369" lon="6.76342">
        <ele>2130.01</ele>
        <time>2015-06-25T10:26:37Z</time>
      </trkpt>
      <trkpt lat="44.97372" lon="6.76331">
        <ele>2128.59</ele>
        <time>2015-06-25T10:26:45Z</time>
      </trkpt>
      <trkpt lat="44.97376" lon="6.76324">
        <ele>2128.17</ele>
        <time>2015-06-25T10:26:51Z</time>
      </trkpt>
      <trkpt lat="44.97391" lon="6.76309">
        <ele>2127.79</ele>
        <time>2015-06-25T10:26:59Z</time>
      </trkpt>
      <trkpt lat="44.97401" lon="6.76266">
        <ele>2125.26</ele>
        <time>2015-06-25T10:27:11Z</time>
      </trkpt>
      <trkpt lat="44.97409" lon="6.76231">
        <ele>2122.91</ele>
        <time>2015-06-25T10:27:21Z</time>
      </trkpt>
      <trkpt lat="44.97424" lon="6.76214">
        <ele>2121</ele>
        <time>2015-06-25T10:27:31Z</time>
      </trkpt>
      <trkpt lat="44.97439" lon="6.76193">
        <ele>2119.09</ele>
        <time>2015-06-25T10:27:42Z</time>
      </trkpt>
      <trkpt lat="44.97441" lon="6.76181">
        <ele>2117.18</ele>
        <time>2015-06-25T10:27:52Z</time>
      </trkpt>
      <trkpt lat="44.97445" lon="6.76165">
        <ele>2116.32</ele>
        <time>2015-06-25T10:28:05Z</time>
      </trkpt>
      <trkpt lat="44.97449" lon="6.76162">
        <ele>2116.03</ele>
        <time>2015-06-25T10:28:24Z</time>
      </trkpt>
      <trkpt lat="44.9745" lon="6.76161">
        <ele>2116.36</ele>
        <time>2015-06-25T10:28:38Z</time>
      </trkpt>
      <trkpt lat="44.97462" lon="6.76146">
        <ele>2116.05</ele>
        <time>2015-06-25T10:28:48Z</time>
      </trkpt>
      <trkpt lat="44.97479" lon="6.76123">
        <ele>2113.81</ele>
        <time>2015-06-25T10:29:01Z</time>
      </trkpt>
      <trkpt lat="44.9749" lon="6.76116">
        <ele>2112.53</ele>
        <time>2015-06-25T10:29:10Z</time>
      </trkpt>
      <trkpt lat="44.97502" lon="6.76102">
        <ele>2110.81</ele>
        <time>2015-06-25T10:29:20Z</time>
      </trkpt>
      <trkpt lat="44.97507" lon="6.76094">
        <ele>2109.88</ele>
        <time>2015-06-25T10:29:32Z</time>
      </trkpt>
      <trkpt lat="44.97507" lon="6.76092">
        <ele>2109.44</ele>
        <time>2015-06-25T10:30:02Z</time>
      </trkpt>
      <trkpt lat="44.97514" lon="6.76071">
        <ele>2108.66</ele>
        <time>2015-06-25T10:30:13Z</time>
      </trkpt>
      <trkpt lat="44.97518" lon="6.76062">
        <ele>2107.93</ele>
        <time>2015-06-25T10:30:16Z</time>
      </trkpt>
      <trkpt lat="44.9752" lon="6.7605">
        <ele>2106.85</ele>
        <time>2015-06-25T10:30:22Z</time>
      </trkpt>
      <trkpt lat="44.97522" lon="6.76044">
        <ele>2106.54</ele>
        <time>2015-06-25T10:30:25Z</time>
      </trkpt>
      <trkpt lat="44.9752" lon="6.76009">
        <ele>2104.76</ele>
        <time>2015-06-25T10:30:37Z</time>
      </trkpt>
      <trkpt lat="44.9752" lon="6.75968">
        <ele>2102</ele>
        <time>2015-06-25T10:30:50Z</time>
      </trkpt>
      <trkpt lat="44.97522" lon="6.75962">
        <ele>2101.57</ele>
        <time>2015-06-25T10:30:52Z</time>
      </trkpt>
      <trkpt lat="44.97527" lon="6.75944">
        <ele>2100.15</ele>
        <time>2015-06-25T10:31:03Z</time>
      </trkpt>
      <trkpt lat="44.97528" lon="6.75941">
        <ele>2099.64</ele>
        <time>2015-06-25T10:31:10Z</time>
      </trkpt>
      <trkpt lat="44.97534" lon="6.75936">
        <ele>2097.84</ele>
        <time>2015-06-25T10:31:24Z</time>
      </trkpt>
      <trkpt lat="44.97536" lon="6.75938">
        <ele>2097.82</ele>
        <time>2015-06-25T10:31:40Z</time>
      </trkpt>
      <trkpt lat="44.97539" lon="6.75939">
        <ele>2097.88</ele>
        <time>2015-06-25T10:31:45Z</time>
      </trkpt>
      <trkpt lat="44.97545" lon="6.7594">
        <ele>2098.05</ele>
        <time>2015-06-25T10:31:52Z</time>
      </trkpt>
      <trkpt lat="44.97556" lon="6.75934">
        <ele>2096.73</ele>
        <time>2015-06-25T10:32:03Z</time>
      </trkpt>
      <trkpt lat="44.97564" lon="6.75903">
        <ele>2094.52</ele>
        <time>2015-06-25T10:32:12Z</time>
      </trkpt>
      <trkpt lat="44.97569" lon="6.75897">
        <ele>2092.89</ele>
        <time>2015-06-25T10:32:27Z</time>
      </trkpt>
      <trkpt lat="44.97572" lon="6.75897">
        <ele>2092.85</ele>
        <time>2015-06-25T10:32:34Z</time>
      </trkpt>
      <trkpt lat="44.97588" lon="6.7591">
        <ele>2091.65</ele>
        <time>2015-06-25T10:32:47Z</time>
      </trkpt>
      <trkpt lat="44.97614" lon="6.75907">
        <ele>2088.86</ele>
        <time>2015-06-25T10:32:59Z</time>
      </trkpt>
      <trkpt lat="44.97646" lon="6.75909">
        <ele>2086.1</ele>
        <time>2015-06-25T10:33:13Z</time>
      </trkpt>
      <trkpt lat="44.97649" lon="6.75909">
        <ele>2084.32</ele>
        <time>2015-06-25T10:33:24Z</time>
      </trkpt>
      <trkpt lat="44.97649" lon="6.75907">
        <ele>2084.17</ele>
        <time>2015-06-25T10:33:37Z</time>
      </trkpt>
      <trkpt lat="44.9765" lon="6.75901">
        <ele>2084.03</ele>
        <time>2015-06-25T10:34:50Z</time>
      </trkpt>
      <trkpt lat="44.97669" lon="6.75904">
        <ele>2083.6</ele>
        <time>2015-06-25T10:35:12Z</time>
      </trkpt>
      <trkpt lat="44.97706" lon="6.75884">
        <ele>2080.74</ele>
        <time>2015-06-25T10:35:23Z</time>
      </trkpt>
      <trkpt lat="44.97708" lon="6.75881">
        <ele>2080.37</ele>
        <time>2015-06-25T10:35:24Z</time>
      </trkpt>
      <trkpt lat="44.97714" lon="6.7586">
        <ele>2078.12</ele>
        <time>2015-06-25T10:35:29Z</time>
      </trkpt>
      <trkpt lat="44.9772" lon="6.75849">
        <ele>2077.58</ele>
        <time>2015-06-25T10:35:31Z</time>
      </trkpt>
      <trkpt lat="44.97741" lon="6.75825">
        <ele>2074.91</ele>
        <time>2015-06-25T10:35:39Z</time>
      </trkpt>
      <trkpt lat="44.9776" lon="6.75846">
        <ele>2071.95</ele>
        <time>2015-06-25T10:35:49Z</time>
      </trkpt>
      <trkpt lat="44.97763" lon="6.75846">
        <ele>2070.37</ele>
        <time>2015-06-25T10:36:05Z</time>
      </trkpt>
      <trkpt lat="44.97765" lon="6.75851">
        <ele>2070.16</ele>
        <time>2015-06-25T10:36:23Z</time>
      </trkpt>
      <trkpt lat="44.97779" lon="6.75891">
        <ele>2069.37</ele>
        <time>2015-06-25T10:36:35Z</time>
      </trkpt>
      <trkpt lat="44.97794" lon="6.75926">
        <ele>2066.15</ele>
        <time>2015-06-25T10:36:43Z</time>
      </trkpt>
      <trkpt lat="44.978" lon="6.75943">
        <ele>2064.18</ele>
        <time>2015-06-25T10:36:47Z</time>
      </trkpt>
      <trkpt lat="44.97813" lon="6.75967">
        <ele>2061.49</ele>
        <time>2015-06-25T10:36:52Z</time>
      </trkpt>
      <trkpt lat="44.97811" lon="6.75988">
        <ele>2058.92</ele>
        <time>2015-06-25T10:36:56Z</time>
      </trkpt>
      <trkpt lat="44.97801" lon="6.76016">
        <ele>2054.89</ele>
        <time>2015-06-25T10:37:02Z</time>
      </trkpt>
      <trkpt lat="44.97799" lon="6.76025">
        <ele>2053.77</ele>
        <time>2015-06-25T10:37:04Z</time>
      </trkpt>
      <trkpt lat="44.97812" lon="6.76042">
        <ele>2049.56</ele>
        <time>2015-06-25T10:37:11Z</time>
      </trkpt>
      <trkpt lat="44.97816" lon="6.76045">
        <ele>2049.07</ele>
        <time>2015-06-25T10:37:12Z</time>
      </trkpt>
      <trkpt lat="44.97839" lon="6.76073">
        <ele>2045.11</ele>
        <time>2015-06-25T10:37:19Z</time>
      </trkpt>
      <trkpt lat="44.97853" lon="6.76095">
        <ele>2041.49</ele>
        <time>2015-06-25T10:37:25Z</time>
      </trkpt>
      <trkpt lat="44.97862" lon="6.76111">
        <ele>2037.86</ele>
        <time>2015-06-25T10:37:29Z</time>
      </trkpt>
      <trkpt lat="44.97849" lon="6.76118">
        <ele>2034.45</ele>
        <time>2015-06-25T10:37:35Z</time>
      </trkpt>
      <trkpt lat="44.97822" lon="6.76089">
        <ele>2030.91</ele>
        <time>2015-06-25T10:37:43Z</time>
      </trkpt>
      <trkpt lat="44.97804" lon="6.76105">
        <ele>2028.45</ele>
        <time>2015-06-25T10:37:50Z</time>
      </trkpt>
      <trkpt lat="44.97814" lon="6.76122">
        <ele>2025.46</ele>
        <time>2015-06-25T10:37:58Z</time>
      </trkpt>
      <trkpt lat="44.97817" lon="6.76122">
        <ele>2024.4</ele>
        <time>2015-06-25T10:38:10Z</time>
      </trkpt>
      <trkpt lat="44.97818" lon="6.76122">
        <ele>2023.62</ele>
        <time>2015-06-25T10:39:13Z</time>
      </trkpt>
      <trkpt lat="44.97818" lon="6.76123">
        <ele>2023.26</ele>
        <time>2015-06-25T10:40:19Z</time>
      </trkpt>
      <trkpt lat="44.97818" lon="6.76123">
        <ele>2022.95</ele>
        <time>2015-06-25T10:41:10Z</time>
      </trkpt>
      <trkpt lat="44.97817" lon="6.76122">
        <ele>2023.48</ele>
        <time>2015-06-25T10:42:09Z</time>
      </trkpt>
      <trkpt lat="44.97817" lon="6.76121">
        <ele>2023.22</ele>
        <time>2015-06-25T10:43:07Z</time>
      </trkpt>
      <trkpt lat="44.97818" lon="6.76122">
        <ele>2023.56</ele>
        <time>2015-06-25T10:44:15Z</time>
      </trkpt>
      <trkpt lat="44.97818" lon="6.76121">
        <ele>2023.27</ele>
        <time>2015-06-25T10:45:38Z</time>
      </trkpt>
      <trkpt lat="44.97817" lon="6.76121">
        <ele>2023.06</ele>
        <time>2015-06-25T10:46:47Z</time>
      </trkpt>
      <trkpt lat="44.97816" lon="6.76121">
        <ele>2023.05</ele>
        <time>2015-06-25T10:47:58Z</time>
      </trkpt>
      <trkpt lat="44.97817" lon="6.76121">
        <ele>2023.09</ele>
        <time>2015-06-25T10:49:09Z</time>
      </trkpt>
      <trkpt lat="44.97817" lon="6.76122">
        <ele>2022.94</ele>
        <time>2015-06-25T10:50:13Z</time>
      </trkpt>
      <trkpt lat="44.97816" lon="6.76121">
        <ele>2023.39</ele>
        <time>2015-06-25T10:51:22Z</time>
      </trkpt>
      <trkpt lat="44.97817" lon="6.7612">
        <ele>2023.19</ele>
        <time>2015-06-25T10:52:42Z</time>
      </trkpt>
      <trkpt lat="44.97816" lon="6.7612">
        <ele>2023.19</ele>
        <time>2015-06-25T10:53:54Z</time>
      </trkpt>
      <trkpt lat="44.97816" lon="6.7612">
        <ele>2023.35</ele>
        <time>2015-06-25T10:55:10Z</time>
      </trkpt>
      <trkpt lat="44.97818" lon="6.76121">
        <ele>2023.5</ele>
        <time>2015-06-25T10:56:22Z</time>
      </trkpt>
      <trkpt lat="44.97817" lon="6.76121">
        <ele>2023.16</ele>
        <time>2015-06-25T10:57:31Z</time>
      </trkpt>
      <trkpt lat="44.97819" lon="6.76121">
        <ele>2023.32</ele>
        <time>2015-06-25T10:58:53Z</time>
      </trkpt>
      <trkpt lat="44.97819" lon="6.76121">
        <ele>2023.24</ele>
        <time>2015-06-25T11:00:08Z</time>
      </trkpt>
      <trkpt lat="44.9782" lon="6.76122">
        <ele>2023.03</ele>
        <time>2015-06-25T11:01:14Z</time>
      </trkpt>
      <trkpt lat="44.97821" lon="6.76123">
        <ele>2023.07</ele>
        <time>2015-06-25T11:02:28Z</time>
      </trkpt>
      <trkpt lat="44.97822" lon="6.76123">
        <ele>2023.26</ele>
        <time>2015-06-25T11:03:41Z</time>
      </trkpt>
      <trkpt lat="44.97821" lon="6.76122">
        <ele>2023.09</ele>
        <time>2015-06-25T11:04:46Z</time>
      </trkpt>
      <trkpt lat="44.97821" lon="6.76122">
        <ele>2023.41</ele>
        <time>2015-06-25T11:06:14Z</time>
      </trkpt>
      <trkpt lat="44.97818" lon="6.76121">
        <ele>2023.34</ele>
        <time>2015-06-25T11:07:31Z</time>
      </trkpt>
      <trkpt lat="44.97818" lon="6.76121">
        <ele>2023.45</ele>
        <time>2015-06-25T11:08:45Z</time>
      </trkpt>
      <trkpt lat="44.97818" lon="6.76121">
        <ele>2023.56</ele>
        <time>2015-06-25T11:10:09Z</time>
      </trkpt>
      <trkpt lat="44.97817" lon="6.76121">
        <ele>2023.39</ele>
        <time>2015-06-25T11:11:27Z</time>
      </trkpt>
      <trkpt lat="44.97816" lon="6.76121">
        <ele>2023.07</ele>
        <time>2015-06-25T11:13:13Z</time>
      </trkpt>
      <trkpt lat="44.97815" lon="6.76121">
        <ele>2023.01</ele>
        <time>2015-06-25T11:14:35Z</time>
      </trkpt>
      <trkpt lat="44.97815" lon="6.7612">
        <ele>2023.24</ele>
        <time>2015-06-25T11:16:16Z</time>
      </trkpt>
      <trkpt lat="44.97814" lon="6.7612">
        <ele>2023.25</ele>
        <time>2015-06-25T11:18:29Z</time>
      </trkpt>
      <trkpt lat="44.97814" lon="6.7612">
        <ele>2023.41</ele>
        <time>2015-06-25T11:20:35Z</time>
      </trkpt>
      <trkpt lat="44.97814" lon="6.76119">
        <ele>2023.53</ele>
        <time>2015-06-25T11:22:34Z</time>
      </trkpt>
      <trkpt lat="44.97815" lon="6.7612">
        <ele>2023.78</ele>
        <time>2015-06-25T11:24:13Z</time>
      </trkpt>
      <trkpt lat="44.97816" lon="6.7612">
        <ele>2024.09</ele>
        <time>2015-06-25T11:26:09Z</time>
      </trkpt>
      <trkpt lat="44.97816" lon="6.76121">
        <ele>2024.06</ele>
        <time>2015-06-25T11:28:05Z</time>
      </trkpt>
      <trkpt lat="44.97816" lon="6.7612">
        <ele>2024.03</ele>
        <time>2015-06-25T11:29:57Z</time>
      </trkpt>
      <trkpt lat="44.97815" lon="6.76119">
        <ele>2024.13</ele>
        <time>2015-06-25T11:32:20Z</time>
      </trkpt>
      <trkpt lat="44.97815" lon="6.7612">
        <ele>2024.19</ele>
        <time>2015-06-25T11:34:00Z</time>
      </trkpt>
      <trkpt lat="44.97815" lon="6.76119">
        <ele>2024.36</ele>
        <time>2015-06-25T11:35:56Z</time>
      </trkpt>
      <trkpt lat="44.97814" lon="6.76119">
        <ele>2024.81</ele>
        <time>2015-06-25T11:38:18Z</time>
      </trkpt>
      <trkpt lat="44.97815" lon="6.76118">
        <ele>2024.29</ele>
        <time>2015-06-25T11:40:25Z</time>
      </trkpt>
      <trkpt lat="44.97814" lon="6.76118">
        <ele>2024.4</ele>
        <time>2015-06-25T11:41:54Z</time>
      </trkpt>
      <trkpt lat="44.97814" lon="6.76119">
        <ele>2024.04</ele>
        <time>2015-06-25T11:43:54Z</time>
      </trkpt>
      <trkpt lat="44.97814" lon="6.76118">
        <ele>2024.17</ele>
        <time>2015-06-25T11:46:15Z</time>
      </trkpt>
      <trkpt lat="44.97814" lon="6.7612">
        <ele>2023.84</ele>
        <time>2015-06-25T11:48:33Z</time>
      </trkpt>
      <trkpt lat="44.97811" lon="6.76117">
        <ele>2024.53</ele>
        <time>2015-06-25T11:48:58Z</time>
      </trkpt>
      <trkpt lat="44.97811" lon="6.76121">
        <ele>2024.27</ele>
        <time>2015-06-25T11:49:10Z</time>
      </trkpt>
      <trkpt lat="44.97812" lon="6.76125">
        <ele>2024.06</ele>
        <time>2015-06-25T11:49:40Z</time>
      </trkpt>
      <trkpt lat="44.97813" lon="6.76126">
        <ele>2024.04</ele>
        <time>2015-06-25T11:49:41Z</time>
      </trkpt>
      <trkpt lat="44.97819" lon="6.76132">
        <ele>2023.81</ele>
        <time>2015-06-25T11:49:46Z</time>
      </trkpt>
      <trkpt lat="44.97851" lon="6.76158">
        <ele>2020.56</ele>
        <time>2015-06-25T11:49:59Z</time>
      </trkpt>
      <trkpt lat="44.97873" lon="6.76174">
        <ele>2017.49</ele>
        <time>2015-06-25T11:50:06Z</time>
      </trkpt>
      <trkpt lat="44.97894" lon="6.76188">
        <ele>2014.24</ele>
        <time>2015-06-25T11:50:12Z</time>
      </trkpt>
      <trkpt lat="44.9791" lon="6.76202">
        <ele>2011.2</ele>
        <time>2015-06-25T11:50:17Z</time>
      </trkpt>
      <trkpt lat="44.97928" lon="6.76217">
        <ele>2007.69</ele>
        <time>2015-06-25T11:50:23Z</time>
      </trkpt>
      <trkpt lat="44.97941" lon="6.76226">
        <ele>2004.44</ele>
        <time>2015-06-25T11:50:27Z</time>
      </trkpt>
      <trkpt lat="44.97959" lon="6.76241">
        <ele>2001.34</ele>
        <time>2015-06-25T11:50:32Z</time>
      </trkpt>
      <trkpt lat="44.97977" lon="6.76245">
        <ele>1998.19</ele>
        <time>2015-06-25T11:50:37Z</time>
      </trkpt>
      <trkpt lat="44.9798" lon="6.76246">
        <ele>1997.66</ele>
        <time>2015-06-25T11:50:38Z</time>
      </trkpt>
      <trkpt lat="44.98014" lon="6.76253">
        <ele>1994.09</ele>
        <time>2015-06-25T11:50:45Z</time>
      </trkpt>
      <trkpt lat="44.98029" lon="6.7626">
        <ele>1992.18</ele>
        <time>2015-06-25T11:50:49Z</time>
      </trkpt>
      <trkpt lat="44.98055" lon="6.76269">
        <ele>1988.83</ele>
        <time>2015-06-25T11:50:55Z</time>
      </trkpt>
      <trkpt lat="44.98073" lon="6.76268">
        <ele>1986.66</ele>
        <time>2015-06-25T11:50:59Z</time>
      </trkpt>
      <trkpt lat="44.981" lon="6.76269">
        <ele>1982.69</ele>
        <time>2015-06-25T11:51:05Z</time>
      </trkpt>
      <trkpt lat="44.98116" lon="6.76263">
        <ele>1980.16</ele>
        <time>2015-06-25T11:51:09Z</time>
      </trkpt>
      <trkpt lat="44.98132" lon="6.76272">
        <ele>1976.81</ele>
        <time>2015-06-25T11:51:14Z</time>
      </trkpt>
      <trkpt lat="44.9814" lon="6.76295">
        <ele>1973.98</ele>
        <time>2015-06-25T11:51:19Z</time>
      </trkpt>
      <trkpt lat="44.9815" lon="6.76304">
        <ele>1972.14</ele>
        <time>2015-06-25T11:51:22Z</time>
      </trkpt>
      <trkpt lat="44.98178" lon="6.76321">
        <ele>1968.54</ele>
        <time>2015-06-25T11:51:30Z</time>
      </trkpt>
      <trkpt lat="44.98201" lon="6.76314">
        <ele>1965.01</ele>
        <time>2015-06-25T11:51:37Z</time>
      </trkpt>
      <trkpt lat="44.98215" lon="6.76308">
        <ele>1962.71</ele>
        <time>2015-06-25T11:51:41Z</time>
      </trkpt>
      <trkpt lat="44.98222" lon="6.76277">
        <ele>1959.04</ele>
        <time>2015-06-25T11:51:48Z</time>
      </trkpt>
      <trkpt lat="44.98241" lon="6.76242">
        <ele>1955.47</ele>
        <time>2015-06-25T11:51:55Z</time>
      </trkpt>
      <trkpt lat="44.98256" lon="6.76217">
        <ele>1952.8</ele>
        <time>2015-06-25T11:52:00Z</time>
      </trkpt>
      <trkpt lat="44.98283" lon="6.762">
        <ele>1949.19</ele>
        <time>2015-06-25T11:52:07Z</time>
      </trkpt>
      <trkpt lat="44.98289" lon="6.76197">
        <ele>1947.95</ele>
        <time>2015-06-25T11:52:09Z</time>
      </trkpt>
      <trkpt lat="44.98305" lon="6.76189">
        <ele>1946.53</ele>
        <time>2015-06-25T11:52:13Z</time>
      </trkpt>
      <trkpt lat="44.98338" lon="6.76177">
        <ele>1943.06</ele>
        <time>2015-06-25T11:52:23Z</time>
      </trkpt>
      <trkpt lat="44.98342" lon="6.76179">
        <ele>1941.56</ele>
        <time>2015-06-25T11:52:36Z</time>
      </trkpt>
      <trkpt lat="44.98361" lon="6.76179">
        <ele>1941.15</ele>
        <time>2015-06-25T11:52:51Z</time>
      </trkpt>
      <trkpt lat="44.98363" lon="6.76178">
        <ele>1941.12</ele>
        <time>2015-06-25T11:52:52Z</time>
      </trkpt>
      <trkpt lat="44.98369" lon="6.76181">
        <ele>1941.1</ele>
        <time>2015-06-25T11:52:57Z</time>
      </trkpt>
      <trkpt lat="44.98383" lon="6.76189">
        <ele>1941</ele>
        <time>2015-06-25T11:53:08Z</time>
      </trkpt>
      <trkpt lat="44.984" lon="6.76199">
        <ele>1941.88</ele>
        <time>2015-06-25T11:53:24Z</time>
      </trkpt>
      <trkpt lat="44.98388" lon="6.76231">
        <ele>1942.14</ele>
        <time>2015-06-25T11:53:36Z</time>
      </trkpt>
      <trkpt lat="44.98374" lon="6.76278">
        <ele>1941.32</ele>
        <time>2015-06-25T11:53:48Z</time>
      </trkpt>
      <trkpt lat="44.98361" lon="6.76315">
        <ele>1941.66</ele>
        <time>2015-06-25T11:54:02Z</time>
      </trkpt>
      <trkpt lat="44.98373" lon="6.76337">
        <ele>1942.05</ele>
        <time>2015-06-25T11:54:14Z</time>
      </trkpt>
      <trkpt lat="44.98403" lon="6.76369">
        <ele>1941.49</ele>
        <time>2015-06-25T11:54:28Z</time>
      </trkpt>
      <trkpt lat="44.98405" lon="6.76374">
        <ele>1941.36</ele>
        <time>2015-06-25T11:54:29Z</time>
      </trkpt>
      <trkpt lat="44.9841" lon="6.76391">
        <ele>1940.6</ele>
        <time>2015-06-25T11:54:32Z</time>
      </trkpt>
      <trkpt lat="44.98414" lon="6.76422">
        <ele>1937.94</ele>
        <time>2015-06-25T11:54:37Z</time>
      </trkpt>
      <trkpt lat="44.98413" lon="6.76443">
        <ele>1935.54</ele>
        <time>2015-06-25T11:54:40Z</time>
      </trkpt>
      <trkpt lat="44.98416" lon="6.76466">
        <ele>1932.66</ele>
        <time>2015-06-25T11:54:44Z</time>
      </trkpt>
      <trkpt lat="44.98442" lon="6.76492">
        <ele>1927.31</ele>
        <time>2015-06-25T11:54:51Z</time>
      </trkpt>
      <trkpt lat="44.98454" lon="6.76506">
        <ele>1924.54</ele>
        <time>2015-06-25T11:54:54Z</time>
      </trkpt>
      <trkpt lat="44.98468" lon="6.76533">
        <ele>1920.54</ele>
        <time>2015-06-25T11:54:59Z</time>
      </trkpt>
      <trkpt lat="44.98474" lon="6.76546">
        <ele>1918.62</ele>
        <time>2015-06-25T11:55:01Z</time>
      </trkpt>
      <trkpt lat="44.98482" lon="6.76566">
        <ele>1914.67</ele>
        <time>2015-06-25T11:55:04Z</time>
      </trkpt>
      <trkpt lat="44.98486" lon="6.7662">
        <ele>1910.09</ele>
        <time>2015-06-25T11:55:09Z</time>
      </trkpt>
      <trkpt lat="44.98485" lon="6.76644">
        <ele>1908.53</ele>
        <time>2015-06-25T11:55:11Z</time>
      </trkpt>
      <trkpt lat="44.98479" lon="6.76714">
        <ele>1904.91</ele>
        <time>2015-06-25T11:55:17Z</time>
      </trkpt>
      <trkpt lat="44.98495" lon="6.76746">
        <ele>1902.78</ele>
        <time>2015-06-25T11:55:23Z</time>
      </trkpt>
      <trkpt lat="44.98501" lon="6.76749">
        <ele>1902.47</ele>
        <time>2015-06-25T11:55:24Z</time>
      </trkpt>
      <trkpt lat="44.98537" lon="6.76771">
        <ele>1898.65</ele>
        <time>2015-06-25T11:55:31Z</time>
      </trkpt>
      <trkpt lat="44.98551" lon="6.76784">
        <ele>1895.57</ele>
        <time>2015-06-25T11:55:37Z</time>
      </trkpt>
      <trkpt lat="44.98571" lon="6.76812">
        <ele>1893.07</ele>
        <time>2015-06-25T11:55:44Z</time>
      </trkpt>
      <trkpt lat="44.98584" lon="6.76826">
        <ele>1891.4</ele>
        <time>2015-06-25T11:55:48Z</time>
      </trkpt>
      <trkpt lat="44.98606" lon="6.76848">
        <ele>1888.55</ele>
        <time>2015-06-25T11:55:54Z</time>
      </trkpt>
      <trkpt lat="44.98623" lon="6.76864">
        <ele>1886.29</ele>
        <time>2015-06-25T11:55:58Z</time>
      </trkpt>
      <trkpt lat="44.98648" lon="6.76902">
        <ele>1882.17</ele>
        <time>2015-06-25T11:56:05Z</time>
      </trkpt>
      <trkpt lat="44.98683" lon="6.76906">
        <ele>1878.74</ele>
        <time>2015-06-25T11:56:13Z</time>
      </trkpt>
      <trkpt lat="44.98689" lon="6.76907">
        <ele>1878.14</ele>
        <time>2015-06-25T11:56:14Z</time>
      </trkpt>
      <trkpt lat="44.987" lon="6.76924">
        <ele>1874.29</ele>
        <time>2015-06-25T11:56:20Z</time>
      </trkpt>
      <trkpt lat="44.98688" lon="6.76954">
        <ele>1870.55</ele>
        <time>2015-06-25T11:56:29Z</time>
      </trkpt>
      <trkpt lat="44.98691" lon="6.76984">
        <ele>1867.54</ele>
        <time>2015-06-25T11:56:39Z</time>
      </trkpt>
      <trkpt lat="44.98704" lon="6.77012">
        <ele>1864.34</ele>
        <time>2015-06-25T11:56:46Z</time>
      </trkpt>
      <trkpt lat="44.98715" lon="6.77026">
        <ele>1862.21</ele>
        <time>2015-06-25T11:56:50Z</time>
      </trkpt>
      <trkpt lat="44.98716" lon="6.77032">
        <ele>1859.51</ele>
        <time>2015-06-25T11:56:56Z</time>
      </trkpt>
      <trkpt lat="44.98707" lon="6.77054">
        <ele>1856.03</ele>
        <time>2015-06-25T11:57:05Z</time>
      </trkpt>
      <trkpt lat="44.98704" lon="6.77057">
        <ele>1854.25</ele>
        <time>2015-06-25T11:57:08Z</time>
      </trkpt>
      <trkpt lat="44.98701" lon="6.77059">
        <ele>1852.47</ele>
        <time>2015-06-25T11:57:11Z</time>
      </trkpt>
      <trkpt lat="44.98694" lon="6.77063">
        <ele>1850.15</ele>
        <time>2015-06-25T11:57:15Z</time>
      </trkpt>
      <trkpt lat="44.98682" lon="6.77072">
        <ele>1846.17</ele>
        <time>2015-06-25T11:57:21Z</time>
      </trkpt>
      <trkpt lat="44.98674" lon="6.77076">
        <ele>1843.42</ele>
        <time>2015-06-25T11:57:25Z</time>
      </trkpt>
      <trkpt lat="44.98669" lon="6.7708">
        <ele>1839.36</ele>
        <time>2015-06-25T11:57:30Z</time>
      </trkpt>
      <trkpt lat="44.98666" lon="6.77086">
        <ele>1836.12</ele>
        <time>2015-06-25T11:57:36Z</time>
      </trkpt>
      <trkpt lat="44.98665" lon="6.77087">
        <ele>1835.67</ele>
        <time>2015-06-25T11:57:37Z</time>
      </trkpt>
      <trkpt lat="44.9866" lon="6.77087">
        <ele>1833.01</ele>
        <time>2015-06-25T11:57:43Z</time>
      </trkpt>
      <trkpt lat="44.98656" lon="6.77101">
        <ele>1829.7</ele>
        <time>2015-06-25T11:57:52Z</time>
      </trkpt>
      <trkpt lat="44.98652" lon="6.77108">
        <ele>1826.75</ele>
        <time>2015-06-25T11:57:56Z</time>
      </trkpt>
      <trkpt lat="44.9865" lon="6.77115">
        <ele>1823.02</ele>
        <time>2015-06-25T11:58:02Z</time>
      </trkpt>
      <trkpt lat="44.98648" lon="6.77116">
        <ele>1821.59</ele>
        <time>2015-06-25T11:58:06Z</time>
      </trkpt>
      <trkpt lat="44.98634" lon="6.7713">
        <ele>1818.24</ele>
        <time>2015-06-25T11:58:16Z</time>
      </trkpt>
      <trkpt lat="44.98629" lon="6.77133">
        <ele>1814.89</ele>
        <time>2015-06-25T11:58:20Z</time>
      </trkpt>
      <trkpt lat="44.98627" lon="6.77133">
        <ele>1811.64</ele>
        <time>2015-06-25T11:58:27Z</time>
      </trkpt>
      <trkpt lat="44.98622" lon="6.77132">
        <ele>1810.4</ele>
        <time>2015-06-25T11:58:39Z</time>
      </trkpt>
      <trkpt lat="44.9861" lon="6.77138">
        <ele>1807.21</ele>
        <time>2015-06-25T11:58:48Z</time>
      </trkpt>
      <trkpt lat="44.98603" lon="6.77142">
        <ele>1804.77</ele>
        <time>2015-06-25T11:58:53Z</time>
      </trkpt>
      <trkpt lat="44.98607" lon="6.77156">
        <ele>1801.36</ele>
        <time>2015-06-25T11:59:02Z</time>
      </trkpt>
      <trkpt lat="44.98627" lon="6.77181">
        <ele>1798.15</ele>
        <time>2015-06-25T11:59:16Z</time>
      </trkpt>
      <trkpt lat="44.98644" lon="6.77216">
        <ele>1794.96</ele>
        <time>2015-06-25T11:59:27Z</time>
      </trkpt>
      <trkpt lat="44.98646" lon="6.77221">
        <ele>1794.3</ele>
        <time>2015-06-25T11:59:29Z</time>
      </trkpt>
      <trkpt lat="44.98643" lon="6.77227">
        <ele>1792.69</ele>
        <time>2015-06-25T11:59:33Z</time>
      </trkpt>
      <trkpt lat="44.98631" lon="6.77219">
        <ele>1789.72</ele>
        <time>2015-06-25T11:59:41Z</time>
      </trkpt>
      <trkpt lat="44.98603" lon="6.77216">
        <ele>1785.95</ele>
        <time>2015-06-25T11:59:51Z</time>
      </trkpt>
      <trkpt lat="44.98591" lon="6.77225">
        <ele>1782.66</ele>
        <time>2015-06-25T11:59:57Z</time>
      </trkpt>
      <trkpt lat="44.98583" lon="6.77236">
        <ele>1779.05</ele>
        <time>2015-06-25T12:00:03Z</time>
      </trkpt>
      <trkpt lat="44.98582" lon="6.77242">
        <ele>1777.02</ele>
        <time>2015-06-25T12:00:06Z</time>
      </trkpt>
      <trkpt lat="44.98575" lon="6.77251">
        <ele>1773.08</ele>
        <time>2015-06-25T12:00:13Z</time>
      </trkpt>
      <trkpt lat="44.98566" lon="6.77261">
        <ele>1769.37</ele>
        <time>2015-06-25T12:00:20Z</time>
      </trkpt>
      <trkpt lat="44.98566" lon="6.77261">
        <ele>1767.66</ele>
        <time>2015-06-25T12:00:24Z</time>
      </trkpt>
      <trkpt lat="44.98566" lon="6.77264">
        <ele>1766.67</ele>
        <time>2015-06-25T12:00:48Z</time>
      </trkpt>
      <trkpt lat="44.98573" lon="6.77288">
        <ele>1763.71</ele>
        <time>2015-06-25T12:00:58Z</time>
      </trkpt>
      <trkpt lat="44.98576" lon="6.77294">
        <ele>1762.17</ele>
        <time>2015-06-25T12:01:01Z</time>
      </trkpt>
      <trkpt lat="44.98578" lon="6.77306">
        <ele>1759.71</ele>
        <time>2015-06-25T12:01:06Z</time>
      </trkpt>
      <trkpt lat="44.98588" lon="6.77326">
        <ele>1755.89</ele>
        <time>2015-06-25T12:01:13Z</time>
      </trkpt>
      <trkpt lat="44.98609" lon="6.77338">
        <ele>1753.21</ele>
        <time>2015-06-25T12:01:22Z</time>
      </trkpt>
      <trkpt lat="44.98616" lon="6.77372">
        <ele>1749.85</ele>
        <time>2015-06-25T12:01:30Z</time>
      </trkpt>
      <trkpt lat="44.98636" lon="6.774">
        <ele>1746.6</ele>
        <time>2015-06-25T12:01:37Z</time>
      </trkpt>
      <trkpt lat="44.98639" lon="6.77404">
        <ele>1745.99</ele>
        <time>2015-06-25T12:01:38Z</time>
      </trkpt>
      <trkpt lat="44.98629" lon="6.77419">
        <ele>1741.48</ele>
        <time>2015-06-25T12:01:45Z</time>
      </trkpt>
      <trkpt lat="44.98613" lon="6.77407">
        <ele>1738.77</ele>
        <time>2015-06-25T12:01:51Z</time>
      </trkpt>
      <trkpt lat="44.98584" lon="6.7738">
        <ele>1735.24</ele>
        <time>2015-06-25T12:02:01Z</time>
      </trkpt>
      <trkpt lat="44.98554" lon="6.77371">
        <ele>1732.61</ele>
        <time>2015-06-25T12:02:09Z</time>
      </trkpt>
      <trkpt lat="44.9854" lon="6.77373">
        <ele>1731.4</ele>
        <time>2015-06-25T12:02:12Z</time>
      </trkpt>
      <trkpt lat="44.9852" lon="6.77375">
        <ele>1729.57</ele>
        <time>2015-06-25T12:02:16Z</time>
      </trkpt>
      <trkpt lat="44.98498" lon="6.77366">
        <ele>1725.48</ele>
        <time>2015-06-25T12:02:23Z</time>
      </trkpt>
      <trkpt lat="44.98497" lon="6.77366">
        <ele>1724.97</ele>
        <time>2015-06-25T12:02:24Z</time>
      </trkpt>
      <trkpt lat="44.98504" lon="6.77387">
        <ele>1721.2</ele>
        <time>2015-06-25T12:02:32Z</time>
      </trkpt>
      <trkpt lat="44.98516" lon="6.77395">
        <ele>1717.78</ele>
        <time>2015-06-25T12:02:38Z</time>
      </trkpt>
      <trkpt lat="44.98519" lon="6.77397">
        <ele>1717.21</ele>
        <time>2015-06-25T12:02:39Z</time>
      </trkpt>
      <trkpt lat="44.9853" lon="6.77406">
        <ele>1713.31</ele>
        <time>2015-06-25T12:02:47Z</time>
      </trkpt>
      <trkpt lat="44.98538" lon="6.77415">
        <ele>1711.74</ele>
        <time>2015-06-25T12:02:51Z</time>
      </trkpt>
      <trkpt lat="44.9855" lon="6.77425">
        <ele>1707.88</ele>
        <time>2015-06-25T12:02:58Z</time>
      </trkpt>
      <trkpt lat="44.98559" lon="6.77445">
        <ele>1705.79</ele>
        <time>2015-06-25T12:03:03Z</time>
      </trkpt>
      <trkpt lat="44.98565" lon="6.77489">
        <ele>1701.89</ele>
        <time>2015-06-25T12:03:11Z</time>
      </trkpt>
      <trkpt lat="44.98577" lon="6.7751">
        <ele>1699.19</ele>
        <time>2015-06-25T12:03:16Z</time>
      </trkpt>
      <trkpt lat="44.98582" lon="6.7753">
        <ele>1695.94</ele>
        <time>2015-06-25T12:03:22Z</time>
      </trkpt>
      <trkpt lat="44.98584" lon="6.77544">
        <ele>1694.42</ele>
        <time>2015-06-25T12:03:25Z</time>
      </trkpt>
      <trkpt lat="44.98582" lon="6.7757">
        <ele>1690.77</ele>
        <time>2015-06-25T12:03:30Z</time>
      </trkpt>
      <trkpt lat="44.98576" lon="6.77574">
        <ele>1687.96</ele>
        <time>2015-06-25T12:03:34Z</time>
      </trkpt>
      <trkpt lat="44.98564" lon="6.7759">
        <ele>1684.04</ele>
        <time>2015-06-25T12:03:42Z</time>
      </trkpt>
      <trkpt lat="44.98564" lon="6.77597">
        <ele>1682.24</ele>
        <time>2015-06-25T12:03:45Z</time>
      </trkpt>
      <trkpt lat="44.98564" lon="6.77602">
        <ele>1680.22</ele>
        <time>2015-06-25T12:03:47Z</time>
      </trkpt>
      <trkpt lat="44.98566" lon="6.77612">
        <ele>1678.33</ele>
        <time>2015-06-25T12:03:50Z</time>
      </trkpt>
      <trkpt lat="44.98576" lon="6.7763">
        <ele>1674.4</ele>
        <time>2015-06-25T12:03:56Z</time>
      </trkpt>
      <trkpt lat="44.98581" lon="6.77652">
        <ele>1671.31</ele>
        <time>2015-06-25T12:04:03Z</time>
      </trkpt>
      <trkpt lat="44.98591" lon="6.77673">
        <ele>1667.86</ele>
        <time>2015-06-25T12:04:11Z</time>
      </trkpt>
      <trkpt lat="44.986" lon="6.7769">
        <ele>1665.42</ele>
        <time>2015-06-25T12:04:17Z</time>
      </trkpt>
      <trkpt lat="44.98621" lon="6.77711">
        <ele>1661.81</ele>
        <time>2015-06-25T12:04:28Z</time>
      </trkpt>
      <trkpt lat="44.9864" lon="6.77739">
        <ele>1658.82</ele>
        <time>2015-06-25T12:04:37Z</time>
      </trkpt>
      <trkpt lat="44.98638" lon="6.77775">
        <ele>1655.7</ele>
        <time>2015-06-25T12:04:46Z</time>
      </trkpt>
      <trkpt lat="44.98639" lon="6.77784">
        <ele>1653.24</ele>
        <time>2015-06-25T12:04:58Z</time>
      </trkpt>
      <trkpt lat="44.98636" lon="6.77788">
        <ele>1652.96</ele>
        <time>2015-06-25T12:05:17Z</time>
      </trkpt>
      <trkpt lat="44.98637" lon="6.77793">
        <ele>1652.29</ele>
        <time>2015-06-25T12:05:38Z</time>
      </trkpt>
      <trkpt lat="44.98635" lon="6.77795">
        <ele>1651.63</ele>
        <time>2015-06-25T12:05:40Z</time>
      </trkpt>
      <trkpt lat="44.9862" lon="6.77813">
        <ele>1647.61</ele>
        <time>2015-06-25T12:05:47Z</time>
      </trkpt>
      <trkpt lat="44.98617" lon="6.77819">
        <ele>1645.99</ele>
        <time>2015-06-25T12:05:49Z</time>
      </trkpt>
      <trkpt lat="44.98605" lon="6.77831">
        <ele>1640.97</ele>
        <time>2015-06-25T12:05:55Z</time>
      </trkpt>
      <trkpt lat="44.98599" lon="6.77841">
        <ele>1637.42</ele>
        <time>2015-06-25T12:05:59Z</time>
      </trkpt>
      <trkpt lat="44.98594" lon="6.77849">
        <ele>1633.74</ele>
        <time>2015-06-25T12:06:03Z</time>
      </trkpt>
      <trkpt lat="44.98588" lon="6.77858">
        <ele>1630.04</ele>
        <time>2015-06-25T12:06:07Z</time>
      </trkpt>
      <trkpt lat="44.98585" lon="6.7786">
        <ele>1626.59</ele>
        <time>2015-06-25T12:06:11Z</time>
      </trkpt>
      <trkpt lat="44.98583" lon="6.77863">
        <ele>1623</ele>
        <time>2015-06-25T12:06:16Z</time>
      </trkpt>
      <trkpt lat="44.98582" lon="6.77863">
        <ele>1622.39</ele>
        <time>2015-06-25T12:06:18Z</time>
      </trkpt>
      <trkpt lat="44.9858" lon="6.77869">
        <ele>1619.33</ele>
        <time>2015-06-25T12:06:27Z</time>
      </trkpt>
      <trkpt lat="44.9858" lon="6.7788">
        <ele>1617.61</ele>
        <time>2015-06-25T12:06:38Z</time>
      </trkpt>
      <trkpt lat="44.98579" lon="6.77882">
        <ele>1616.24</ele>
        <time>2015-06-25T12:06:45Z</time>
      </trkpt>
      <trkpt lat="44.98558" lon="6.77886">
        <ele>1614.86</ele>
        <time>2015-06-25T12:06:56Z</time>
      </trkpt>
      <trkpt lat="44.98558" lon="6.7791">
        <ele>1613.03</ele>
        <time>2015-06-25T12:07:02Z</time>
      </trkpt>
      <trkpt lat="44.9857" lon="6.77944">
        <ele>1609.51</ele>
        <time>2015-06-25T12:07:10Z</time>
      </trkpt>
      <trkpt lat="44.98576" lon="6.7796">
        <ele>1608.07</ele>
        <time>2015-06-25T12:07:13Z</time>
      </trkpt>
      <trkpt lat="44.98592" lon="6.78005">
        <ele>1604.03</ele>
        <time>2015-06-25T12:07:20Z</time>
      </trkpt>
      <trkpt lat="44.986" lon="6.78037">
        <ele>1599.86</ele>
        <time>2015-06-25T12:07:25Z</time>
      </trkpt>
      <trkpt lat="44.98603" lon="6.78055">
        <ele>1597.48</ele>
        <time>2015-06-25T12:07:28Z</time>
      </trkpt>
      <trkpt lat="44.98611" lon="6.78082">
        <ele>1593.4</ele>
        <time>2015-06-25T12:07:32Z</time>
      </trkpt>
      <trkpt lat="44.98615" lon="6.78097">
        <ele>1591.82</ele>
        <time>2015-06-25T12:07:34Z</time>
      </trkpt>
      <trkpt lat="44.98619" lon="6.7811">
        <ele>1590.28</ele>
        <time>2015-06-25T12:07:36Z</time>
      </trkpt>
      <trkpt lat="44.98623" lon="6.78122">
        <ele>1588.8</ele>
        <time>2015-06-25T12:07:38Z</time>
      </trkpt>
      <trkpt lat="44.98626" lon="6.78161">
        <ele>1584.94</ele>
        <time>2015-06-25T12:07:44Z</time>
      </trkpt>
      <trkpt lat="44.98626" lon="6.78165">
        <ele>1584.48</ele>
        <time>2015-06-25T12:07:45Z</time>
      </trkpt>
      <trkpt lat="44.98627" lon="6.78176">
        <ele>1580.94</ele>
        <time>2015-06-25T12:07:55Z</time>
      </trkpt>
      <trkpt lat="44.98625" lon="6.78176">
        <ele>1580.09</ele>
        <time>2015-06-25T12:08:36Z</time>
      </trkpt>
      <trkpt lat="44.98625" lon="6.78184">
        <ele>1580.17</ele>
        <time>2015-06-25T12:08:52Z</time>
      </trkpt>
      <trkpt lat="44.98626" lon="6.78221">
        <ele>1578.98</ele>
        <time>2015-06-25T12:08:59Z</time>
      </trkpt>
      <trkpt lat="44.98632" lon="6.78254">
        <ele>1576.72</ele>
        <time>2015-06-25T12:09:05Z</time>
      </trkpt>
      <trkpt lat="44.98647" lon="6.78274">
        <ele>1575.04</ele>
        <time>2015-06-25T12:09:09Z</time>
      </trkpt>
      <trkpt lat="44.9867" lon="6.78302">
        <ele>1571.14</ele>
        <time>2015-06-25T12:09:16Z</time>
      </trkpt>
      <trkpt lat="44.98675" lon="6.78304">
        <ele>1568.95</ele>
        <time>2015-06-25T12:09:20Z</time>
      </trkpt>
      <trkpt lat="44.98686" lon="6.7829">
        <ele>1569.28</ele>
        <time>2015-06-25T12:09:34Z</time>
      </trkpt>
      <trkpt lat="44.98688" lon="6.7829">
        <ele>1570.04</ele>
        <time>2015-06-25T12:09:38Z</time>
      </trkpt>
      <trkpt lat="44.98693" lon="6.7831">
        <ele>1571.96</ele>
        <time>2015-06-25T12:09:52Z</time>
      </trkpt>
      <trkpt lat="44.98694" lon="6.78316">
        <ele>1572.55</ele>
        <time>2015-06-25T12:09:57Z</time>
      </trkpt>
      <trkpt lat="44.98697" lon="6.7835">
        <ele>1572.21</ele>
        <time>2015-06-25T12:10:10Z</time>
      </trkpt>
      <trkpt lat="44.98696" lon="6.78381">
        <ele>1571.8</ele>
        <time>2015-06-25T12:10:21Z</time>
      </trkpt>
      <trkpt lat="44.98689" lon="6.78429">
        <ele>1570.6</ele>
        <time>2015-06-25T12:10:33Z</time>
      </trkpt>
      <trkpt lat="44.98687" lon="6.78451">
        <ele>1571.19</ele>
        <time>2015-06-25T12:10:42Z</time>
      </trkpt>
      <trkpt lat="44.98687" lon="6.78457">
        <ele>1570.93</ele>
        <time>2015-06-25T12:10:46Z</time>
      </trkpt>
      <trkpt lat="44.98683" lon="6.78484">
        <ele>1569.73</ele>
        <time>2015-06-25T12:10:56Z</time>
      </trkpt>
      <trkpt lat="44.98675" lon="6.78506">
        <ele>1569.82</ele>
        <time>2015-06-25T12:11:05Z</time>
      </trkpt>
      <trkpt lat="44.98673" lon="6.78508">
        <ele>1569.92</ele>
        <time>2015-06-25T12:11:06Z</time>
      </trkpt>
      <trkpt lat="44.98651" lon="6.78535">
        <ele>1571.57</ele>
        <time>2015-06-25T12:11:23Z</time>
      </trkpt>
      <trkpt lat="44.98641" lon="6.78554">
        <ele>1573.28</ele>
        <time>2015-06-25T12:11:34Z</time>
      </trkpt>
      <trkpt lat="44.9864" lon="6.78572">
        <ele>1575.55</ele>
        <time>2015-06-25T12:11:49Z</time>
      </trkpt>
      <trkpt lat="44.98637" lon="6.78574">
        <ele>1576.28</ele>
        <time>2015-06-25T12:12:47Z</time>
      </trkpt>
      <trkpt lat="44.98636" lon="6.78579">
        <ele>1576.84</ele>
        <time>2015-06-25T12:13:06Z</time>
      </trkpt>
      <trkpt lat="44.98636" lon="6.7861">
        <ele>1576.25</ele>
        <time>2015-06-25T12:13:17Z</time>
      </trkpt>
      <trkpt lat="44.98653" lon="6.78639">
        <ele>1574.35</ele>
        <time>2015-06-25T12:13:27Z</time>
      </trkpt>
      <trkpt lat="44.98663" lon="6.78653">
        <ele>1573.88</ele>
        <time>2015-06-25T12:13:34Z</time>
      </trkpt>
      <trkpt lat="44.98673" lon="6.78658">
        <ele>1573.8</ele>
        <time>2015-06-25T12:13:40Z</time>
      </trkpt>
      <trkpt lat="44.9869" lon="6.78666">
        <ele>1574.47</ele>
        <time>2015-06-25T12:13:52Z</time>
      </trkpt>
      <trkpt lat="44.98712" lon="6.78676">
        <ele>1573.18</ele>
        <time>2015-06-25T12:14:02Z</time>
      </trkpt>
      <trkpt lat="44.98734" lon="6.78698">
        <ele>1571.37</ele>
        <time>2015-06-25T12:14:13Z</time>
      </trkpt>
      <trkpt lat="44.98741" lon="6.78722">
        <ele>1571.66</ele>
        <time>2015-06-25T12:14:23Z</time>
      </trkpt>
      <trkpt lat="44.98742" lon="6.78747">
        <ele>1572.26</ele>
        <time>2015-06-25T12:14:36Z</time>
      </trkpt>
      <trkpt lat="44.98741" lon="6.78754">
        <ele>1572.44</ele>
        <time>2015-06-25T12:14:41Z</time>
      </trkpt>
      <trkpt lat="44.98742" lon="6.78765">
        <ele>1572.75</ele>
        <time>2015-06-25T12:14:46Z</time>
      </trkpt>
      <trkpt lat="44.98734" lon="6.78808">
        <ele>1574.58</ele>
        <time>2015-06-25T12:15:00Z</time>
      </trkpt>
      <trkpt lat="44.9873" lon="6.78843">
        <ele>1573.83</ele>
        <time>2015-06-25T12:15:10Z</time>
      </trkpt>
      <trkpt lat="44.98729" lon="6.78854">
        <ele>1574.82</ele>
        <time>2015-06-25T12:15:22Z</time>
      </trkpt>
      <trkpt lat="44.98727" lon="6.78867">
        <ele>1576.52</ele>
        <time>2015-06-25T12:15:35Z</time>
      </trkpt>
      <trkpt lat="44.98726" lon="6.78898">
        <ele>1578.19</ele>
        <time>2015-06-25T12:15:49Z</time>
      </trkpt>
      <trkpt lat="44.98725" lon="6.78917">
        <ele>1580.33</ele>
        <time>2015-06-25T12:15:59Z</time>
      </trkpt>
      <trkpt lat="44.98725" lon="6.78927">
        <ele>1581.47</ele>
        <time>2015-06-25T12:16:05Z</time>
      </trkpt>
      <trkpt lat="44.98733" lon="6.78975">
        <ele>1582.28</ele>
        <time>2015-06-25T12:16:17Z</time>
      </trkpt>
      <trkpt lat="44.98736" lon="6.79026">
        <ele>1581.11</ele>
        <time>2015-06-25T12:16:29Z</time>
      </trkpt>
      <trkpt lat="44.98734" lon="6.79035">
        <ele>1580.86</ele>
        <time>2015-06-25T12:16:51Z</time>
      </trkpt>
      <trkpt lat="44.98736" lon="6.79055">
        <ele>1581.91</ele>
        <time>2015-06-25T12:17:00Z</time>
      </trkpt>
      <trkpt lat="44.98742" lon="6.79078">
        <ele>1584.19</ele>
        <time>2015-06-25T12:17:11Z</time>
      </trkpt>
      <trkpt lat="44.98746" lon="6.79103">
        <ele>1585.56</ele>
        <time>2015-06-25T12:17:22Z</time>
      </trkpt>
      <trkpt lat="44.98748" lon="6.79106">
        <ele>1585.79</ele>
        <time>2015-06-25T12:17:25Z</time>
      </trkpt>
      <trkpt lat="44.98749" lon="6.79115">
        <ele>1585.88</ele>
        <time>2015-06-25T12:17:31Z</time>
      </trkpt>
      <trkpt lat="44.98755" lon="6.79131">
        <ele>1584.92</ele>
        <time>2015-06-25T12:17:41Z</time>
      </trkpt>
      <trkpt lat="44.98769" lon="6.7913">
        <ele>1586.12</ele>
        <time>2015-06-25T12:17:55Z</time>
      </trkpt>
      <trkpt lat="44.98786" lon="6.79121">
        <ele>1589.54</ele>
        <time>2015-06-25T12:18:11Z</time>
      </trkpt>
      <trkpt lat="44.98797" lon="6.79118">
        <ele>1592.25</ele>
        <time>2015-06-25T12:18:21Z</time>
      </trkpt>
      <trkpt lat="44.98805" lon="6.7913">
        <ele>1594.36</ele>
        <time>2015-06-25T12:18:35Z</time>
      </trkpt>
      <trkpt lat="44.98813" lon="6.79156">
        <ele>1594.99</ele>
        <time>2015-06-25T12:18:53Z</time>
      </trkpt>
      <trkpt lat="44.98819" lon="6.79182">
        <ele>1596.25</ele>
        <time>2015-06-25T12:19:07Z</time>
      </trkpt>
      <trkpt lat="44.98824" lon="6.79187">
        <ele>1597.66</ele>
        <time>2015-06-25T12:19:13Z</time>
      </trkpt>
      <trkpt lat="44.98835" lon="6.79197">
        <ele>1600.41</ele>
        <time>2015-06-25T12:19:25Z</time>
      </trkpt>
      <trkpt lat="44.98838" lon="6.79205">
        <ele>1602.05</ele>
        <time>2015-06-25T12:19:33Z</time>
      </trkpt>
      <trkpt lat="44.98841" lon="6.792">
        <ele>1602.77</ele>
        <time>2015-06-25T12:19:49Z</time>
      </trkpt>
      <trkpt lat="44.98839" lon="6.79199">
        <ele>1602.39</ele>
        <time>2015-06-25T12:20:32Z</time>
      </trkpt>
      <trkpt lat="44.98858" lon="6.792">
        <ele>1603</ele>
        <time>2015-06-25T12:20:50Z</time>
      </trkpt>
      <trkpt lat="44.98882" lon="6.79202">
        <ele>1602.61</ele>
        <time>2015-06-25T12:21:03Z</time>
      </trkpt>
      <trkpt lat="44.98887" lon="6.79202">
        <ele>1602.23</ele>
        <time>2015-06-25T12:21:05Z</time>
      </trkpt>
      <trkpt lat="44.98899" lon="6.79203">
        <ele>1600.24</ele>
        <time>2015-06-25T12:21:10Z</time>
      </trkpt>
      <trkpt lat="44.9892" lon="6.79208">
        <ele>1596.28</ele>
        <time>2015-06-25T12:21:16Z</time>
      </trkpt>
      <trkpt lat="44.98933" lon="6.79219">
        <ele>1592.64</ele>
        <time>2015-06-25T12:21:20Z</time>
      </trkpt>
      <trkpt lat="44.98939" lon="6.79223">
        <ele>1590.53</ele>
        <time>2015-06-25T12:21:22Z</time>
      </trkpt>
      <trkpt lat="44.98947" lon="6.79236">
        <ele>1586.39</ele>
        <time>2015-06-25T12:21:26Z</time>
      </trkpt>
      <trkpt lat="44.98951" lon="6.79247">
        <ele>1583.34</ele>
        <time>2015-06-25T12:21:29Z</time>
      </trkpt>
      <trkpt lat="44.98956" lon="6.79264">
        <ele>1580.74</ele>
        <time>2015-06-25T12:21:32Z</time>
      </trkpt>
      <trkpt lat="44.98957" lon="6.79286">
        <ele>1575.78</ele>
        <time>2015-06-25T12:21:36Z</time>
      </trkpt>
      <trkpt lat="44.98958" lon="6.79296">
        <ele>1573.92</ele>
        <time>2015-06-25T12:21:38Z</time>
      </trkpt>
      <trkpt lat="44.98954" lon="6.79326">
        <ele>1570.36</ele>
        <time>2015-06-25T12:21:42Z</time>
      </trkpt>
      <trkpt lat="44.98941" lon="6.79362">
        <ele>1567.65</ele>
        <time>2015-06-25T12:21:46Z</time>
      </trkpt>
      <trkpt lat="44.98936" lon="6.79399">
        <ele>1563.83</ele>
        <time>2015-06-25T12:21:52Z</time>
      </trkpt>
      <trkpt lat="44.98936" lon="6.79409">
        <ele>1560.77</ele>
        <time>2015-06-25T12:21:59Z</time>
      </trkpt>
      <trkpt lat="44.98937" lon="6.79414">
        <ele>1559.69</ele>
        <time>2015-06-25T12:22:17Z</time>
      </trkpt>
      <trkpt lat="44.98936" lon="6.79413">
        <ele>1559.55</ele>
        <time>2015-06-25T12:22:22Z</time>
      </trkpt>
      <trkpt lat="44.98938" lon="6.79399">
        <ele>1559.09</ele>
        <time>2015-06-25T12:22:27Z</time>
      </trkpt>
      <trkpt lat="44.98949" lon="6.79373">
        <ele>1558.48</ele>
        <time>2015-06-25T12:22:38Z</time>
      </trkpt>
      <trkpt lat="44.98962" lon="6.79348">
        <ele>1558.8</ele>
        <time>2015-06-25T12:22:47Z</time>
      </trkpt>
      <trkpt lat="44.98978" lon="6.79306">
        <ele>1557.9</ele>
        <time>2015-06-25T12:22:57Z</time>
      </trkpt>
      <trkpt lat="44.98992" lon="6.79258">
        <ele>1557.44</ele>
        <time>2015-06-25T12:23:08Z</time>
      </trkpt>
      <trkpt lat="44.98996" lon="6.79249">
        <ele>1557.65</ele>
        <time>2015-06-25T12:23:14Z</time>
      </trkpt>
      <trkpt lat="44.99005" lon="6.79233">
        <ele>1559.42</ele>
        <time>2015-06-25T12:23:20Z</time>
      </trkpt>
      <trkpt lat="44.99022" lon="6.79224">
        <ele>1560.13</ele>
        <time>2015-06-25T12:23:29Z</time>
      </trkpt>
      <trkpt lat="44.9903" lon="6.79217">
        <ele>1563.3</ele>
        <time>2015-06-25T12:23:38Z</time>
      </trkpt>
      <trkpt lat="44.99033" lon="6.79212">
        <ele>1564.13</ele>
        <time>2015-06-25T12:23:41Z</time>
      </trkpt>
      <trkpt lat="44.99058" lon="6.792">
        <ele>1567.42</ele>
        <time>2015-06-25T12:24:00Z</time>
      </trkpt>
      <trkpt lat="44.99061" lon="6.792">
        <ele>1568.02</ele>
        <time>2015-06-25T12:24:03Z</time>
      </trkpt>
      <trkpt lat="44.99093" lon="6.79188">
        <ele>1568.73</ele>
        <time>2015-06-25T12:24:19Z</time>
      </trkpt>
      <trkpt lat="44.991" lon="6.79183">
        <ele>1568.48</ele>
        <time>2015-06-25T12:24:21Z</time>
      </trkpt>
      <trkpt lat="44.99136" lon="6.79151">
        <ele>1566.14</ele>
        <time>2015-06-25T12:24:30Z</time>
      </trkpt>
      <trkpt lat="44.99159" lon="6.79118">
        <ele>1564.99</ele>
        <time>2015-06-25T12:24:37Z</time>
      </trkpt>
      <trkpt lat="44.99172" lon="6.79092">
        <ele>1564.22</ele>
        <time>2015-06-25T12:24:41Z</time>
      </trkpt>
      <trkpt lat="44.99197" lon="6.79047">
        <ele>1562.31</ele>
        <time>2015-06-25T12:24:49Z</time>
      </trkpt>
      <trkpt lat="44.99201" lon="6.79043">
        <ele>1562.14</ele>
        <time>2015-06-25T12:24:51Z</time>
      </trkpt>
      <trkpt lat="44.9921" lon="6.79022">
        <ele>1563.94</ele>
        <time>2015-06-25T12:25:02Z</time>
      </trkpt>
      <trkpt lat="44.99223" lon="6.79015">
        <ele>1564.48</ele>
        <time>2015-06-25T12:25:10Z</time>
      </trkpt>
      <trkpt lat="44.9923" lon="6.79007">
        <ele>1564.76</ele>
        <time>2015-06-25T12:25:14Z</time>
      </trkpt>
      <trkpt lat="44.99249" lon="6.78968">
        <ele>1564.61</ele>
        <time>2015-06-25T12:25:24Z</time>
      </trkpt>
      <trkpt lat="44.99248" lon="6.78964">
        <ele>1564.52</ele>
        <time>2015-06-25T12:25:26Z</time>
      </trkpt>
      <trkpt lat="44.99262" lon="6.78939">
        <ele>1564.57</ele>
        <time>2015-06-25T12:25:39Z</time>
      </trkpt>
      <trkpt lat="44.99269" lon="6.78922">
        <ele>1566.68</ele>
        <time>2015-06-25T12:25:46Z</time>
      </trkpt>
      <trkpt lat="44.99275" lon="6.78896">
        <ele>1569.28</ele>
        <time>2015-06-25T12:25:57Z</time>
      </trkpt>
      <trkpt lat="44.99278" lon="6.78871">
        <ele>1569.8</ele>
        <time>2015-06-25T12:26:07Z</time>
      </trkpt>
      <trkpt lat="44.99284" lon="6.78853">
        <ele>1569.59</ele>
        <time>2015-06-25T12:26:14Z</time>
      </trkpt>
      <trkpt lat="44.99291" lon="6.78842">
        <ele>1570.08</ele>
        <time>2015-06-25T12:26:20Z</time>
      </trkpt>
      <trkpt lat="44.99295" lon="6.78837">
        <ele>1570.52</ele>
        <time>2015-06-25T12:26:23Z</time>
      </trkpt>
      <trkpt lat="44.99302" lon="6.78824">
        <ele>1571.42</ele>
        <time>2015-06-25T12:26:29Z</time>
      </trkpt>
      <trkpt lat="44.9931" lon="6.78778">
        <ele>1571.67</ele>
        <time>2015-06-25T12:26:40Z</time>
      </trkpt>
      <trkpt lat="44.99311" lon="6.78743">
        <ele>1571.13</ele>
        <time>2015-06-25T12:26:50Z</time>
      </trkpt>
      <trkpt lat="44.99305" lon="6.78725">
        <ele>1571.11</ele>
        <time>2015-06-25T12:26:57Z</time>
      </trkpt>
      <trkpt lat="44.99296" lon="6.78687">
        <ele>1571.55</ele>
        <time>2015-06-25T12:27:09Z</time>
      </trkpt>
      <trkpt lat="44.99299" lon="6.78677">
        <ele>1571.37</ele>
        <time>2015-06-25T12:27:12Z</time>
      </trkpt>
      <trkpt lat="44.99303" lon="6.78671">
        <ele>1571.12</ele>
        <time>2015-06-25T12:27:14Z</time>
      </trkpt>
      <trkpt lat="44.99323" lon="6.78647">
        <ele>1570.11</ele>
        <time>2015-06-25T12:27:23Z</time>
      </trkpt>
      <trkpt lat="44.99325" lon="6.78634">
        <ele>1569.53</ele>
        <time>2015-06-25T12:27:25Z</time>
      </trkpt>
      <trkpt lat="44.99323" lon="6.78586">
        <ele>1566.02</ele>
        <time>2015-06-25T12:27:32Z</time>
      </trkpt>
      <trkpt lat="44.9932" lon="6.78576">
        <ele>1565.05</ele>
        <time>2015-06-25T12:27:34Z</time>
      </trkpt>
      <trkpt lat="44.9931" lon="6.78545">
        <ele>1560.86</ele>
        <time>2015-06-25T12:27:40Z</time>
      </trkpt>
      <trkpt lat="44.99305" lon="6.78531">
        <ele>1557.67</ele>
        <time>2015-06-25T12:27:44Z</time>
      </trkpt>
      <trkpt lat="44.99308" lon="6.78521">
        <ele>1553.56</ele>
        <time>2015-06-25T12:27:50Z</time>
      </trkpt>
      <trkpt lat="44.99327" lon="6.78504">
        <ele>1551.22</ele>
        <time>2015-06-25T12:27:56Z</time>
      </trkpt>
      <trkpt lat="44.99344" lon="6.78495">
        <ele>1548.77</ele>
        <time>2015-06-25T12:28:00Z</time>
      </trkpt>
      <trkpt lat="44.99364" lon="6.78476">
        <ele>1546.15</ele>
        <time>2015-06-25T12:28:05Z</time>
      </trkpt>
      <trkpt lat="44.99377" lon="6.78453">
        <ele>1543.91</ele>
        <time>2015-06-25T12:28:09Z</time>
      </trkpt>
      <trkpt lat="44.99384" lon="6.78424">
        <ele>1539.62</ele>
        <time>2015-06-25T12:28:15Z</time>
      </trkpt>
      <trkpt lat="44.9939" lon="6.78419">
        <ele>1537.19</ele>
        <time>2015-06-25T12:28:19Z</time>
      </trkpt>
      <trkpt lat="44.99397" lon="6.78416">
        <ele>1534.55</ele>
        <time>2015-06-25T12:28:25Z</time>
      </trkpt>
      <trkpt lat="44.99412" lon="6.78424">
        <ele>1534.56</ele>
        <time>2015-06-25T12:28:41Z</time>
      </trkpt>
      <trkpt lat="44.99419" lon="6.78436">
        <ele>1537.81</ele>
        <time>2015-06-25T12:28:53Z</time>
      </trkpt>
      <trkpt lat="44.9943" lon="6.78441">
        <ele>1540.87</ele>
        <time>2015-06-25T12:29:07Z</time>
      </trkpt>
      <trkpt lat="44.99437" lon="6.78448">
        <ele>1542.45</ele>
        <time>2015-06-25T12:29:23Z</time>
      </trkpt>
      <trkpt lat="44.99439" lon="6.78449">
        <ele>1542.31</ele>
        <time>2015-06-25T12:29:50Z</time>
      </trkpt>
      <trkpt lat="44.99438" lon="6.78451">
        <ele>1542.27</ele>
        <time>2015-06-25T12:30:36Z</time>
      </trkpt>
      <trkpt lat="44.99453" lon="6.78463">
        <ele>1542.22</ele>
        <time>2015-06-25T12:30:49Z</time>
      </trkpt>
      <trkpt lat="44.99465" lon="6.78475">
        <ele>1541.91</ele>
        <time>2015-06-25T12:30:56Z</time>
      </trkpt>
      <trkpt lat="44.99472" lon="6.78488">
        <ele>1541.17</ele>
        <time>2015-06-25T12:31:00Z</time>
      </trkpt>
      <trkpt lat="44.99496" lon="6.78513">
        <ele>1538.06</ele>
        <time>2015-06-25T12:31:09Z</time>
      </trkpt>
      <trkpt lat="44.99501" lon="6.7852">
        <ele>1537.78</ele>
        <time>2015-06-25T12:31:13Z</time>
      </trkpt>
      <trkpt lat="44.99513" lon="6.78542">
        <ele>1539.48</ele>
        <time>2015-06-25T12:31:26Z</time>
      </trkpt>
      <trkpt lat="44.99516" lon="6.78547">
        <ele>1540.02</ele>
        <time>2015-06-25T12:31:29Z</time>
      </trkpt>
      <trkpt lat="44.99524" lon="6.78572">
        <ele>1543.36</ele>
        <time>2015-06-25T12:31:44Z</time>
      </trkpt>
      <trkpt lat="44.99531" lon="6.78584">
        <ele>1545.35</ele>
        <time>2015-06-25T12:31:56Z</time>
      </trkpt>
      <trkpt lat="44.99543" lon="6.78578">
        <ele>1548.31</ele>
        <time>2015-06-25T12:32:15Z</time>
      </trkpt>
      <trkpt lat="44.9955" lon="6.78574">
        <ele>1549.66</ele>
        <time>2015-06-25T12:32:25Z</time>
      </trkpt>
      <trkpt lat="44.99552" lon="6.78573">
        <ele>1549.89</ele>
        <time>2015-06-25T12:32:27Z</time>
      </trkpt>
      <trkpt lat="44.99559" lon="6.78572">
        <ele>1550.26</ele>
        <time>2015-06-25T12:32:32Z</time>
      </trkpt>
      <trkpt lat="44.99586" lon="6.78572">
        <ele>1549.85</ele>
        <time>2015-06-25T12:32:43Z</time>
      </trkpt>
      <trkpt lat="44.99599" lon="6.78569">
        <ele>1550.67</ele>
        <time>2015-06-25T12:32:55Z</time>
      </trkpt>
      <trkpt lat="44.99604" lon="6.78569">
        <ele>1551.58</ele>
        <time>2015-06-25T12:33:00Z</time>
      </trkpt>
      <trkpt lat="44.99611" lon="6.7858">
        <ele>1553.76</ele>
        <time>2015-06-25T12:33:12Z</time>
      </trkpt>
      <trkpt lat="44.99614" lon="6.78582">
        <ele>1554.19</ele>
        <time>2015-06-25T12:33:15Z</time>
      </trkpt>
      <trkpt lat="44.99623" lon="6.78591">
        <ele>1554.74</ele>
        <time>2015-06-25T12:33:22Z</time>
      </trkpt>
      <trkpt lat="44.99633" lon="6.78592">
        <ele>1555.18</ele>
        <time>2015-06-25T12:33:29Z</time>
      </trkpt>
      <trkpt lat="44.99645" lon="6.78612">
        <ele>1556.07</ele>
        <time>2015-06-25T12:33:44Z</time>
      </trkpt>
      <trkpt lat="44.99648" lon="6.78618">
        <ele>1556.19</ele>
        <time>2015-06-25T12:33:47Z</time>
      </trkpt>
      <trkpt lat="44.9966" lon="6.78656">
        <ele>1555.34</ele>
        <time>2015-06-25T12:33:59Z</time>
      </trkpt>
      <trkpt lat="44.99662" lon="6.78662">
        <ele>1554.98</ele>
        <time>2015-06-25T12:34:00Z</time>
      </trkpt>
      <trkpt lat="44.99669" lon="6.78679">
        <ele>1553.76</ele>
        <time>2015-06-25T12:34:03Z</time>
      </trkpt>
      <trkpt lat="44.9968" lon="6.78726">
        <ele>1551.7</ele>
        <time>2015-06-25T12:34:13Z</time>
      </trkpt>
      <trkpt lat="44.99689" lon="6.78756">
        <ele>1552.96</ele>
        <time>2015-06-25T12:34:23Z</time>
      </trkpt>
      <trkpt lat="44.99686" lon="6.78769">
        <ele>1552.98</ele>
        <time>2015-06-25T12:34:27Z</time>
      </trkpt>
      <trkpt lat="44.99679" lon="6.788">
        <ele>1552.83</ele>
        <time>2015-06-25T12:34:37Z</time>
      </trkpt>
      <trkpt lat="44.99678" lon="6.78803">
        <ele>1552.79</ele>
        <time>2015-06-25T12:34:38Z</time>
      </trkpt>
      <trkpt lat="44.99685" lon="6.7884">
        <ele>1552.53</ele>
        <time>2015-06-25T12:34:48Z</time>
      </trkpt>
      <trkpt lat="44.99696" lon="6.78871">
        <ele>1554.84</ele>
        <time>2015-06-25T12:35:00Z</time>
      </trkpt>
      <trkpt lat="44.99707" lon="6.7889">
        <ele>1556.1</ele>
        <time>2015-06-25T12:35:08Z</time>
      </trkpt>
      <trkpt lat="44.99712" lon="6.78919">
        <ele>1557.62</ele>
        <time>2015-06-25T12:35:21Z</time>
      </trkpt>
      <trkpt lat="44.99715" lon="6.7894">
        <ele>1560.36</ele>
        <time>2015-06-25T12:35:35Z</time>
      </trkpt>
      <trkpt lat="44.99713" lon="6.7895">
        <ele>1560.57</ele>
        <time>2015-06-25T12:36:13Z</time>
      </trkpt>
      <trkpt lat="44.99712" lon="6.7895">
        <ele>1560.81</ele>
        <time>2015-06-25T12:36:49Z</time>
      </trkpt>
      <trkpt lat="44.99713" lon="6.78949">
        <ele>1560.65</ele>
        <time>2015-06-25T12:37:41Z</time>
      </trkpt>
      <trkpt lat="44.99712" lon="6.78948">
        <ele>1560.61</ele>
        <time>2015-06-25T12:38:32Z</time>
      </trkpt>
      <trkpt lat="44.99713" lon="6.78947">
        <ele>1560.32</ele>
        <time>2015-06-25T12:39:31Z</time>
      </trkpt>
      <trkpt lat="44.99713" lon="6.78948">
        <ele>1560.42</ele>
        <time>2015-06-25T12:40:02Z</time>
      </trkpt>
      <trkpt lat="44.99711" lon="6.7895">
        <ele>1560.42</ele>
        <time>2015-06-25T12:40:46Z</time>
      </trkpt>
      <trkpt lat="44.99713" lon="6.78949">
        <ele>1559.92</ele>
        <time>2015-06-25T12:41:31Z</time>
      </trkpt>
      <trkpt lat="44.99713" lon="6.7895">
        <ele>1559.93</ele>
        <time>2015-06-25T12:42:10Z</time>
      </trkpt>
      <trkpt lat="44.99713" lon="6.7895">
        <ele>1560.03</ele>
        <time>2015-06-25T12:42:44Z</time>
      </trkpt>
      <trkpt lat="44.99713" lon="6.78949">
        <ele>1560.21</ele>
        <time>2015-06-25T12:43:27Z</time>
      </trkpt>
      <trkpt lat="44.99715" lon="6.78959">
        <ele>1560.44</ele>
        <time>2015-06-25T12:43:54Z</time>
      </trkpt>
      <trkpt lat="44.99729" lon="6.78988">
        <ele>1561.55</ele>
        <time>2015-06-25T12:44:09Z</time>
      </trkpt>
      <trkpt lat="44.99754" lon="6.79012">
        <ele>1560.71</ele>
        <time>2015-06-25T12:44:18Z</time>
      </trkpt>
      <trkpt lat="44.99755" lon="6.79024">
        <ele>1560.44</ele>
        <time>2015-06-25T12:44:22Z</time>
      </trkpt>
      <trkpt lat="44.99739" lon="6.79059">
        <ele>1559.74</ele>
        <time>2015-06-25T12:44:36Z</time>
      </trkpt>
      <trkpt lat="44.99732" lon="6.79101">
        <ele>1559.28</ele>
        <time>2015-06-25T12:44:48Z</time>
      </trkpt>
      <trkpt lat="44.99732" lon="6.79105">
        <ele>1559.27</ele>
        <time>2015-06-25T12:44:49Z</time>
      </trkpt>
      <trkpt lat="44.99722" lon="6.79129">
        <ele>1558.83</ele>
        <time>2015-06-25T12:44:59Z</time>
      </trkpt>
      <trkpt lat="44.99706" lon="6.7916">
        <ele>1555.34</ele>
        <time>2015-06-25T12:45:08Z</time>
      </trkpt>
      <trkpt lat="44.99696" lon="6.79186">
        <ele>1552.31</ele>
        <time>2015-06-25T12:45:14Z</time>
      </trkpt>
      <trkpt lat="44.99691" lon="6.79211">
        <ele>1549.98</ele>
        <time>2015-06-25T12:45:20Z</time>
      </trkpt>
      <trkpt lat="44.9969" lon="6.79229">
        <ele>1548.74</ele>
        <time>2015-06-25T12:45:23Z</time>
      </trkpt>
      <trkpt lat="44.99693" lon="6.7927">
        <ele>1544.86</ele>
        <time>2015-06-25T12:45:30Z</time>
      </trkpt>
      <trkpt lat="44.99695" lon="6.79286">
        <ele>1542.96</ele>
        <time>2015-06-25T12:45:33Z</time>
      </trkpt>
      <trkpt lat="44.99702" lon="6.79307">
        <ele>1541.46</ele>
        <time>2015-06-25T12:45:36Z</time>
      </trkpt>
      <trkpt lat="44.99711" lon="6.79356">
        <ele>1537.55</ele>
        <time>2015-06-25T12:45:44Z</time>
      </trkpt>
      <trkpt lat="44.99712" lon="6.79388">
        <ele>1535.15</ele>
        <time>2015-06-25T12:45:53Z</time>
      </trkpt>
      <trkpt lat="44.99713" lon="6.794">
        <ele>1534.1</ele>
        <time>2015-06-25T12:46:05Z</time>
      </trkpt>
      <trkpt lat="44.99717" lon="6.79431">
        <ele>1533.74</ele>
        <time>2015-06-25T12:46:15Z</time>
      </trkpt>
      <trkpt lat="44.99717" lon="6.79436">
        <ele>1532.59</ele>
        <time>2015-06-25T12:46:26Z</time>
      </trkpt>
      <trkpt lat="44.99715" lon="6.79439">
        <ele>1532.54</ele>
        <time>2015-06-25T12:46:47Z</time>
      </trkpt>
      <trkpt lat="44.99713" lon="6.79443">
        <ele>1532.59</ele>
        <time>2015-06-25T12:46:49Z</time>
      </trkpt>
      <trkpt lat="44.99726" lon="6.79473">
        <ele>1531.54</ele>
        <time>2015-06-25T12:46:58Z</time>
      </trkpt>
      <trkpt lat="44.9973" lon="6.79478">
        <ele>1531.32</ele>
        <time>2015-06-25T12:47:00Z</time>
      </trkpt>
      <trkpt lat="44.99733" lon="6.7951">
        <ele>1529.77</ele>
        <time>2015-06-25T12:47:08Z</time>
      </trkpt>
      <trkpt lat="44.99772" lon="6.79557">
        <ele>1525.69</ele>
        <time>2015-06-25T12:47:18Z</time>
      </trkpt>
      <trkpt lat="44.99792" lon="6.79571">
        <ele>1524.05</ele>
        <time>2015-06-25T12:47:23Z</time>
      </trkpt>
      <trkpt lat="44.99783" lon="6.79577">
        <ele>1522.45</ele>
        <time>2015-06-25T12:47:29Z</time>
      </trkpt>
      <trkpt lat="44.99765" lon="6.79566">
        <ele>1520.95</ele>
        <time>2015-06-25T12:47:34Z</time>
      </trkpt>
      <trkpt lat="44.99734" lon="6.79555">
        <ele>1517.64</ele>
        <time>2015-06-25T12:47:42Z</time>
      </trkpt>
      <trkpt lat="44.99694" lon="6.79529">
        <ele>1514.12</ele>
        <time>2015-06-25T12:47:52Z</time>
      </trkpt>
      <trkpt lat="44.99684" lon="6.79521">
        <ele>1513.11</ele>
        <time>2015-06-25T12:47:55Z</time>
      </trkpt>
      <trkpt lat="44.99672" lon="6.79504">
        <ele>1511.55</ele>
        <time>2015-06-25T12:47:59Z</time>
      </trkpt>
      <trkpt lat="44.99664" lon="6.79488">
        <ele>1510.1</ele>
        <time>2015-06-25T12:48:02Z</time>
      </trkpt>
      <trkpt lat="44.99658" lon="6.79451">
        <ele>1508.3</ele>
        <time>2015-06-25T12:48:07Z</time>
      </trkpt>
      <trkpt lat="44.9965" lon="6.79421">
        <ele>1506.95</ele>
        <time>2015-06-25T12:48:11Z</time>
      </trkpt>
      <trkpt lat="44.99625" lon="6.79353">
        <ele>1503.21</ele>
        <time>2015-06-25T12:48:20Z</time>
      </trkpt>
      <trkpt lat="44.99619" lon="6.79334">
        <ele>1501.69</ele>
        <time>2015-06-25T12:48:23Z</time>
      </trkpt>
      <trkpt lat="44.99616" lon="6.79311">
        <ele>1499.76</ele>
        <time>2015-06-25T12:48:26Z</time>
      </trkpt>
      <trkpt lat="44.99613" lon="6.79297">
        <ele>1498.87</ele>
        <time>2015-06-25T12:48:28Z</time>
      </trkpt>
      <trkpt lat="44.99612" lon="6.79283">
        <ele>1498.15</ele>
        <time>2015-06-25T12:48:30Z</time>
      </trkpt>
      <trkpt lat="44.99604" lon="6.79249">
        <ele>1496.1</ele>
        <time>2015-06-25T12:48:35Z</time>
      </trkpt>
      <trkpt lat="44.99589" lon="6.79203">
        <ele>1493.62</ele>
        <time>2015-06-25T12:48:41Z</time>
      </trkpt>
      <trkpt lat="44.99587" lon="6.7917">
        <ele>1491.73</ele>
        <time>2015-06-25T12:48:45Z</time>
      </trkpt>
      <trkpt lat="44.99588" lon="6.79143">
        <ele>1488.33</ele>
        <time>2015-06-25T12:48:54Z</time>
      </trkpt>
      <trkpt lat="44.99588" lon="6.79142">
        <ele>1487.08</ele>
        <time>2015-06-25T12:49:11Z</time>
      </trkpt>
      <trkpt lat="44.9958" lon="6.79157">
        <ele>1486.7</ele>
        <time>2015-06-25T12:49:18Z</time>
      </trkpt>
      <trkpt lat="44.99582" lon="6.79217">
        <ele>1483.72</ele>
        <time>2015-06-25T12:49:29Z</time>
      </trkpt>
      <trkpt lat="44.99584" lon="6.79228">
        <ele>1483.01</ele>
        <time>2015-06-25T12:49:31Z</time>
      </trkpt>
      <trkpt lat="44.99585" lon="6.7927">
        <ele>1480.16</ele>
        <time>2015-06-25T12:49:38Z</time>
      </trkpt>
      <trkpt lat="44.99579" lon="6.79314">
        <ele>1476.61</ele>
        <time>2015-06-25T12:49:46Z</time>
      </trkpt>
      <trkpt lat="44.99573" lon="6.79336">
        <ele>1475.38</ele>
        <time>2015-06-25T12:49:50Z</time>
      </trkpt>
      <trkpt lat="44.99569" lon="6.79359">
        <ele>1474.13</ele>
        <time>2015-06-25T12:49:54Z</time>
      </trkpt>
      <trkpt lat="44.99579" lon="6.79409">
        <ele>1470.25</ele>
        <time>2015-06-25T12:50:03Z</time>
      </trkpt>
      <trkpt lat="44.99574" lon="6.79456">
        <ele>1467.15</ele>
        <time>2015-06-25T12:50:12Z</time>
      </trkpt>
      <trkpt lat="44.99568" lon="6.79494">
        <ele>1464.38</ele>
        <time>2015-06-25T12:50:20Z</time>
      </trkpt>
      <trkpt lat="44.99575" lon="6.79527">
        <ele>1462.73</ele>
        <time>2015-06-25T12:50:25Z</time>
      </trkpt>
      <trkpt lat="44.9958" lon="6.79541">
        <ele>1460.96</ele>
        <time>2015-06-25T12:50:34Z</time>
      </trkpt>
      <trkpt lat="44.99579" lon="6.79544">
        <ele>1460.29</ele>
        <time>2015-06-25T12:50:55Z</time>
      </trkpt>
      <trkpt lat="44.99578" lon="6.79546">
        <ele>1460.26</ele>
        <time>2015-06-25T12:51:10Z</time>
      </trkpt>
      <trkpt lat="44.99578" lon="6.79562">
        <ele>1457.5</ele>
        <time>2015-06-25T12:51:24Z</time>
      </trkpt>
      <trkpt lat="44.99579" lon="6.79565">
        <ele>1456.04</ele>
        <time>2015-06-25T12:51:39Z</time>
      </trkpt>
      <trkpt lat="44.99584" lon="6.79592">
        <ele>1453.01</ele>
        <time>2015-06-25T12:51:51Z</time>
      </trkpt>
      <trkpt lat="44.99587" lon="6.79613">
        <ele>1449.23</ele>
        <time>2015-06-25T12:51:58Z</time>
      </trkpt>
      <trkpt lat="44.99595" lon="6.79632">
        <ele>1445.85</ele>
        <time>2015-06-25T12:52:04Z</time>
      </trkpt>
      <trkpt lat="44.996" lon="6.79645">
        <ele>1442.79</ele>
        <time>2015-06-25T12:52:09Z</time>
      </trkpt>
      <trkpt lat="44.99607" lon="6.79665">
        <ele>1439.35</ele>
        <time>2015-06-25T12:52:16Z</time>
      </trkpt>
      <trkpt lat="44.99611" lon="6.79674">
        <ele>1436.26</ele>
        <time>2015-06-25T12:52:22Z</time>
      </trkpt>
      <trkpt lat="44.99618" lon="6.79687">
        <ele>1433.39</ele>
        <time>2015-06-25T12:52:42Z</time>
      </trkpt>
      <trkpt lat="44.99624" lon="6.79699">
        <ele>1430.09</ele>
        <time>2015-06-25T12:52:50Z</time>
      </trkpt>
      <trkpt lat="44.99625" lon="6.797">
        <ele>1427.77</ele>
        <time>2015-06-25T12:53:27Z</time>
      </trkpt>
      <trkpt lat="44.99626" lon="6.79701">
        <ele>1427.72</ele>
        <time>2015-06-25T12:53:57Z</time>
      </trkpt>
      <trkpt lat="44.99625" lon="6.79703">
        <ele>1427.54</ele>
        <time>2015-06-25T12:54:24Z</time>
      </trkpt>
      <trkpt lat="44.99642" lon="6.7973">
        <ele>1424.19</ele>
        <time>2015-06-25T12:54:35Z</time>
      </trkpt>
      <trkpt lat="44.99644" lon="6.79731">
        <ele>1423.7</ele>
        <time>2015-06-25T12:54:36Z</time>
      </trkpt>
      <trkpt lat="44.99645" lon="6.79736">
        <ele>1422.16</ele>
        <time>2015-06-25T12:54:39Z</time>
      </trkpt>
      <trkpt lat="44.99643" lon="6.79736">
        <ele>1420.94</ele>
        <time>2015-06-25T12:54:41Z</time>
      </trkpt>
      <trkpt lat="44.99637" lon="6.79734">
        <ele>1417.21</ele>
        <time>2015-06-25T12:54:49Z</time>
      </trkpt>
      <trkpt lat="44.99633" lon="6.79734">
        <ele>1416.19</ele>
        <time>2015-06-25T12:54:53Z</time>
      </trkpt>
      <trkpt lat="44.99612" lon="6.79733">
        <ele>1412.68</ele>
        <time>2015-06-25T12:55:03Z</time>
      </trkpt>
      <trkpt lat="44.99601" lon="6.79729">
        <ele>1409.44</ele>
        <time>2015-06-25T12:55:10Z</time>
      </trkpt>
      <trkpt lat="44.99597" lon="6.79728">
        <ele>1408.13</ele>
        <time>2015-06-25T12:55:13Z</time>
      </trkpt>
      <trkpt lat="44.99601" lon="6.79738">
        <ele>1405.32</ele>
        <time>2015-06-25T12:55:19Z</time>
      </trkpt>
      <trkpt lat="44.99602" lon="6.7974">
        <ele>1404.54</ele>
        <time>2015-06-25T12:55:21Z</time>
      </trkpt>
      <trkpt lat="44.99603" lon="6.79747">
        <ele>1401.57</ele>
        <time>2015-06-25T12:55:28Z</time>
      </trkpt>
      <trkpt lat="44.99597" lon="6.79748">
        <ele>1398.7</ele>
        <time>2015-06-25T12:55:36Z</time>
      </trkpt>
      <trkpt lat="44.99597" lon="6.79755">
        <ele>1396.31</ele>
        <time>2015-06-25T12:55:42Z</time>
      </trkpt>
      <trkpt lat="44.99588" lon="6.79754">
        <ele>1393.28</ele>
        <time>2015-06-25T12:55:49Z</time>
      </trkpt>
      <trkpt lat="44.99587" lon="6.79759">
        <ele>1390.35</ele>
        <time>2015-06-25T12:55:57Z</time>
      </trkpt>
      <trkpt lat="44.99583" lon="6.79757">
        <ele>1387.78</ele>
        <time>2015-06-25T12:56:12Z</time>
      </trkpt>
      <trkpt lat="44.99581" lon="6.7976">
        <ele>1387.68</ele>
        <time>2015-06-25T12:56:43Z</time>
      </trkpt>
      <trkpt lat="44.99583" lon="6.79763">
        <ele>1387.63</ele>
        <time>2015-06-25T12:56:46Z</time>
      </trkpt>
      <trkpt lat="44.99586" lon="6.79764">
        <ele>1387.19</ele>
        <time>2015-06-25T12:56:49Z</time>
      </trkpt>
      <trkpt lat="44.99593" lon="6.79768">
        <ele>1385.54</ele>
        <time>2015-06-25T12:56:55Z</time>
      </trkpt>
      <trkpt lat="44.99598" lon="6.79772">
        <ele>1381.98</ele>
        <time>2015-06-25T12:57:04Z</time>
      </trkpt>
      <trkpt lat="44.99607" lon="6.79791">
        <ele>1379.75</ele>
        <time>2015-06-25T12:57:14Z</time>
      </trkpt>
      <trkpt lat="44.99607" lon="6.79795">
        <ele>1378.88</ele>
        <time>2015-06-25T12:57:16Z</time>
      </trkpt>
      <trkpt lat="44.996" lon="6.79791">
        <ele>1374.98</ele>
        <time>2015-06-25T12:57:23Z</time>
      </trkpt>
      <trkpt lat="44.99599" lon="6.79791">
        <ele>1373.91</ele>
        <time>2015-06-25T12:57:25Z</time>
      </trkpt>
      <trkpt lat="44.99601" lon="6.798">
        <ele>1370.01</ele>
        <time>2015-06-25T12:57:32Z</time>
      </trkpt>
      <trkpt lat="44.99601" lon="6.79803">
        <ele>1369.13</ele>
        <time>2015-06-25T12:57:34Z</time>
      </trkpt>
      <trkpt lat="44.99603" lon="6.79811">
        <ele>1366.44</ele>
        <time>2015-06-25T12:57:40Z</time>
      </trkpt>
      <trkpt lat="44.99596" lon="6.79803">
        <ele>1363.2</ele>
        <time>2015-06-25T12:57:48Z</time>
      </trkpt>
      <trkpt lat="44.99592" lon="6.79802">
        <ele>1360.3</ele>
        <time>2015-06-25T12:57:54Z</time>
      </trkpt>
      <trkpt lat="44.99595" lon="6.79817">
        <ele>1356.57</ele>
        <time>2015-06-25T12:58:02Z</time>
      </trkpt>
      <trkpt lat="44.99596" lon="6.79823">
        <ele>1355.1</ele>
        <time>2015-06-25T12:58:05Z</time>
      </trkpt>
      <trkpt lat="44.99589" lon="6.79823">
        <ele>1351.48</ele>
        <time>2015-06-25T12:58:12Z</time>
      </trkpt>
      <trkpt lat="44.99584" lon="6.79819">
        <ele>1348.42</ele>
        <time>2015-06-25T12:58:18Z</time>
      </trkpt>
      <trkpt lat="44.99581" lon="6.7983">
        <ele>1344.54</ele>
        <time>2015-06-25T12:58:27Z</time>
      </trkpt>
      <trkpt lat="44.99578" lon="6.79828">
        <ele>1341.78</ele>
        <time>2015-06-25T12:58:34Z</time>
      </trkpt>
      <trkpt lat="44.99578" lon="6.79841">
        <ele>1340.11</ele>
        <time>2015-06-25T12:58:39Z</time>
      </trkpt>
      <trkpt lat="44.99574" lon="6.79851">
        <ele>1336.44</ele>
        <time>2015-06-25T12:58:47Z</time>
      </trkpt>
      <trkpt lat="44.99572" lon="6.7985">
        <ele>1335.48</ele>
        <time>2015-06-25T12:58:49Z</time>
      </trkpt>
      <trkpt lat="44.99564" lon="6.79846">
        <ele>1331.75</ele>
        <time>2015-06-25T12:58:56Z</time>
      </trkpt>
      <trkpt lat="44.99564" lon="6.79848">
        <ele>1329.03</ele>
        <time>2015-06-25T12:59:05Z</time>
      </trkpt>
      <trkpt lat="44.99566" lon="6.79856">
        <ele>1328.69</ele>
        <time>2015-06-25T12:59:09Z</time>
      </trkpt>
      <trkpt lat="44.99567" lon="6.79865">
        <ele>1327.77</ele>
        <time>2015-06-25T12:59:13Z</time>
      </trkpt>
      <trkpt lat="44.99555" lon="6.79858">
        <ele>1324.2</ele>
        <time>2015-06-25T12:59:22Z</time>
      </trkpt>
      <trkpt lat="44.99554" lon="6.79861">
        <ele>1321.58</ele>
        <time>2015-06-25T12:59:28Z</time>
      </trkpt>
      <trkpt lat="44.99555" lon="6.79881">
        <ele>1317.97</ele>
        <time>2015-06-25T12:59:37Z</time>
      </trkpt>
      <trkpt lat="44.99552" lon="6.7988">
        <ele>1316.84</ele>
        <time>2015-06-25T12:59:39Z</time>
      </trkpt>
      <trkpt lat="44.99546" lon="6.79874">
        <ele>1313</ele>
        <time>2015-06-25T12:59:46Z</time>
      </trkpt>
      <trkpt lat="44.99545" lon="6.79875">
        <ele>1312.48</ele>
        <time>2015-06-25T12:59:47Z</time>
      </trkpt>
      <trkpt lat="44.99547" lon="6.79882">
        <ele>1310.24</ele>
        <time>2015-06-25T12:59:51Z</time>
      </trkpt>
      <trkpt lat="44.9955" lon="6.79887">
        <ele>1308.59</ele>
        <time>2015-06-25T12:59:54Z</time>
      </trkpt>
      <trkpt lat="44.99553" lon="6.79894">
        <ele>1305.26</ele>
        <time>2015-06-25T12:59:59Z</time>
      </trkpt>
      <trkpt lat="44.99546" lon="6.79893">
        <ele>1302.5</ele>
        <time>2015-06-25T13:00:04Z</time>
      </trkpt>
      <trkpt lat="44.99537" lon="6.799">
        <ele>1298.02</ele>
        <time>2015-06-25T13:00:12Z</time>
      </trkpt>
      <trkpt lat="44.99536" lon="6.799">
        <ele>1295</ele>
        <time>2015-06-25T13:00:23Z</time>
      </trkpt>
      <trkpt lat="44.99535" lon="6.79901">
        <ele>1295.13</ele>
        <time>2015-06-25T13:01:19Z</time>
      </trkpt>
      <trkpt lat="44.99537" lon="6.79901">
        <ele>1295.38</ele>
        <time>2015-06-25T13:02:04Z</time>
      </trkpt>
      <trkpt lat="44.99534" lon="6.79896">
        <ele>1295.08</ele>
        <time>2015-06-25T13:02:14Z</time>
      </trkpt>
      <trkpt lat="44.99529" lon="6.79888">
        <ele>1294.54</ele>
        <time>2015-06-25T13:02:19Z</time>
      </trkpt>
      <trkpt lat="44.99518" lon="6.79885">
        <ele>1291.27</ele>
        <time>2015-06-25T13:02:29Z</time>
      </trkpt>
      <trkpt lat="44.99514" lon="6.79887">
        <ele>1289.02</ele>
        <time>2015-06-25T13:02:35Z</time>
      </trkpt>
      <trkpt lat="44.99517" lon="6.79893">
        <ele>1287.72</ele>
        <time>2015-06-25T13:02:39Z</time>
      </trkpt>
      <trkpt lat="44.99517" lon="6.79896">
        <ele>1286.93</ele>
        <time>2015-06-25T13:02:41Z</time>
      </trkpt>
      <trkpt lat="44.99523" lon="6.79907">
        <ele>1283.42</ele>
        <time>2015-06-25T13:02:49Z</time>
      </trkpt>
      <trkpt lat="44.99529" lon="6.7992">
        <ele>1280.05</ele>
        <time>2015-06-25T13:02:55Z</time>
      </trkpt>
      <trkpt lat="44.99534" lon="6.79927">
        <ele>1278.54</ele>
        <time>2015-06-25T13:02:58Z</time>
      </trkpt>
      <trkpt lat="44.99541" lon="6.79938">
        <ele>1274.83</ele>
        <time>2015-06-25T13:03:05Z</time>
      </trkpt>
      <trkpt lat="44.99537" lon="6.79936">
        <ele>1271.7</ele>
        <time>2015-06-25T13:03:13Z</time>
      </trkpt>
      <trkpt lat="44.99535" lon="6.79934">
        <ele>1270.83</ele>
        <time>2015-06-25T13:03:15Z</time>
      </trkpt>
      <trkpt lat="44.99535" lon="6.79941">
        <ele>1267.45</ele>
        <time>2015-06-25T13:03:24Z</time>
      </trkpt>
      <trkpt lat="44.99541" lon="6.79948">
        <ele>1265.21</ele>
        <time>2015-06-25T13:03:29Z</time>
      </trkpt>
      <trkpt lat="44.99539" lon="6.79955">
        <ele>1261.59</ele>
        <time>2015-06-25T13:03:38Z</time>
      </trkpt>
      <trkpt lat="44.9953" lon="6.79972">
        <ele>1258.01</ele>
        <time>2015-06-25T13:03:48Z</time>
      </trkpt>
      <trkpt lat="44.99527" lon="6.79978">
        <ele>1255.6</ele>
        <time>2015-06-25T13:04:06Z</time>
      </trkpt>
      <trkpt lat="44.99528" lon="6.79988">
        <ele>1254.94</ele>
        <time>2015-06-25T13:04:23Z</time>
      </trkpt>
      <trkpt lat="44.99526" lon="6.80001">
        <ele>1254.25</ele>
        <time>2015-06-25T13:04:42Z</time>
      </trkpt>
      <trkpt lat="44.99528" lon="6.80008">
        <ele>1253.41</ele>
        <time>2015-06-25T13:04:51Z</time>
      </trkpt>
      <trkpt lat="44.99529" lon="6.80015">
        <ele>1252.62</ele>
        <time>2015-06-25T13:05:03Z</time>
      </trkpt>
      <trkpt lat="44.99534" lon="6.80021">
        <ele>1252.1</ele>
        <time>2015-06-25T13:05:44Z</time>
      </trkpt>
      <trkpt lat="44.99533" lon="6.8003">
        <ele>1252.35</ele>
        <time>2015-06-25T13:06:09Z</time>
      </trkpt>
      <trkpt lat="44.99537" lon="6.80042">
        <ele>1251.73</ele>
        <time>2015-06-25T13:06:15Z</time>
      </trkpt>
      <trkpt lat="44.99537" lon="6.80047">
        <ele>1251.32</ele>
        <time>2015-06-25T13:06:17Z</time>
      </trkpt>
      <trkpt lat="44.99535" lon="6.80062">
        <ele>1249.86</ele>
        <time>2015-06-25T13:06:24Z</time>
      </trkpt>
      <trkpt lat="44.99536" lon="6.80075">
        <ele>1248.62</ele>
        <time>2015-06-25T13:06:30Z</time>
      </trkpt>
      <trkpt lat="44.99532" lon="6.8009">
        <ele>1246.59</ele>
        <time>2015-06-25T13:06:36Z</time>
      </trkpt>
      <trkpt lat="44.99531" lon="6.80095">
        <ele>1246.16</ele>
        <time>2015-06-25T13:06:38Z</time>
      </trkpt>
      <trkpt lat="44.99528" lon="6.8012">
        <ele>1242.63</ele>
        <time>2015-06-25T13:06:48Z</time>
      </trkpt>
      <trkpt lat="44.99528" lon="6.80129">
        <ele>1240.23</ele>
        <time>2015-06-25T13:07:01Z</time>
      </trkpt>
      <trkpt lat="44.99529" lon="6.80139">
        <ele>1240.45</ele>
        <time>2015-06-25T13:07:20Z</time>
      </trkpt>
      <trkpt lat="44.9953" lon="6.80149">
        <ele>1240.17</ele>
        <time>2015-06-25T13:07:25Z</time>
      </trkpt>
      <trkpt lat="44.9953" lon="6.80152">
        <ele>1240.1</ele>
        <time>2015-06-25T13:07:27Z</time>
      </trkpt>
      <trkpt lat="44.99529" lon="6.80169">
        <ele>1239.34</ele>
        <time>2015-06-25T13:07:35Z</time>
      </trkpt>
      <trkpt lat="44.99531" lon="6.8019">
        <ele>1237.73</ele>
        <time>2015-06-25T13:07:42Z</time>
      </trkpt>
      <trkpt lat="44.99531" lon="6.80215">
        <ele>1235.73</ele>
        <time>2015-06-25T13:07:49Z</time>
      </trkpt>
      <trkpt lat="44.99532" lon="6.80218">
        <ele>1235.21</ele>
        <time>2015-06-25T13:07:51Z</time>
      </trkpt>
      <trkpt lat="44.99532" lon="6.8023">
        <ele>1234.12</ele>
        <time>2015-06-25T13:07:56Z</time>
      </trkpt>
      <trkpt lat="44.99535" lon="6.80243">
        <ele>1233.05</ele>
        <time>2015-06-25T13:08:00Z</time>
      </trkpt>
      <trkpt lat="44.99535" lon="6.80285">
        <ele>1229.85</ele>
        <time>2015-06-25T13:08:11Z</time>
      </trkpt>
      <trkpt lat="44.99538" lon="6.80318">
        <ele>1226.77</ele>
        <time>2015-06-25T13:08:21Z</time>
      </trkpt>
      <trkpt lat="44.99542" lon="6.80332">
        <ele>1225.45</ele>
        <time>2015-06-25T13:08:27Z</time>
      </trkpt>
      <trkpt lat="44.99526" lon="6.80348">
        <ele>1224.43</ele>
        <time>2015-06-25T13:08:39Z</time>
      </trkpt>
      <trkpt lat="44.99524" lon="6.80356">
        <ele>1224.37</ele>
        <time>2015-06-25T13:08:58Z</time>
      </trkpt>
      <trkpt lat="44.99526" lon="6.80356">
        <ele>1224.67</ele>
        <time>2015-06-25T13:09:25Z</time>
      </trkpt>
      <trkpt lat="44.99527" lon="6.80362">
        <ele>1224.79</ele>
        <time>2015-06-25T13:09:37Z</time>
      </trkpt>
      <trkpt lat="44.99528" lon="6.80372">
        <ele>1224.67</ele>
        <time>2015-06-25T13:09:41Z</time>
      </trkpt>
      <trkpt lat="44.9953" lon="6.80386">
        <ele>1224.2</ele>
        <time>2015-06-25T13:09:47Z</time>
      </trkpt>
      <trkpt lat="44.99536" lon="6.80398">
        <ele>1223.46</ele>
        <time>2015-06-25T13:09:52Z</time>
      </trkpt>
      <trkpt lat="44.99544" lon="6.80416">
        <ele>1221.99</ele>
        <time>2015-06-25T13:09:59Z</time>
      </trkpt>
      <trkpt lat="44.99549" lon="6.80448">
        <ele>1220.03</ele>
        <time>2015-06-25T13:10:10Z</time>
      </trkpt>
      <trkpt lat="44.9955" lon="6.80495">
        <ele>1216.83</ele>
        <time>2015-06-25T13:10:24Z</time>
      </trkpt>
      <trkpt lat="44.99552" lon="6.80534">
        <ele>1214.31</ele>
        <time>2015-06-25T13:10:33Z</time>
      </trkpt>
      <trkpt lat="44.99552" lon="6.80573">
        <ele>1211.53</ele>
        <time>2015-06-25T13:10:42Z</time>
      </trkpt>
      <trkpt lat="44.99543" lon="6.80608">
        <ele>1208.74</ele>
        <time>2015-06-25T13:10:50Z</time>
      </trkpt>
      <trkpt lat="44.99537" lon="6.80613">
        <ele>1208.11</ele>
        <time>2015-06-25T13:10:52Z</time>
      </trkpt>
      <trkpt lat="44.99522" lon="6.80626">
        <ele>1206.63</ele>
        <time>2015-06-25T13:10:56Z</time>
      </trkpt>
      <trkpt lat="44.99485" lon="6.80627">
        <ele>1203.6</ele>
        <time>2015-06-25T13:11:06Z</time>
      </trkpt>
      <trkpt lat="44.9948" lon="6.80629">
        <ele>1203.21</ele>
        <time>2015-06-25T13:11:16Z</time>
      </trkpt>
      <trkpt lat="44.99454" lon="6.80623">
        <ele>1201.56</ele>
        <time>2015-06-25T13:11:25Z</time>
      </trkpt>
      <trkpt lat="44.99443" lon="6.80621">
        <ele>1200.22</ele>
        <time>2015-06-25T13:11:29Z</time>
      </trkpt>
      <trkpt lat="44.99439" lon="6.80623">
        <ele>1198.09</ele>
        <time>2015-06-25T13:11:47Z</time>
      </trkpt>
      <trkpt lat="44.99436" lon="6.80624">
        <ele>1198.45</ele>
        <time>2015-06-25T13:12:19Z</time>
      </trkpt>
      <trkpt lat="44.99444" lon="6.80627">
        <ele>1198.3</ele>
        <time>2015-06-25T13:12:33Z</time>
      </trkpt>
      <trkpt lat="44.99447" lon="6.80628">
        <ele>1198.57</ele>
        <time>2015-06-25T13:12:38Z</time>
      </trkpt>
      <trkpt lat="44.99467" lon="6.80629">
        <ele>1200.45</ele>
        <time>2015-06-25T13:12:55Z</time>
      </trkpt>
      <trkpt lat="44.99469" lon="6.8063">
        <ele>1200.83</ele>
        <time>2015-06-25T13:12:57Z</time>
      </trkpt>
      <trkpt lat="44.99471" lon="6.80633">
        <ele>1201.31</ele>
        <time>2015-06-25T13:13:00Z</time>
      </trkpt>
      <trkpt lat="44.99475" lon="6.80635">
        <ele>1201.75</ele>
        <time>2015-06-25T13:13:03Z</time>
      </trkpt>
      <trkpt lat="44.99471" lon="6.80667">
        <ele>1202.59</ele>
        <time>2015-06-25T13:13:17Z</time>
      </trkpt>
      <trkpt lat="44.99466" lon="6.80711">
        <ele>1203.64</ele>
        <time>2015-06-25T13:13:30Z</time>
      </trkpt>
      <trkpt lat="44.99464" lon="6.80725">
        <ele>1203.64</ele>
        <time>2015-06-25T13:13:34Z</time>
      </trkpt>
      <trkpt lat="44.99486" lon="6.80742">
        <ele>1203.46</ele>
        <time>2015-06-25T13:13:47Z</time>
      </trkpt>
      <trkpt lat="44.99505" lon="6.80753">
        <ele>1205.12</ele>
        <time>2015-06-25T13:13:58Z</time>
      </trkpt>
      <trkpt lat="44.99523" lon="6.80759">
        <ele>1206.94</ele>
        <time>2015-06-25T13:14:09Z</time>
      </trkpt>
      <trkpt lat="44.99544" lon="6.80772">
        <ele>1209.18</ele>
        <time>2015-06-25T13:14:22Z</time>
      </trkpt>
      <trkpt lat="44.9956" lon="6.80782">
        <ele>1211.03</ele>
        <time>2015-06-25T13:14:34Z</time>
      </trkpt>
      <trkpt lat="44.99577" lon="6.80796">
        <ele>1212.57</ele>
        <time>2015-06-25T13:14:45Z</time>
      </trkpt>
      <trkpt lat="44.9959" lon="6.80801">
        <ele>1213.83</ele>
        <time>2015-06-25T13:14:55Z</time>
      </trkpt>
      <trkpt lat="44.99596" lon="6.80802">
        <ele>1214.7</ele>
        <time>2015-06-25T13:14:59Z</time>
      </trkpt>
      <trkpt lat="44.99615" lon="6.80805">
        <ele>1216.18</ele>
        <time>2015-06-25T13:15:11Z</time>
      </trkpt>
      <trkpt lat="44.99636" lon="6.80824">
        <ele>1218.94</ele>
        <time>2015-06-25T13:15:25Z</time>
      </trkpt>
      <trkpt lat="44.99642" lon="6.80838">
        <ele>1219.88</ele>
        <time>2015-06-25T13:15:33Z</time>
      </trkpt>
      <trkpt lat="44.99629" lon="6.80843">
        <ele>1221.02</ele>
        <time>2015-06-25T13:15:43Z</time>
      </trkpt>
      <trkpt lat="44.99602" lon="6.80839">
        <ele>1224.28</ele>
        <time>2015-06-25T13:16:01Z</time>
      </trkpt>
      <trkpt lat="44.99573" lon="6.8083">
        <ele>1226.96</ele>
        <time>2015-06-25T13:16:18Z</time>
      </trkpt>
      <trkpt lat="44.99538" lon="6.80817">
        <ele>1227.9</ele>
        <time>2015-06-25T13:16:36Z</time>
      </trkpt>
      <trkpt lat="44.99507" lon="6.80805">
        <ele>1230.96</ele>
        <time>2015-06-25T13:16:52Z</time>
      </trkpt>
      <trkpt lat="44.99471" lon="6.80788">
        <ele>1231.61</ele>
        <time>2015-06-25T13:17:06Z</time>
      </trkpt>
      <trkpt lat="44.99442" lon="6.80777">
        <ele>1231.06</ele>
        <time>2015-06-25T13:17:18Z</time>
      </trkpt>
      <trkpt lat="44.99384" lon="6.80748">
        <ele>1231.25</ele>
        <time>2015-06-25T13:17:34Z</time>
      </trkpt>
      <trkpt lat="44.99344" lon="6.80748">
        <ele>1231.67</ele>
        <time>2015-06-25T13:17:46Z</time>
      </trkpt>
      <trkpt lat="44.99332" lon="6.8075">
        <ele>1231.72</ele>
        <time>2015-06-25T13:17:49Z</time>
      </trkpt>
      <trkpt lat="44.9926" lon="6.80756">
        <ele>1232.32</ele>
        <time>2015-06-25T13:18:07Z</time>
      </trkpt>
      <trkpt lat="44.99232" lon="6.80759">
        <ele>1232.55</ele>
        <time>2015-06-25T13:18:14Z</time>
      </trkpt>
      <trkpt lat="44.99181" lon="6.80765">
        <ele>1233.17</ele>
        <time>2015-06-25T13:18:26Z</time>
      </trkpt>
      <trkpt lat="44.99116" lon="6.80801">
        <ele>1234.31</ele>
        <time>2015-06-25T13:18:42Z</time>
      </trkpt>
      <trkpt lat="44.99053" lon="6.80837">
        <ele>1235.46</ele>
        <time>2015-06-25T13:18:57Z</time>
      </trkpt>
      <trkpt lat="44.9904" lon="6.80839">
        <ele>1235.72</ele>
        <time>2015-06-25T13:19:00Z</time>
      </trkpt>
      <trkpt lat="44.98983" lon="6.80833">
        <ele>1236.62</ele>
        <time>2015-06-25T13:19:14Z</time>
      </trkpt>
      <trkpt lat="44.98921" lon="6.80817">
        <ele>1238.05</ele>
        <time>2015-06-25T13:19:30Z</time>
      </trkpt>
      <trkpt lat="44.98853" lon="6.80799">
        <ele>1239.19</ele>
        <time>2015-06-25T13:19:47Z</time>
      </trkpt>
      <trkpt lat="44.9879" lon="6.80784">
        <ele>1239.68</ele>
        <time>2015-06-25T13:20:02Z</time>
      </trkpt>
      <trkpt lat="44.98715" lon="6.80765">
        <ele>1240.9</ele>
        <time>2015-06-25T13:20:19Z</time>
      </trkpt>
      <trkpt lat="44.98637" lon="6.80737">
        <ele>1242.39</ele>
        <time>2015-06-25T13:20:36Z</time>
      </trkpt>
      <trkpt lat="44.98578" lon="6.80709">
        <ele>1243.48</ele>
        <time>2015-06-25T13:20:49Z</time>
      </trkpt>
      <trkpt lat="44.98487" lon="6.80682">
        <ele>1244.94</ele>
        <time>2015-06-25T13:21:08Z</time>
      </trkpt>
      <trkpt lat="44.9841" lon="6.80675">
        <ele>1247.28</ele>
        <time>2015-06-25T13:21:25Z</time>
      </trkpt>
      <trkpt lat="44.98369" lon="6.80677">
        <ele>1247.59</ele>
        <time>2015-06-25T13:21:34Z</time>
      </trkpt>
      <trkpt lat="44.98348" lon="6.80669">
        <ele>1248.09</ele>
        <time>2015-06-25T13:21:39Z</time>
      </trkpt>
      <trkpt lat="44.98318" lon="6.80649">
        <ele>1248.62</ele>
        <time>2015-06-25T13:21:47Z</time>
      </trkpt>
      <trkpt lat="44.98259" lon="6.80636">
        <ele>1246.93</ele>
        <time>2015-06-25T13:21:56Z</time>
      </trkpt>
      <trkpt lat="44.98217" lon="6.80623">
        <ele>1244.09</ele>
        <time>2015-06-25T13:22:00Z</time>
      </trkpt>
      <trkpt lat="44.98198" lon="6.80613">
        <ele>1242.43</ele>
        <time>2015-06-25T13:22:02Z</time>
      </trkpt>
      <trkpt lat="44.98175" lon="6.80559">
        <ele>1238.43</ele>
        <time>2015-06-25T13:22:08Z</time>
      </trkpt>
      <trkpt lat="44.98168" lon="6.80502">
        <ele>1237.45</ele>
        <time>2015-06-25T13:22:15Z</time>
      </trkpt>
      <trkpt lat="44.98151" lon="6.8048">
        <ele>1239.28</ele>
        <time>2015-06-25T13:22:24Z</time>
      </trkpt>
      <trkpt lat="44.98134" lon="6.80443">
        <ele>1242.68</ele>
        <time>2015-06-25T13:22:38Z</time>
      </trkpt>
      <trkpt lat="44.98118" lon="6.80401">
        <ele>1245.75</ele>
        <time>2015-06-25T13:22:52Z</time>
      </trkpt>
      <trkpt lat="44.98105" lon="6.80367">
        <ele>1248.88</ele>
        <time>2015-06-25T13:23:03Z</time>
      </trkpt>
      <trkpt lat="44.98098" lon="6.80333">
        <ele>1252.02</ele>
        <time>2015-06-25T13:23:14Z</time>
      </trkpt>
      <trkpt lat="44.98094" lon="6.80302">
        <ele>1255.07</ele>
        <time>2015-06-25T13:23:27Z</time>
      </trkpt>
      <trkpt lat="44.98092" lon="6.80291">
        <ele>1256.72</ele>
        <time>2015-06-25T13:23:39Z</time>
      </trkpt>
      <trkpt lat="44.98089" lon="6.80286">
        <ele>1256.16</ele>
        <time>2015-06-25T13:24:20Z</time>
      </trkpt>
      <trkpt lat="44.98089" lon="6.80285">
        <ele>1256.4</ele>
        <time>2015-06-25T13:24:23Z</time>
      </trkpt>
    </trkseg>
  </trk>
</gpx>